Wetterdaten: Montag, 27.02.2017
Datum Zeit Temp. A. Feuchte A. Luftdruck Regen Wind Richtung Richtung Sonnenschein ET UV Solar Taupunkt Windchill Windben Empfang
27.02.2017 00:00 0,9 C 94 % 1016,0 hPa 0,0 l/m 0,1 km/h (0 Bft) O 82 0 min 0,000 mm 0,0 UV-I 0 W/m 0,0 C 0,9 C 1,6 km/h (1 Bft) 100,00 %
27.02.2017 00:02 1,0 C 94 % 1016,0 hPa 0,0 l/m 0,0 km/h (0 Bft) O 82 0 min 0,000 mm 0,0 UV-I 0 W/m 0,1 C 1,0 C 0,0 km/h (0 Bft) 100,00 %
27.02.2017 00:04 1,0 C 93 % 1016,0 hPa 0,0 l/m 0,0 km/h (0 Bft) O 82 0 min 0,000 mm 0,0 UV-I 0 W/m -0,0 C 1,0 C 0,0 km/h (0 Bft) 100,00 %
27.02.2017 00:06 1,0 C 93 % 1016,0 hPa 0,0 l/m 0,0 km/h (0 Bft) O 82 0 min 0,000 mm 0,0 UV-I 0 W/m -0,0 C 1,0 C 0,0 km/h (0 Bft) 100,00 %
27.02.2017 00:08 0,9 C 93 % 1016,0 hPa 0,0 l/m 0,0 km/h (0 Bft) O 82 0 min 0,000 mm 0,0 UV-I 0 W/m -0,1 C 0,9 C 1,6 km/h (1 Bft) 97,87 %
27.02.2017 00:10 0,8 C 92 % 1016,0 hPa 0,0 l/m 0,4 km/h (0 Bft) O 82 0 min 0,000 mm 0,0 UV-I 0 W/m -0,3 C 0,8 C 1,6 km/h (1 Bft) 100,00 %
27.02.2017 00:12 0,8 C 93 % 1016,0 hPa 0,0 l/m 1,1 km/h (1 Bft) O 82 0 min 0,000 mm 0,0 UV-I 0 W/m -0,2 C 0,8 C 3,2 km/h (1 Bft) 98,11 %
27.02.2017 00:14 0,8 C 93 % 1016,0 hPa 0,0 l/m 1,7 km/h (1 Bft) O 82 0 min 0,000 mm 0,0 UV-I 0 W/m -0,2 C 0,8 C 3,2 km/h (1 Bft) 97,37 %
27.02.2017 00:16 0,6 C 92 % 1016,0 hPa 0,0 l/m 0,0 km/h (0 Bft) O 82 0 min 0,000 mm 0,0 UV-I 0 W/m -0,5 C 0,6 C 0,0 km/h (0 Bft) 100,00 %
27.02.2017 00:18 0,5 C 93 % 1016,0 hPa 0,0 l/m 0,0 km/h (0 Bft) O 82 0 min 0,000 mm 0,0 UV-I 0 W/m -0,5 C 0,5 C 0,0 km/h (0 Bft) 98,21 %
27.02.2017 00:20 0,4 C 93 % 1016,0 hPa 0,0 l/m 0,0 km/h (0 Bft) O 82 0 min 0,000 mm 0,0 UV-I 0 W/m -0,6 C 0,4 C 0,0 km/h (0 Bft) 97,22 %
27.02.2017 00:22 0,4 C 93 % 1016,0 hPa 0,0 l/m 0,0 km/h (0 Bft) O 82 0 min 0,000 mm 0,0 UV-I 0 W/m -0,6 C 0,4 C 0,0 km/h (0 Bft) 98,00 %
27.02.2017 00:24 0,4 C 93 % 1016,0 hPa 0,0 l/m 0,0 km/h (0 Bft) O 82 0 min 0,000 mm 0,0 UV-I 0 W/m -0,6 C 0,4 C 0,0 km/h (0 Bft) 97,87 %
27.02.2017 00:26 0,4 C 93 % 1016,0 hPa 0,0 l/m 0,0 km/h (0 Bft) O 82 0 min 0,000 mm 0,0 UV-I 0 W/m -0,6 C 0,4 C 0,0 km/h (0 Bft) 100,00 %
27.02.2017 00:28 0,6 C 94 % 1016,0 hPa 0,0 l/m 0,0 km/h (0 Bft) O 82 0 min 0,000 mm 0,0 UV-I 0 W/m -0,3 C 0,6 C 0,0 km/h (0 Bft) 100,00 %
27.02.2017 00:30 0,6 C 94 % 1016,0 hPa 0,0 l/m 0,1 km/h (0 Bft) O 82 0 min 0,000 mm 0,0 UV-I 0 W/m -0,3 C 0,6 C 1,6 km/h (1 Bft) 97,37 %
27.02.2017 00:32 0,5 C 93 % 1016,0 hPa 0,0 l/m 0,0 km/h (0 Bft) O 82 0 min 0,000 mm 0,0 UV-I 0 W/m -0,5 C 0,5 C 0,0 km/h (0 Bft) 98,11 %
27.02.2017 00:34 0,5 C 93 % 1016,1 hPa 0,0 l/m 0,8 km/h (0 Bft) O 82 0 min 0,000 mm 0,0 UV-I 0 W/m -0,5 C 0,5 C 3,2 km/h (1 Bft) 100,00 %
27.02.2017 00:36 0,4 C 93 % 1016,1 hPa 0,0 l/m 1,7 km/h (1 Bft) O 82 0 min 0,000 mm 0,0 UV-I 0 W/m -0,6 C 0,4 C 3,2 km/h (1 Bft) 100,00 %
27.02.2017 00:38 0,4 C 94 % 1016,1 hPa 0,0 l/m 1,3 km/h (1 Bft) O 82 0 min 0,000 mm 0,0 UV-I 0 W/m -0,5 C 0,4 C 3,2 km/h (1 Bft) 100,00 %
27.02.2017 00:40 0,4 C 93 % 1016,1 hPa 0,0 l/m 1,2 km/h (1 Bft) O 82 0 min 0,000 mm 0,0 UV-I 0 W/m -0,6 C 0,4 C 3,2 km/h (1 Bft) 100,00 %
27.02.2017 00:42 0,5 C 94 % 1016,2 hPa 0,0 l/m 0,3 km/h (0 Bft) O 82 0 min 0,000 mm 0,0 UV-I 0 W/m -0,4 C 0,5 C 1,6 km/h (1 Bft) 98,00 %
27.02.2017 00:44 0,5 C 94 % 1016,1 hPa 0,0 l/m 0,0 km/h (0 Bft) O 82 0 min 0,000 mm 0,0 UV-I 0 W/m -0,4 C 0,5 C 0,0 km/h (0 Bft) 100,00 %
27.02.2017 00:46 0,5 C 94 % 1016,1 hPa 0,0 l/m 0,0 km/h (0 Bft) O 82 0 min 0,000 mm 0,0 UV-I 0 W/m -0,4 C 0,5 C 0,0 km/h (0 Bft) 96,23 %
27.02.2017 00:48 0,4 C 93 % 1016,1 hPa 0,0 l/m 0,0 km/h (0 Bft) O 82 0 min 0,000 mm 0,0 UV-I 0 W/m -0,6 C 0,4 C 0,0 km/h (0 Bft) 87,23 %
27.02.2017 00:50 0,3 C 93 % 1016,1 hPa 0,0 l/m 0,1 km/h (0 Bft) O 82 0 min 0,000 mm 0,0 UV-I 0 W/m -0,7 C 0,3 C 1,6 km/h (1 Bft) 95,12 %
27.02.2017 00:52 0,3 C 93 % 1016,1 hPa 0,0 l/m 0,4 km/h (0 Bft) O 82 0 min 0,000 mm 0,0 UV-I 0 W/m -0,7 C 0,3 C 1,6 km/h (1 Bft) 94,00 %
27.02.2017 00:54 0,3 C 94 % 1016,1 hPa 0,0 l/m 0,1 km/h (0 Bft) O 82 0 min 0,000 mm 0,0 UV-I 0 W/m -0,5 C 0,3 C 1,6 km/h (1 Bft) 96,00 %
27.02.2017 00:56 0,3 C 94 % 1016,1 hPa 0,0 l/m 0,3 km/h (0 Bft) O 82 0 min 0,000 mm 0,0 UV-I 0 W/m -0,5 C 0,3 C 1,6 km/h (1 Bft) 96,00 %
27.02.2017 00:58 0,2 C 93 % 1016,0 hPa 0,0 l/m 0,7 km/h (0 Bft) O 82 0 min 0,000 mm 0,0 UV-I 0 W/m -0,8 C 0,2 C 3,2 km/h (1 Bft) 95,74 %
27.02.2017 01:00 0,1 C 93 % 1016,1 hPa 0,0 l/m 0,4 km/h (0 Bft) O 82 0 min 0,000 mm 0,0 UV-I 0 W/m -0,9 C 0,1 C 1,6 km/h (1 Bft) 98,00 %
27.02.2017 01:02 0,1 C 94 % 1016,1 hPa 0,0 l/m 1,8 km/h (1 Bft) O 82 0 min 0,000 mm 0,0 UV-I 0 W/m -0,7 C 0,1 C 3,2 km/h (1 Bft) 92,11 %
27.02.2017 01:04 0,2 C 94 % 1016,0 hPa 0,0 l/m 1,5 km/h (1 Bft) O 82 0 min 0,000 mm 0,0 UV-I 0 W/m -0,6 C 0,2 C 3,2 km/h (1 Bft) 95,74 %
27.02.2017 01:06 0,2 C 94 % 1016,0 hPa 0,0 l/m 0,0 km/h (0 Bft) O 82 0 min 0,000 mm 0,0 UV-I 0 W/m -0,6 C 0,2 C 1,6 km/h (1 Bft) 96,00 %
27.02.2017 01:08 0,2 C 94 % 1016,0 hPa 0,0 l/m 1,5 km/h (1 Bft) O 82 0 min 0,000 mm 0,0 UV-I 0 W/m -0,6 C 0,2 C 4,8 km/h (1 Bft) 91,67 %
27.02.2017 01:10 0,3 C 94 % 1016,1 hPa 0,0 l/m 3,5 km/h (1 Bft) O 82 0 min 0,000 mm 0,0 UV-I 0 W/m -0,5 C 0,3 C 4,8 km/h (1 Bft) 96,88 %
27.02.2017 01:12 0,3 C 94 % 1016,1 hPa 0,0 l/m 1,1 km/h (1 Bft) O 82 0 min 0,000 mm 0,0 UV-I 0 W/m -0,5 C 0,3 C 3,2 km/h (1 Bft) 98,11 %
27.02.2017 01:14 0,3 C 94 % 1016,1 hPa 0,0 l/m 0,1 km/h (0 Bft) O 82 0 min 0,000 mm 0,0 UV-I 0 W/m -0,5 C 0,3 C 1,6 km/h (1 Bft) 93,62 %
27.02.2017 01:16 0,3 C 94 % 1016,1 hPa 0,0 l/m 0,0 km/h (0 Bft) O 82 0 min 0,000 mm 0,0 UV-I 0 W/m -0,5 C 0,3 C 0,0 km/h (0 Bft) 98,00 %
27.02.2017 01:18 0,3 C 94 % 1016,1 hPa 0,0 l/m 0,0 km/h (0 Bft) O 82 0 min 0,000 mm 0,0 UV-I 0 W/m -0,5 C 0,3 C 0,0 km/h (0 Bft) 93,75 %
27.02.2017 01:20 0,3 C 94 % 1016,1 hPa 0,0 l/m 0,0 km/h (0 Bft) O 82 0 min 0,000 mm 0,0 UV-I 0 W/m -0,5 C 0,3 C 0,0 km/h (0 Bft) 94,74 %
27.02.2017 01:22 0,3 C 94 % 1016,1 hPa 0,0 l/m 0,5 km/h (0 Bft) O 82 0 min 0,000 mm 0,0 UV-I 0 W/m -0,5 C 0,3 C 3,2 km/h (1 Bft) 92,00 %
27.02.2017 01:24 0,2 C 94 % 1016,0 hPa 0,0 l/m 2,7 km/h (1 Bft) O 82 0 min 0,000 mm 0,0 UV-I 0 W/m -0,6 C 0,2 C 4,8 km/h (1 Bft) 86,00 %
27.02.2017 01:26 0,2 C 94 % 1016,0 hPa 0,0 l/m 1,0 km/h (0 Bft) O 82 0 min 0,000 mm 0,0 UV-I 0 W/m -0,6 C 0,2 C 3,2 km/h (1 Bft) 94,00 %
27.02.2017 01:28 0,2 C 94 % 1016,0 hPa 0,0 l/m 0,0 km/h (0 Bft) O 82 0 min 0,000 mm 0,0 UV-I 0 W/m -0,6 C 0,2 C 0,0 km/h (0 Bft) 97,87 %
27.02.2017 01:30 0,3 C 94 % 1015,9 hPa 0,0 l/m 0,0 km/h (0 Bft) O 82 0 min 0,000 mm 0,0 UV-I 0 W/m -0,5 C 0,3 C 0,0 km/h (0 Bft) 97,37 %
27.02.2017 01:32 0,3 C 94 % 1015,9 hPa 0,0 l/m 0,0 km/h (0 Bft) O 82 0 min 0,000 mm 0,0 UV-I 0 W/m -0,5 C 0,3 C 1,6 km/h (1 Bft) 100,00 %
27.02.2017 01:34 0,3 C 94 % 1015,9 hPa 0,0 l/m 0,0 km/h (0 Bft) O 82 0 min 0,000 mm 0,0 UV-I 0 W/m -0,5 C 0,3 C 0,0 km/h (0 Bft) 98,00 %
27.02.2017 01:36 0,3 C 94 % 1015,9 hPa 0,0 l/m 0,0 km/h (0 Bft) O 82 0 min 0,000 mm 0,0 UV-I 0 W/m -0,5 C 0,3 C 0,0 km/h (0 Bft) 97,37 %
27.02.2017 01:38 0,4 C 94 % 1015,9 hPa 0,0 l/m 0,6 km/h (0 Bft) O 82 0 min 0,000 mm 0,0 UV-I 0 W/m -0,5 C 0,4 C 1,6 km/h (1 Bft) 96,00 %
27.02.2017 01:40 0,4 C 94 % 1016,0 hPa 0,0 l/m 0,0 km/h (0 Bft) O 82 0 min 0,000 mm 0,0 UV-I 0 W/m -0,5 C 0,4 C 0,0 km/h (0 Bft) 100,00 %
27.02.2017 01:42 0,4 C 94 % 1015,9 hPa 0,0 l/m 0,0 km/h (0 Bft) O 82 0 min 0,000 mm 0,0 UV-I 0 W/m -0,5 C 0,4 C 0,0 km/h (0 Bft) 100,00 %
27.02.2017 01:44 0,4 C 94 % 1016,0 hPa 0,0 l/m 0,2 km/h (0 Bft) O 82 0 min 0,000 mm 0,0 UV-I 0 W/m -0,5 C 0,4 C 1,6 km/h (1 Bft) 96,23 %
27.02.2017 01:46 0,3 C 94 % 1015,9 hPa 0,0 l/m 0,0 km/h (0 Bft) O 82 0 min 0,000 mm 0,0 UV-I 0 W/m -0,5 C 0,3 C 1,6 km/h (1 Bft) 100,00 %
27.02.2017 01:48 0,3 C 94 % 1015,9 hPa 0,0 l/m 0,3 km/h (0 Bft) O 82 0 min 0,000 mm 0,0 UV-I 0 W/m -0,5 C 0,3 C 1,6 km/h (1 Bft) 98,00 %
27.02.2017 01:50 0,2 C 94 % 1015,9 hPa 0,0 l/m 0,2 km/h (0 Bft) O 82 0 min 0,000 mm 0,0 UV-I 0 W/m -0,6 C 0,2 C 1,6 km/h (1 Bft) 95,45 %
27.02.2017 01:52 0,3 C 94 % 1015,9 hPa 0,0 l/m 0,0 km/h (0 Bft) O 82 0 min 0,000 mm 0,0 UV-I 0 W/m -0,5 C 0,3 C 0,0 km/h (0 Bft) 97,87 %
27.02.2017 01:54 0,3 C 94 % 1015,9 hPa 0,0 l/m 0,0 km/h (0 Bft) O 82 0 min 0,000 mm 0,0 UV-I 0 W/m -0,5 C 0,3 C 0,0 km/h (0 Bft) 100,00 %
27.02.2017 01:56 0,2 C 94 % 1015,8 hPa 0,0 l/m 0,0 km/h (0 Bft) O 82 0 min 0,000 mm 0,0 UV-I 0 W/m -0,6 C 0,2 C 0,0 km/h (0 Bft) 100,00 %
27.02.2017 01:58 0,2 C 94 % 1015,8 hPa 0,0 l/m 0,4 km/h (0 Bft) O 82 0 min 0,000 mm 0,0 UV-I 0 W/m -0,6 C 0,2 C 1,6 km/h (1 Bft) 92,11 %
27.02.2017 02:00 0,1 C 94 % 1015,8 hPa 0,0 l/m 0,6 km/h (0 Bft) O 82 0 min 0,000 mm 0,0 UV-I 0 W/m -0,7 C 0,1 C 1,6 km/h (1 Bft) 98,11 %
27.02.2017 02:02 0,1 C 94 % 1015,8 hPa 0,0 l/m 2,7 km/h (1 Bft) O 82 0 min 0,000 mm 0,0 UV-I 0 W/m -0,7 C 0,1 C 4,8 km/h (1 Bft) 93,62 %
27.02.2017 02:04 0,1 C 94 % 1015,7 hPa 0,0 l/m 1,6 km/h (1 Bft) O 82 0 min 0,000 mm 0,0 UV-I 0 W/m -0,7 C 0,1 C 3,2 km/h (1 Bft) 100,00 %
27.02.2017 02:06 -0,1 C 94 % 1015,8 hPa 0,0 l/m 0,0 km/h (0 Bft) O 82 0 min 0,000 mm 0,0 UV-I 0 W/m -0,9 C -0,1 C 1,6 km/h (1 Bft) 97,56 %
27.02.2017 02:08 0,1 C 95 % 1015,7 hPa 0,0 l/m 0,0 km/h (0 Bft) O 82 0 min 0,000 mm 0,0 UV-I 0 W/m -0,6 C 0,1 C 0,0 km/h (0 Bft) 97,22 %
27.02.2017 02:10 0,1 C 94 % 1015,7 hPa 0,0 l/m 0,0 km/h (0 Bft) O 82 0 min 0,000 mm 0,0 UV-I 0 W/m -0,7 C 0,1 C 0,0 km/h (0 Bft) 94,34 %
27.02.2017 02:12 0,1 C 94 % 1015,6 hPa 0,0 l/m 0,0 km/h (0 Bft) O 82 0 min 0,000 mm 0,0 UV-I 0 W/m -0,7 C 0,1 C 0,0 km/h (0 Bft) 98,00 %
27.02.2017 02:14 0,1 C 94 % 1015,6 hPa 0,0 l/m 0,0 km/h (0 Bft) O 82 0 min 0,000 mm 0,0 UV-I 0 W/m -0,7 C 0,1 C 0,0 km/h (0 Bft) 98,00 %
27.02.2017 02:16 0,0 C 94 % 1015,6 hPa 0,0 l/m 0,0 km/h (0 Bft) O 82 0 min 0,000 mm 0,0 UV-I 0 W/m -0,8 C 0,0 C 0,0 km/h (0 Bft) 96,00 %
27.02.2017 02:18 0,1 C 95 % 1015,6 hPa 0,0 l/m 0,0 km/h (0 Bft) O 82 0 min 0,000 mm 0,0 UV-I 0 W/m -0,6 C 0,1 C 0,0 km/h (0 Bft) 95,74 %
27.02.2017 02:20 0,0 C 94 % 1015,5 hPa 0,0 l/m 0,0 km/h (0 Bft) O 82 0 min 0,000 mm 0,0 UV-I 0 W/m -0,8 C 0,0 C 0,0 km/h (0 Bft) 94,74 %
27.02.2017 02:22 -0,1 C 94 % 1015,5 hPa 0,0 l/m 0,0 km/h (0 Bft) O 82 0 min 0,000 mm 0,0 UV-I 0 W/m -0,9 C -0,1 C 0,0 km/h (0 Bft) 94,64 %
27.02.2017 02:24 -0,2 C 94 % 1015,5 hPa 0,0 l/m 0,0 km/h (0 Bft) O 82 0 min 0,000 mm 0,0 UV-I 0 W/m -1,0 C -0,2 C 0,0 km/h (0 Bft) 97,87 %
27.02.2017 02:26 -0,3 C 94 % 1015,5 hPa 0,0 l/m 0,8 km/h (0 Bft) O 82 0 min 0,000 mm 0,0 UV-I 0 W/m -1,1 C -0,3 C 1,6 km/h (1 Bft) 94,74 %
27.02.2017 02:28 -0,3 C 94 % 1015,4 hPa 0,0 l/m 1,8 km/h (1 Bft) O 82 0 min 0,000 mm 0,0 UV-I 0 W/m -1,1 C -0,3 C 3,2 km/h (1 Bft) 95,45 %
27.02.2017 02:30 -0,3 C 95 % 1015,4 hPa 0,0 l/m 3,0 km/h (1 Bft) O 82 0 min 0,000 mm 0,0 UV-I 0 W/m -1,0 C -0,3 C 4,8 km/h (1 Bft) 98,11 %
27.02.2017 02:32 -0,3 C 95 % 1015,4 hPa 0,0 l/m 3,3 km/h (1 Bft) O 82 0 min 0,000 mm 0,0 UV-I 0 W/m -1,0 C -0,3 C 4,8 km/h (1 Bft) 98,11 %
27.02.2017 02:34 -0,3 C 95 % 1015,4 hPa 0,0 l/m 2,0 km/h (1 Bft) O 82 0 min 0,000 mm 0,0 UV-I 0 W/m -1,0 C -0,3 C 3,2 km/h (1 Bft) 97,87 %
27.02.2017 02:36 -0,3 C 94 % 1015,4 hPa 0,0 l/m 1,1 km/h (1 Bft) O 82 0 min 0,000 mm 0,0 UV-I 0 W/m -1,1 C -0,3 C 3,2 km/h (1 Bft) 94,87 %
27.02.2017 02:38 -0,3 C 94 % 1015,4 hPa 0,0 l/m 0,0 km/h (0 Bft) O 82 0 min 0,000 mm 0,0 UV-I 0 W/m -1,1 C -0,3 C 0,0 km/h (0 Bft) 100,00 %
27.02.2017 02:40 -0,4 C 94 % 1015,4 hPa 0,0 l/m 0,0 km/h (0 Bft) O 82 0 min 0,000 mm 0,0 UV-I 0 W/m -1,2 C -0,4 C 0,0 km/h (0 Bft) 100,00 %
27.02.2017 02:42 -0,4 C 95 % 1015,4 hPa 0,0 l/m 0,0 km/h (0 Bft) O 82 0 min 0,000 mm 0,0 UV-I 0 W/m -1,1 C -0,4 C 0,0 km/h (0 Bft) 95,12 %
27.02.2017 02:44 -0,4 C 94 % 1015,4 hPa 0,0 l/m 0,0 km/h (0 Bft) O 82 0 min 0,000 mm 0,0 UV-I 0 W/m -1,2 C -0,4 C 0,0 km/h (0 Bft) 98,11 %
27.02.2017 02:46 -0,3 C 95 % 1015,4 hPa 0,0 l/m 0,0 km/h (0 Bft) O 82 0 min 0,000 mm 0,0 UV-I 0 W/m -1,0 C -0,3 C 0,0 km/h (0 Bft) 100,00 %
27.02.2017 02:48 -0,3 C 95 % 1015,3 hPa 0,0 l/m 0,0 km/h (0 Bft) O 82 0 min 0,000 mm 0,0 UV-I 0 W/m -1,0 C -0,3 C 0,0 km/h (0 Bft) 96,00 %
27.02.2017 02:50 -0,3 C 95 % 1015,3 hPa 0,0 l/m 0,0 km/h (0 Bft) O 82 0 min 0,000 mm 0,0 UV-I 0 W/m -1,0 C -0,3 C 0,0 km/h (0 Bft) 98,00 %
27.02.2017 02:52 -0,3 C 95 % 1015,4 hPa 0,0 l/m 1,4 km/h (1 Bft) O 82 0 min 0,000 mm 0,0 UV-I 0 W/m -1,0 C -0,3 C 3,2 km/h (1 Bft) 100,00 %
27.02.2017 02:54 -0,4 C 94 % 1015,3 hPa 0,0 l/m 2,7 km/h (1 Bft) O 82 0 min 0,000 mm 0,0 UV-I 0 W/m -1,2 C -0,4 C 3,2 km/h (1 Bft) 100,00 %
27.02.2017 02:56 -0,4 C 94 % 1015,3 hPa 0,0 l/m 1,1 km/h (1 Bft) O 82 0 min 0,000 mm 0,0 UV-I 0 W/m -1,2 C -0,4 C 3,2 km/h (1 Bft) 100,00 %
27.02.2017 02:58 -0,3 C 95 % 1015,3 hPa 0,0 l/m 0,1 km/h (0 Bft) O 82 0 min 0,000 mm 0,0 UV-I 0 W/m -1,0 C -0,3 C 1,6 km/h (1 Bft) 100,00 %
27.02.2017 03:00 -0,2 C 95 % 1015,3 hPa 0,0 l/m 0,0 km/h (0 Bft) O 82 0 min 0,000 mm 0,0 UV-I 0 W/m -0,9 C -0,2 C 0,0 km/h (0 Bft) 100,00 %
27.02.2017 03:02 -0,1 C 95 % 1015,3 hPa 0,0 l/m 0,0 km/h (0 Bft) O 82 0 min 0,000 mm 0,0 UV-I 0 W/m -0,8 C -0,1 C 0,0 km/h (0 Bft) 97,87 %
27.02.2017 03:04 -0,2 C 95 % 1015,3 hPa 0,0 l/m 0,0 km/h (0 Bft) O 82 0 min 0,000 mm 0,0 UV-I 0 W/m -0,9 C -0,2 C 1,6 km/h (1 Bft) 97,44 %
27.02.2017 03:06 -0,3 C 94 % 1015,3 hPa 0,0 l/m 0,0 km/h (0 Bft) O 82 0 min 0,000 mm 0,0 UV-I 0 W/m -1,1 C -0,3 C 1,6 km/h (1 Bft) 100,00 %
27.02.2017 03:08 -0,4 C 95 % 1015,3 hPa 0,0 l/m 0,4 km/h (0 Bft) O 82 0 min 0,000 mm 0,0 UV-I 0 W/m -1,1 C -0,4 C 1,6 km/h (1 Bft) 97,87 %
27.02.2017 03:10 -0,3 C 95 % 1015,3 hPa 0,0 l/m 0,0 km/h (0 Bft) O 82 0 min 0,000 mm 0,0 UV-I 0 W/m -1,0 C -0,3 C 0,0 km/h (0 Bft) 100,00 %
27.02.2017 03:12 -0,3 C 95 % 1015,3 hPa 0,0 l/m 0,0 km/h (0 Bft) O 82 0 min 0,000 mm 0,0 UV-I 0 W/m -1,0 C -0,3 C 0,0 km/h (0 Bft) 97,87 %
27.02.2017 03:14 -0,2 C 95 % 1015,3 hPa 0,0 l/m 0,0 km/h (0 Bft) O 82 0 min 0,000 mm 0,0 UV-I 0 W/m -0,9 C -0,2 C 0,0 km/h (0 Bft) 100,00 %
27.02.2017 03:16 -0,2 C 95 % 1015,3 hPa 0,0 l/m 0,0 km/h (0 Bft) O 82 0 min 0,000 mm 0,0 UV-I 0 W/m -0,9 C -0,2 C 0,0 km/h (0 Bft) 97,87 %
27.02.2017 03:18 -0,2 C 95 % 1015,3 hPa 0,0 l/m 0,0 km/h (0 Bft) O 82 0 min 0,000 mm 0,0 UV-I 0 W/m -0,9 C -0,2 C 0,0 km/h (0 Bft) 95,74 %
27.02.2017 03:20 -0,2 C 95 % 1015,3 hPa 0,0 l/m 0,0 km/h (0 Bft) O 82 0 min 0,000 mm 0,0 UV-I 0 W/m -0,9 C -0,2 C 0,0 km/h (0 Bft) 98,00 %
27.02.2017 03:22 -0,2 C 95 % 1015,2 hPa 0,0 l/m 0,0 km/h (0 Bft) O 82 0 min 0,000 mm 0,0 UV-I 0 W/m -0,9 C -0,2 C 0,0 km/h (0 Bft) 97,56 %
27.02.2017 03:24 -0,3 C 95 % 1015,2 hPa 0,0 l/m 0,0 km/h (0 Bft) O 82 0 min 0,000 mm 0,0 UV-I 0 W/m -1,0 C -0,3 C 0,0 km/h (0 Bft) 96,23 %
27.02.2017 03:26 -0,3 C 95 % 1015,2 hPa 0,0 l/m 0,0 km/h (0 Bft) O 82 0 min 0,000 mm 0,0 UV-I 0 W/m -1,0 C -0,3 C 0,0 km/h (0 Bft) 97,44 %
27.02.2017 03:28 -0,3 C 95 % 1015,2 hPa 0,0 l/m 0,0 km/h (0 Bft) O 82 0 min 0,000 mm 0,0 UV-I 0 W/m -1,0 C -0,3 C 0,0 km/h (0 Bft) 89,36 %
27.02.2017 03:30 -0,3 C 95 % 1015,1 hPa 0,0 l/m 0,0 km/h (0 Bft) O 82 0 min 0,000 mm 0,0 UV-I 0 W/m -1,0 C -0,3 C 0,0 km/h (0 Bft) 98,21 %
27.02.2017 03:32 -0,4 C 95 % 1015,1 hPa 0,0 l/m 0,0 km/h (0 Bft) O 82 0 min 0,000 mm 0,0 UV-I 0 W/m -1,1 C -0,4 C 0,0 km/h (0 Bft) 94,74 %
27.02.2017 03:34 -0,4 C 95 % 1015,1 hPa 0,0 l/m 0,0 km/h (0 Bft) O 82 0 min 0,000 mm 0,0 UV-I 0 W/m -1,1 C -0,4 C 0,0 km/h (0 Bft) 93,62 %
27.02.2017 03:36 -0,5 C 95 % 1015,1 hPa 0,0 l/m 0,0 km/h (0 Bft) O 82 0 min 0,000 mm 0,0 UV-I 0 W/m -1,2 C -0,5 C 0,0 km/h (0 Bft) 95,12 %
27.02.2017 03:38 -0,6 C 95 % 1015,0 hPa 0,0 l/m 0,0 km/h (0 Bft) O 82 0 min 0,000 mm 0,0 UV-I 0 W/m -1,3 C -0,6 C 0,0 km/h (0 Bft) 96,43 %
27.02.2017 03:40 -0,6 C 95 % 1015,0 hPa 0,0 l/m 0,0 km/h (0 Bft) O 82 0 min 0,000 mm 0,0 UV-I 0 W/m -1,3 C -0,6 C 0,0 km/h (0 Bft) 93,62 %
27.02.2017 03:42 -0,7 C 95 % 1015,0 hPa 0,0 l/m 0,4 km/h (0 Bft) O 82 0 min 0,000 mm 0,0 UV-I 0 W/m -1,4 C -0,7 C 1,6 km/h (1 Bft) 94,00 %
27.02.2017 03:44 -0,8 C 95 % 1015,0 hPa 0,0 l/m 2,7 km/h (1 Bft) O 82 0 min 0,000 mm 0,0 UV-I 0 W/m -1,5 C -0,8 C 3,2 km/h (1 Bft) 97,37 %
27.02.2017 03:46 -0,8 C 95 % 1015,0 hPa 0,0 l/m 2,7 km/h (1 Bft) O 82 0 min 0,000 mm 0,0 UV-I 0 W/m -1,5 C -0,8 C 3,2 km/h (1 Bft) 94,00 %
27.02.2017 03:48 -0,8 C 95 % 1015,0 hPa 0,0 l/m 3,1 km/h (1 Bft) O 82 0 min 0,000 mm 0,0 UV-I 0 W/m -1,5 C -0,8 C 4,8 km/h (1 Bft) 97,87 %
27.02.2017 03:50 -0,8 C 95 % 1015,0 hPa 0,0 l/m 2,3 km/h (1 Bft) O 82 0 min 0,000 mm 0,0 UV-I 0 W/m -1,5 C -0,8 C 3,2 km/h (1 Bft) 98,00 %
27.02.2017 03:52 -0,8 C 95 % 1015,0 hPa 0,0 l/m 1,1 km/h (1 Bft) O 82 0 min 0,000 mm 0,0 UV-I 0 W/m -1,5 C -0,8 C 1,6 km/h (1 Bft) 96,00 %
27.02.2017 03:54 -0,8 C 95 % 1015,0 hPa 0,0 l/m 0,0 km/h (0 Bft) O 82 0 min 0,000 mm 0,0 UV-I 0 W/m -1,5 C -0,8 C 0,0 km/h (0 Bft) 100,00 %
27.02.2017 03:56 -0,8 C 95 % 1014,9 hPa 0,0 l/m 0,5 km/h (0 Bft) O 82 0 min 0,000 mm 0,0 UV-I 0 W/m -1,5 C -0,8 C 1,6 km/h (1 Bft) 98,11 %
27.02.2017 03:58 -0,8 C 95 % 1014,9 hPa 0,0 l/m 1,6 km/h (1 Bft) O 82 0 min 0,000 mm 0,0 UV-I 0 W/m -1,5 C -0,8 C 4,8 km/h (1 Bft) 100,00 %
27.02.2017 04:00 -0,8 C 95 % 1014,9 hPa 0,0 l/m 3,2 km/h (1 Bft) O 82 0 min 0,000 mm 0,0 UV-I 0 W/m -1,5 C -0,8 C 4,8 km/h (1 Bft) 97,37 %
27.02.2017 04:02 -0,8 C 95 % 1014,9 hPa 0,0 l/m 3,2 km/h (1 Bft) O 82 0 min 0,000 mm 0,0 UV-I 0 W/m -1,5 C -0,8 C 3,2 km/h (1 Bft) 94,44 %
27.02.2017 04:04 -0,8 C 95 % 1014,9 hPa 0,0 l/m 4,0 km/h (1 Bft) O-SO 107 0 min 0,000 mm 0,0 UV-I 0 W/m -1,5 C -0,8 C 4,8 km/h (1 Bft) 100,00 %
27.02.2017 04:06 -0,9 C 95 % 1014,9 hPa 0,0 l/m 3,0 km/h (1 Bft) O-SO 107 0 min 0,000 mm 0,0 UV-I 0 W/m -1,6 C -0,9 C 3,2 km/h (1 Bft) 100,00 %
27.02.2017 04:08 -1,0 C 95 % 1014,8 hPa 0,0 l/m 2,9 km/h (1 Bft) O-SO 107 0 min 0,000 mm 0,0 UV-I 0 W/m -1,7 C -1,0 C 3,2 km/h (1 Bft) 100,00 %
27.02.2017 04:10 -0,9 C 96 % 1014,8 hPa 0,0 l/m 2,2 km/h (1 Bft) O-SO 107 0 min 0,000 mm 0,0 UV-I 0 W/m -1,5 C -0,9 C 3,2 km/h (1 Bft) 98,00 %
27.02.2017 04:12 -0,7 C 96 % 1014,8 hPa 0,0 l/m 0,8 km/h (0 Bft) O-SO 107 0 min 0,000 mm 0,0 UV-I 0 W/m -1,3 C -0,7 C 1,6 km/h (1 Bft) 96,23 %
27.02.2017 04:14 -0,7 C 96 % 1014,8 hPa 0,0 l/m 0,0 km/h (0 Bft) O-SO 107 0 min 0,000 mm 0,0 UV-I 0 W/m -1,3 C -0,7 C 0,0 km/h (0 Bft) 100,00 %
27.02.2017 04:16 -0,7 C 96 % 1014,8 hPa 0,0 l/m 0,0 km/h (0 Bft) O-SO 107 0 min 0,000 mm 0,0 UV-I 0 W/m -1,3 C -0,7 C 0,0 km/h (0 Bft) 95,74 %
27.02.2017 04:18 -0,7 C 96 % 1014,8 hPa 0,0 l/m 0,0 km/h (0 Bft) O-SO 107 0 min 0,000 mm 0,0 UV-I 0 W/m -1,3 C -0,7 C 0,0 km/h (0 Bft) 100,00 %
27.02.2017 04:20 -0,7 C 96 % 1014,8 hPa 0,0 l/m 0,0 km/h (0 Bft) O-SO 107 0 min 0,000 mm 0,0 UV-I 0 W/m -1,3 C -0,7 C 0,0 km/h (0 Bft) 100,00 %
27.02.2017 04:22 -0,6 C 96 % 1014,8 hPa 0,0 l/m 0,0 km/h (0 Bft) O-SO 107 0 min 0,000 mm 0,0 UV-I 0 W/m -1,2 C -0,6 C 0,0 km/h (0 Bft) 98,00 %
27.02.2017 04:24 -0,6 C 96 % 1014,8 hPa 0,0 l/m 0,0 km/h (0 Bft) O-SO 107 0 min 0,000 mm 0,0 UV-I 0 W/m -1,2 C -0,6 C 0,0 km/h (0 Bft) 97,14 %
27.02.2017 04:26 -0,7 C 96 % 1014,7 hPa 0,0 l/m 0,0 km/h (0 Bft) O-SO 107 0 min 0,000 mm 0,0 UV-I 0 W/m -1,3 C -0,7 C 0,0 km/h (0 Bft) 98,11 %
27.02.2017 04:28 -0,7 C 96 % 1014,8 hPa 0,0 l/m 0,0 km/h (0 Bft) O-SO 107 0 min 0,000 mm 0,0 UV-I 0 W/m -1,3 C -0,7 C 0,0 km/h (0 Bft) 100,00 %
27.02.2017 04:30 -0,7 C 96 % 1014,8 hPa 0,0 l/m 0,0 km/h (0 Bft) O-SO 107 0 min 0,000 mm 0,0 UV-I 0 W/m -1,3 C -0,7 C 0,0 km/h (0 Bft) 100,00 %
27.02.2017 04:32 -0,7 C 95 % 1014,8 hPa 0,0 l/m 0,0 km/h (0 Bft) O-SO 107 0 min 0,000 mm 0,0 UV-I 0 W/m -1,4 C -0,7 C 0,0 km/h (0 Bft) 100,00 %
27.02.2017 04:34 -0,7 C 96 % 1014,7 hPa 0,0 l/m 0,0 km/h (0 Bft) O-SO 107 0 min 0,000 mm 0,0 UV-I 0 W/m -1,3 C -0,7 C 0,0 km/h (0 Bft) 98,11 %
27.02.2017 04:36 -0,8 C 95 % 1014,7 hPa 0,0 l/m 0,0 km/h (0 Bft) O-SO 107 0 min 0,000 mm 0,0 UV-I 0 W/m -1,5 C -0,8 C 1,6 km/h (1 Bft) 100,00 %
27.02.2017 04:38 -0,8 C 95 % 1014,6 hPa 0,0 l/m 0,0 km/h (0 Bft) O-SO 107 0 min 0,000 mm 0,0 UV-I 0 W/m -1,5 C -0,8 C 0,0 km/h (0 Bft) 92,68 %
27.02.2017 04:40 -0,8 C 96 % 1014,7 hPa 0,0 l/m 0,0 km/h (0 Bft) O-SO 107 0 min 0,000 mm 0,0 UV-I 0 W/m -1,4 C -0,8 C 0,0 km/h (0 Bft) 97,92 %
27.02.2017 04:42 -0,8 C 96 % 1014,6 hPa 0,0 l/m 0,0 km/h (0 Bft) O-SO 107 0 min 0,000 mm 0,0 UV-I 0 W/m -1,4 C -0,8 C 0,0 km/h (0 Bft) 95,74 %
27.02.2017 04:44 -0,8 C 96 % 1014,6 hPa 0,0 l/m 0,0 km/h (0 Bft) O-SO 107 0 min 0,000 mm 0,0 UV-I 0 W/m -1,4 C -0,8 C 0,0 km/h (0 Bft) 95,74 %
27.02.2017 04:46 -0,8 C 96 % 1014,6 hPa 0,0 l/m 0,0 km/h (0 Bft) O-SO 107 0 min 0,000 mm 0,0 UV-I 0 W/m -1,4 C -0,8 C 0,0 km/h (0 Bft) 94,00 %
27.02.2017 04:48 -0,8 C 96 % 1014,6 hPa 0,0 l/m 0,0 km/h (0 Bft) O-SO 107 0 min 0,000 mm 0,0 UV-I 0 W/m -1,4 C -0,8 C 0,0 km/h (0 Bft) 97,87 %
27.02.2017 04:50 -0,8 C 96 % 1014,7 hPa 0,0 l/m 0,0 km/h (0 Bft) O-SO 107 0 min 0,000 mm 0,0 UV-I 0 W/m -1,4 C -0,8 C 0,0 km/h (0 Bft) 97,87 %
27.02.2017 04:52 -0,8 C 96 % 1014,6 hPa 0,0 l/m 0,0 km/h (0 Bft) O-SO 107 0 min 0,000 mm 0,0 UV-I 0 W/m -1,4 C -0,8 C 0,0 km/h (0 Bft) 94,74 %
27.02.2017 04:54 -0,8 C 96 % 1014,6 hPa 0,0 l/m 0,0 km/h (0 Bft) O-SO 107 0 min 0,000 mm 0,0 UV-I 0 W/m -1,4 C -0,8 C 0,0 km/h (0 Bft) 98,11 %
27.02.2017 04:56 -0,8 C 96 % 1014,6 hPa 0,0 l/m 0,0 km/h (0 Bft) O-SO 107 0 min 0,000 mm 0,0 UV-I 0 W/m -1,4 C -0,8 C 0,0 km/h (0 Bft) 94,00 %
27.02.2017 04:58 -0,8 C 96 % 1014,6 hPa 0,0 l/m 0,0 km/h (0 Bft) O-SO 107 0 min 0,000 mm 0,0 UV-I 0 W/m -1,4 C -0,8 C 0,0 km/h (0 Bft) 97,87 %
27.02.2017 05:00 -0,9 C 96 % 1014,6 hPa 0,0 l/m 0,0 km/h (0 Bft) O-SO 107 0 min 0,000 mm 0,0 UV-I 0 W/m -1,5 C -0,9 C 0,0 km/h (0 Bft) 95,74 %
27.02.2017 05:02 -0,9 C 96 % 1014,6 hPa 0,0 l/m 0,0 km/h (0 Bft) O-SO 107 0 min 0,000 mm 0,0 UV-I 0 W/m -1,5 C -0,9 C 0,0 km/h (0 Bft) 97,37 %
27.02.2017 05:04 -0,9 C 96 % 1014,6 hPa 0,0 l/m 0,0 km/h (0 Bft) O-SO 107 0 min 0,000 mm 0,0 UV-I 0 W/m -1,5 C -0,9 C 0,0 km/h (0 Bft) 98,00 %
27.02.2017 05:06 -0,9 C 96 % 1014,6 hPa 0,0 l/m 0,0 km/h (0 Bft) O-SO 107 0 min 0,000 mm 0,0 UV-I 0 W/m -1,5 C -0,9 C 0,0 km/h (0 Bft) 96,00 %
27.02.2017 05:08 -0,9 C 96 % 1014,6 hPa 0,0 l/m 0,0 km/h (0 Bft) O-SO 107 0 min 0,000 mm 0,0 UV-I 0 W/m -1,5 C -0,9 C 0,0 km/h (0 Bft) 100,00 %
27.02.2017 05:10 -0,9 C 96 % 1014,5 hPa 0,0 l/m 0,0 km/h (0 Bft) O-SO 107 0 min 0,000 mm 0,0 UV-I 0 W/m -1,5 C -0,9 C 0,0 km/h (0 Bft) 98,00 %
27.02.2017 05:12 -0,9 C 96 % 1014,5 hPa 0,0 l/m 0,0 km/h (0 Bft) O-SO 107 0 min 0,000 mm 0,0 UV-I 0 W/m -1,5 C -0,9 C 0,0 km/h (0 Bft) 98,00 %
27.02.2017 05:14 -0,9 C 96 % 1014,5 hPa 0,0 l/m 0,0 km/h (0 Bft) O-SO 107 0 min 0,000 mm 0,0 UV-I 0 W/m -1,5 C -0,9 C 0,0 km/h (0 Bft) 97,92 %
27.02.2017 05:16 -0,9 C 96 % 1014,5 hPa 0,0 l/m 0,0 km/h (0 Bft) O-SO 107 0 min 0,000 mm 0,0 UV-I 0 W/m -1,5 C -0,9 C 0,0 km/h (0 Bft) 100,00 %
27.02.2017 05:18 -0,9 C 96 % 1014,4 hPa 0,0 l/m 0,2 km/h (0 Bft) O-SO 107 0 min 0,000 mm 0,0 UV-I 0 W/m -1,5 C -0,9 C 3,2 km/h (1 Bft) 96,00 %
27.02.2017 05:20 -0,8 C 96 % 1014,5 hPa 0,0 l/m 2,3 km/h (1 Bft) O-SO 107 0 min 0,000 mm 0,0 UV-I 0 W/m -1,4 C -0,8 C 3,2 km/h (1 Bft) 100,00 %
27.02.2017 05:22 -0,7 C 96 % 1014,4 hPa 0,0 l/m 1,4 km/h (1 Bft) O-SO 107 0 min 0,000 mm 0,0 UV-I 0 W/m -1,3 C -0,7 C 3,2 km/h (1 Bft) 98,21 %
27.02.2017 05:24 -0,6 C 96 % 1014,5 hPa 0,0 l/m 1,7 km/h (1 Bft) O-SO 107 0 min 0,000 mm 0,0 UV-I 0 W/m -1,2 C -0,6 C 3,2 km/h (1 Bft) 100,00 %
27.02.2017 05:26 -0,6 C 96 % 1014,5 hPa 0,0 l/m 0,0 km/h (0 Bft) O-SO 107 0 min 0,000 mm 0,0 UV-I 0 W/m -1,2 C -0,6 C 0,0 km/h (0 Bft) 97,37 %
27.02.2017 05:28 -0,7 C 96 % 1014,4 hPa 0,0 l/m 0,2 km/h (0 Bft) O-SO 107 0 min 0,000 mm 0,0 UV-I 0 W/m -1,3 C -0,7 C 1,6 km/h (1 Bft) 96,43 %
27.02.2017 05:30 -0,8 C 96 % 1014,5 hPa 0,0 l/m 2,1 km/h (1 Bft) O-SO 107 0 min 0,000 mm 0,0 UV-I 0 W/m -1,4 C -0,8 C 3,2 km/h (1 Bft) 100,00 %
27.02.2017 05:32 -0,9 C 96 % 1014,4 hPa 0,0 l/m 0,3 km/h (0 Bft) O-SO 107 0 min 0,000 mm 0,0 UV-I 0 W/m -1,5 C -0,9 C 1,6 km/h (1 Bft) 93,75 %
27.02.2017 05:34 -0,9 C 96 % 1014,4 hPa 0,0 l/m 1,3 km/h (1 Bft) O-SO 107 0 min 0,000 mm 0,0 UV-I 0 W/m -1,5 C -0,9 C 3,2 km/h (1 Bft) 97,96 %
27.02.2017 05:36 -0,9 C 96 % 1014,4 hPa 0,0 l/m 1,9 km/h (1 Bft) O-SO 107 0 min 0,000 mm 0,0 UV-I 0 W/m -1,5 C -0,9 C 3,2 km/h (1 Bft) 96,23 %
27.02.2017 05:38 -0,9 C 96 % 1014,4 hPa 0,0 l/m 0,9 km/h (0 Bft) O-SO 107 0 min 0,000 mm 0,0 UV-I 0 W/m -1,5 C -0,9 C 1,6 km/h (1 Bft) 94,87 %
27.02.2017 05:40 -0,9 C 96 % 1014,4 hPa 0,0 l/m 0,0 km/h (0 Bft) O-SO 107 0 min 0,000 mm 0,0 UV-I 0 W/m -1,5 C -0,9 C 0,0 km/h (0 Bft) 93,62 %
27.02.2017 05:42 -1,0 C 96 % 1014,3 hPa 0,0 l/m 0,0 km/h (0 Bft) O-SO 107 0 min 0,000 mm 0,0 UV-I 0 W/m -1,6 C -1,0 C 0,0 km/h (0 Bft) 96,00 %
27.02.2017 05:44 -1,1 C 96 % 1014,3 hPa 0,0 l/m 0,0 km/h (0 Bft) O-SO 107 0 min 0,000 mm 0,0 UV-I 0 W/m -1,7 C -1,1 C 0,0 km/h (0 Bft) 97,87 %
27.02.2017 05:46 -1,1 C 96 % 1014,3 hPa 0,0 l/m 0,0 km/h (0 Bft) O-SO 107 0 min 0,000 mm 0,0 UV-I 0 W/m -1,7 C -1,1 C 0,0 km/h (0 Bft) 93,62 %
27.02.2017 05:48 -1,2 C 96 % 1014,3 hPa 0,0 l/m 2,9 km/h (1 Bft) O-SO 107 0 min 0,000 mm 0,0 UV-I 0 W/m -1,8 C -1,2 C 4,8 km/h (1 Bft) 98,00 %
27.02.2017 05:50 -1,3 C 96 % 1014,3 hPa 0,0 l/m 3,4 km/h (1 Bft) O-SO 107 0 min 0,000 mm 0,0 UV-I 0 W/m -1,9 C -1,3 C 4,8 km/h (1 Bft) 96,00 %
27.02.2017 05:52 -1,3 C 96 % 1014,3 hPa 0,0 l/m 3,3 km/h (1 Bft) O-SO 107 0 min 0,000 mm 0,0 UV-I 0 W/m -1,9 C -1,3 C 4,8 km/h (1 Bft) 92,11 %
27.02.2017 05:54 -1,3 C 96 % 1014,3 hPa 0,0 l/m 2,6 km/h (1 Bft) O-SO 107 0 min 0,000 mm 0,0 UV-I 0 W/m -1,9 C -1,3 C 3,2 km/h (1 Bft) 97,87 %
27.02.2017 05:56 -1,3 C 96 % 1014,2 hPa 0,0 l/m 1,6 km/h (1 Bft) O-SO 107 0 min 0,000 mm 0,0 UV-I 0 W/m -1,9 C -1,3 C 3,2 km/h (1 Bft) 94,00 %
27.02.2017 05:58 -1,3 C 96 % 1014,2 hPa 0,0 l/m 2,0 km/h (1 Bft) O-SO 107 0 min 0,000 mm 0,0 UV-I 0 W/m -1,9 C -1,3 C 3,2 km/h (1 Bft) 96,23 %
27.02.2017 06:00 -1,3 C 96 % 1014,2 hPa 0,0 l/m 2,4 km/h (1 Bft) O-SO 107 0 min 0,000 mm 0,0 UV-I 0 W/m -1,9 C -1,3 C 3,2 km/h (1 Bft) 87,50 %
27.02.2017 06:02 -1,3 C 96 % 1014,2 hPa 0,0 l/m 2,4 km/h (1 Bft) O-SO 107 0 min 0,000 mm 0,0 UV-I 0 W/m -1,9 C -1,3 C 3,2 km/h (1 Bft) 98,39 %
27.02.2017 06:04 -1,3 C 96 % 1014,2 hPa 0,0 l/m 2,6 km/h (1 Bft) O-SO 107 0 min 0,000 mm 0,0 UV-I 0 W/m -1,9 C -1,3 C 3,2 km/h (1 Bft) 92,00 %
27.02.2017 06:06 -1,3 C 96 % 1014,2 hPa 0,0 l/m 1,9 km/h (1 Bft) O-SO 107 0 min 0,000 mm 0,0 UV-I 0 W/m -1,9 C -1,3 C 3,2 km/h (1 Bft) 96,00 %
27.02.2017 06:08 -1,4 C 96 % 1014,1 hPa 0,0 l/m 3,2 km/h (1 Bft) O-SO 107 0 min 0,000 mm 0,0 UV-I 0 W/m -2,0 C -1,4 C 3,2 km/h (1 Bft) 97,56 %
27.02.2017 06:10 -1,4 C 96 % 1014,1 hPa 0,0 l/m 0,9 km/h (0 Bft) O-SO 107 0 min 0,000 mm 0,0 UV-I 0 W/m -2,0 C -1,4 C 3,2 km/h (1 Bft) 93,62 %
27.02.2017 06:12 -1,4 C 96 % 1014,1 hPa 0,0 l/m 0,6 km/h (0 Bft) O-SO 107 0 min 0,000 mm 0,0 UV-I 0 W/m -2,0 C -1,4 C 1,6 km/h (1 Bft) 97,56 %
27.02.2017 06:14 -1,4 C 96 % 1014,1 hPa 0,0 l/m 0,9 km/h (0 Bft) O-SO 107 0 min 0,000 mm 0,0 UV-I 0 W/m -2,0 C -1,4 C 1,6 km/h (1 Bft) 98,11 %
27.02.2017 06:16 -1,4 C 96 % 1014,1 hPa 0,0 l/m 0,0 km/h (0 Bft) O-SO 107 0 min 0,000 mm 0,0 UV-I 0 W/m -2,0 C -1,4 C 0,0 km/h (0 Bft) 96,00 %
27.02.2017 06:18 -1,4 C 96 % 1014,0 hPa 0,0 l/m 0,0 km/h (0 Bft) O-SO 107 0 min 0,000 mm 0,0 UV-I 0 W/m -2,0 C -1,4 C 0,0 km/h (0 Bft) 97,73 %
27.02.2017 06:20 -1,4 C 96 % 1014,0 hPa 0,0 l/m 0,0 km/h (0 Bft) O-SO 107 0 min 0,000 mm 0,0 UV-I 0 W/m -2,0 C -1,4 C 0,0 km/h (0 Bft) 100,00 %
27.02.2017 06:22 -1,3 C 96 % 1014,0 hPa 0,0 l/m 0,0 km/h (0 Bft) O-SO 107 0 min 0,000 mm 0,0 UV-I 0 W/m -1,9 C -1,3 C 0,0 km/h (0 Bft) 97,87 %
27.02.2017 06:24 -1,3 C 96 % 1014,0 hPa 0,0 l/m 0,0 km/h (0 Bft) O-SO 107 0 min 0,000 mm 0,0 UV-I 0 W/m -1,9 C -1,3 C 0,0 km/h (0 Bft) 100,00 %
27.02.2017 06:26 -1,3 C 96 % 1014,0 hPa 0,0 l/m 0,2 km/h (0 Bft) O-SO 107 0 min 0,000 mm 0,0 UV-I 0 W/m -1,9 C -1,3 C 1,6 km/h (1 Bft) 95,83 %
27.02.2017 06:28 -1,3 C 96 % 1014,0 hPa 0,0 l/m 1,3 km/h (1 Bft) O-SO 107 0 min 0,000 mm 0,0 UV-I 0 W/m -1,9 C -1,3 C 1,6 km/h (1 Bft) 100,00 %
27.02.2017 06:30 -1,3 C 96 % 1013,9 hPa 0,0 l/m 1,9 km/h (1 Bft) O-SO 107 0 min 0,000 mm 0,0 UV-I 0 W/m -1,9 C -1,3 C 3,2 km/h (1 Bft) 98,11 %
27.02.2017 06:32 -1,3 C 96 % 1013,9 hPa 0,0 l/m 1,1 km/h (1 Bft) O-SO 107 0 min 0,000 mm 0,0 UV-I 0 W/m -1,9 C -1,3 C 1,6 km/h (1 Bft) 97,87 %
27.02.2017 06:34 -1,3 C 96 % 1013,9 hPa 0,0 l/m 1,3 km/h (1 Bft) O-SO 107 0 min 0,000 mm 0,0 UV-I 0 W/m -1,9 C -1,3 C 1,6 km/h (1 Bft) 100,00 %
27.02.2017 06:36 -1,4 C 96 % 1013,9 hPa 0,0 l/m 0,4 km/h (0 Bft) O-SO 107 0 min 0,000 mm 0,0 UV-I 1 W/m -2,0 C -1,4 C 1,6 km/h (1 Bft) 95,74 %
27.02.2017 06:38 -1,5 C 96 % 1013,8 hPa 0,0 l/m 0,4 km/h (0 Bft) O-SO 107 0 min 0,000 mm 0,0 UV-I 5 W/m -2,1 C -1,5 C 3,2 km/h (1 Bft) 100,00 %
27.02.2017 06:40 -1,5 C 96 % 1013,9 hPa 0,0 l/m 2,0 km/h (1 Bft) O-SO 107 0 min 0,000 mm 0,0 UV-I 5 W/m -2,1 C -1,5 C 3,2 km/h (1 Bft) 100,00 %
27.02.2017 06:42 -1,4 C 96 % 1013,9 hPa 0,0 l/m 2,2 km/h (1 Bft) O-SO 107 0 min 0,000 mm 0,0 UV-I 5 W/m -2,0 C -1,4 C 3,2 km/h (1 Bft) 98,00 %
27.02.2017 06:44 -1,4 C 96 % 1013,9 hPa 0,0 l/m 2,3 km/h (1 Bft) O-SO 107 0 min 0,000 mm 0,0 UV-I 6 W/m -2,0 C -1,4 C 3,2 km/h (1 Bft) 100,00 %
27.02.2017 06:46 -1,4 C 96 % 1013,9 hPa 0,0 l/m 1,6 km/h (1 Bft) O-SO 107 0 min 0,000 mm 0,0 UV-I 7 W/m -2,0 C -1,4 C 3,2 km/h (1 Bft) 92,68 %
27.02.2017 06:48 -1,4 C 96 % 1013,9 hPa 0,0 l/m 2,3 km/h (1 Bft) O-SO 107 0 min 0,000 mm 0,0 UV-I 7 W/m -2,0 C -1,4 C 3,2 km/h (1 Bft) 97,87 %
27.02.2017 06:50 -1,4 C 96 % 1013,9 hPa 0,0 l/m 2,2 km/h (1 Bft) O-SO 107 0 min 0,000 mm 0,0 UV-I 7 W/m -2,0 C -1,4 C 3,2 km/h (1 Bft) 95,12 %
27.02.2017 06:52 -1,4 C 96 % 1013,9 hPa 0,0 l/m 3,0 km/h (1 Bft) O-SO 107 0 min 0,000 mm 0,0 UV-I 7 W/m -2,0 C -1,4 C 4,8 km/h (1 Bft) 97,87 %
27.02.2017 06:54 -1,3 C 96 % 1013,9 hPa 0,0 l/m 1,6 km/h (1 Bft) O-SO 107 0 min 0,000 mm 0,0 UV-I 9 W/m -1,9 C -1,3 C 3,2 km/h (1 Bft) 95,83 %
27.02.2017 06:56 -1,2 C 96 % 1013,9 hPa 0,0 l/m 0,2 km/h (0 Bft) O-SO 107 0 min 0,000 mm 0,0 UV-I 10 W/m -1,8 C -1,2 C 1,6 km/h (1 Bft) 95,74 %
27.02.2017 06:58 -1,1 C 96 % 1013,9 hPa 0,0 l/m 1,1 km/h (1 Bft) O-SO 107 0 min 0,000 mm 0,0 UV-I 12 W/m -1,7 C -1,1 C 3,2 km/h (1 Bft) 98,00 %
27.02.2017 07:00 -1,1 C 96 % 1013,8 hPa 0,0 l/m 2,4 km/h (1 Bft) O-SO 107 2 min 0,000 mm 0,0 UV-I 14 W/m -1,7 C -1,1 C 3,2 km/h (1 Bft) 100,00 %
27.02.2017 07:02 -1,0 C 96 % 1013,8 hPa 0,0 l/m 0,7 km/h (0 Bft) O-SO 107 2 min 0,000 mm 0,0 UV-I 17 W/m -1,6 C -1,0 C 3,2 km/h (1 Bft) 97,14 %
27.02.2017 07:04 -1,1 C 96 % 1013,8 hPa 0,0 l/m 0,0 km/h (0 Bft) O-SO 107 2 min 0,000 mm 0,0 UV-I 19 W/m -1,7 C -1,1 C 0,0 km/h (0 Bft) 98,00 %
27.02.2017 07:06 -1,1 C 96 % 1013,8 hPa 0,0 l/m 0,0 km/h (0 Bft) O-SO 107 2 min 0,000 mm 0,0 UV-I 23 W/m -1,7 C -1,1 C 0,0 km/h (0 Bft) 95,74 %
27.02.2017 07:08 -1,1 C 96 % 1013,8 hPa 0,0 l/m 1,5 km/h (1 Bft) O-SO 107 2 min 0,000 mm 0,0 UV-I 27 W/m -1,7 C -1,1 C 3,2 km/h (1 Bft) 96,23 %
27.02.2017 07:10 -1,0 C 96 % 1013,9 hPa 0,0 l/m 1,5 km/h (1 Bft) O-SO 107 2 min 0,000 mm 0,0 UV-I 29 W/m -1,6 C -1,0 C 3,2 km/h (1 Bft) 97,37 %
27.02.2017 07:12 -1,1 C 96 % 1013,9 hPa 0,0 l/m 0,8 km/h (0 Bft) O-SO 107 2 min 0,000 mm 0,0 UV-I 32 W/m -1,7 C -1,1 C 1,6 km/h (1 Bft) 95,74 %
27.02.2017 07:14 -1,0 C 96 % 1013,8 hPa 0,0 l/m 0,9 km/h (0 Bft) O-SO 107 2 min 0,000 mm 0,0 UV-I 34 W/m -1,6 C -1,0 C 1,6 km/h (1 Bft) 96,23 %
27.02.2017 07:16 -0,9 C 96 % 1013,7 hPa 0,0 l/m 2,0 km/h (1 Bft) O-SO 107 2 min 0,000 mm 0,0 UV-I 46 W/m -1,5 C -0,9 C 3,2 km/h (1 Bft) 95,45 %
27.02.2017 07:18 -0,9 C 96 % 1013,7 hPa 0,0 l/m 0,4 km/h (0 Bft) O-SO 107 2 min 0,000 mm 0,0 UV-I 58 W/m -1,5 C -0,9 C 1,6 km/h (1 Bft) 94,00 %
27.02.2017 07:20 -0,9 C 96 % 1013,7 hPa 0,0 l/m 0,0 km/h (0 Bft) O-SO 107 2 min 0,000 mm 0,0 UV-I 75 W/m -1,5 C -0,9 C 0,0 km/h (0 Bft) 84,00 %
27.02.2017 07:22 -0,8 C 97 % 1013,7 hPa 0,0 l/m 0,0 km/h (0 Bft) O-SO 107 2 min 0,000 mm 0,0 UV-I 85 W/m -1,2 C -0,8 C 0,0 km/h (0 Bft) 93,62 %
27.02.2017 07:24 -0,7 C 96 % 1013,7 hPa 0,0 l/m 0,2 km/h (0 Bft) O-SO 107 2 min 0,000 mm 0,0 UV-I 90 W/m -1,3 C -0,7 C 1,6 km/h (1 Bft) 100,00 %
27.02.2017 07:26 -0,7 C 96 % 1013,7 hPa 0,0 l/m 0,1 km/h (0 Bft) O-SO 107 2 min 0,000 mm 0,0 UV-I 94 W/m -1,3 C -0,7 C 1,6 km/h (1 Bft) 91,94 %
27.02.2017 07:28 -0,7 C 97 % 1013,7 hPa 0,0 l/m 0,1 km/h (0 Bft) O-SO 107 2 min 0,000 mm 0,0 UV-I 94 W/m -1,1 C -0,7 C 1,6 km/h (1 Bft) 96,00 %
27.02.2017 07:30 -0,7 C 96 % 1013,7 hPa 0,0 l/m 0,3 km/h (0 Bft) O-SO 107 2 min 0,000 mm 0,0 UV-I 100 W/m -1,3 C -0,7 C 1,6 km/h (1 Bft) 96,23 %
27.02.2017 07:32 -0,6 C 97 % 1013,7 hPa 0,0 l/m 0,0 km/h (0 Bft) O-SO 107 2 min 0,000 mm 0,0 UV-I 106 W/m -1,0 C -0,6 C 0,0 km/h (0 Bft) 100,00 %
27.02.2017 07:34 -0,5 C 97 % 1013,7 hPa 0,0 l/m 0,0 km/h (0 Bft) O-SO 107 2 min 0,000 mm 0,0 UV-I 99 W/m -0,9 C -0,5 C 1,6 km/h (1 Bft) 94,74 %
27.02.2017 07:36 -0,4 C 97 % 1013,7 hPa 0,0 l/m 0,0 km/h (0 Bft) O-SO 107 2 min 0,000 mm 0,0 UV-I 113 W/m -0,8 C -0,4 C 0,0 km/h (0 Bft) 92,00 %
27.02.2017 07:38 -0,4 C 97 % 1013,8 hPa 0,0 l/m 0,0 km/h (0 Bft) O-SO 107 2 min 0,000 mm 0,0 UV-I 107 W/m -0,8 C -0,4 C 0,0 km/h (0 Bft) 96,00 %
27.02.2017 07:40 -0,4 C 96 % 1013,8 hPa 0,2 l/m 0,0 km/h (0 Bft) O-SO 107 2 min 0,000 mm 0,0 UV-I 78 W/m -1,0 C -0,4 C 0,0 km/h (0 Bft) 100,00 %
27.02.2017 07:42 -0,3 C 97 % 1013,8 hPa 0,0 l/m 0,0 km/h (0 Bft) O-SO 107 0 min 0,000 mm 0,0 UV-I 65 W/m -0,7 C -0,3 C 0,0 km/h (0 Bft) 97,73 %
27.02.2017 07:44 -0,3 C 97 % 1013,7 hPa 0,0 l/m 0,0 km/h (0 Bft) O-SO 107 0 min 0,000 mm 0,0 UV-I 70 W/m -0,7 C -0,3 C 0,0 km/h (0 Bft) 97,87 %
27.02.2017 07:46 -0,3 C 97 % 1013,7 hPa 0,0 l/m 0,0 km/h (0 Bft) O-SO 107 0 min 0,000 mm 0,0 UV-I 76 W/m -0,7 C -0,3 C 0,0 km/h (0 Bft) 100,00 %
27.02.2017 07:48 -0,3 C 97 % 1013,6 hPa 0,0 l/m 0,0 km/h (0 Bft) O-SO 107 0 min 0,000 mm 0,0 UV-I 79 W/m -0,7 C -0,3 C 0,0 km/h (0 Bft) 98,11 %
27.02.2017 07:50 -0,2 C 97 % 1013,6 hPa 0,0 l/m 0,0 km/h (0 Bft) O-SO 107 0 min 0,000 mm 0,0 UV-I 83 W/m -0,6 C -0,2 C 0,0 km/h (0 Bft) 95,74 %
27.02.2017 07:52 -0,2 C 97 % 1013,6 hPa 0,0 l/m 0,0 km/h (0 Bft) O-SO 107 0 min 0,000 mm 0,0 UV-I 83 W/m -0,6 C -0,2 C 0,0 km/h (0 Bft) 95,74 %
27.02.2017 07:54 -0,1 C 97 % 1013,4 hPa 0,0 l/m 0,0 km/h (0 Bft) O-SO 107 0 min 0,000 mm 0,0 UV-I 81 W/m -0,5 C -0,1 C 1,6 km/h (1 Bft) 94,34 %
27.02.2017 07:56 -0,1 C 96 % 1013,3 hPa 0,0 l/m 1,9 km/h (1 Bft) O-SO 107 0 min 0,000 mm 0,0 UV-I 76 W/m -0,7 C -0,1 C 3,2 km/h (1 Bft) 95,24 %
27.02.2017 07:58 -0,1 C 96 % 1013,2 hPa 0,0 l/m 3,6 km/h (1 Bft) O-SO 107 0 min 0,000 mm 0,0 UV-I 75 W/m -0,7 C -0,1 C 4,8 km/h (1 Bft) 94,00 %
27.02.2017 08:00 0,0 C 97 % 1013,3 hPa 0,0 l/m 3,3 km/h (1 Bft) O-SO 107 0 min 0,025 mm 0,0 UV-I 71 W/m -0,4 C 0,0 C 4,8 km/h (1 Bft) 93,62 %
27.02.2017 08:02 0,0 C 97 % 1013,3 hPa 0,0 l/m 2,0 km/h (1 Bft) O-SO 107 0 min 0,000 mm 0,0 UV-I 83 W/m -0,4 C 0,0 C 3,2 km/h (1 Bft) 92,68 %
27.02.2017 08:04 0,1 C 97 % 1013,4 hPa 0,0 l/m 0,0 km/h (0 Bft) O-SO 107 2 min 0,000 mm 0,0 UV-I 108 W/m -0,3 C 0,1 C 0,0 km/h (0 Bft) 94,34 %
27.02.2017 08:06 0,1 C 97 % 1013,4 hPa 0,0 l/m 0,0 km/h (0 Bft) O-SO 107 2 min 0,000 mm 0,0 UV-I 134 W/m -0,3 C 0,1 C 0,0 km/h (0 Bft) 97,37 %
27.02.2017 08:08 0,2 C 97 % 1013,4 hPa 0,0 l/m 0,0 km/h (0 Bft) O-SO 107 2 min 0,000 mm 0,0 UV-I 119 W/m -0,2 C 0,2 C 0,0 km/h (0 Bft) 97,87 %
27.02.2017 08:10 0,2 C 96 % 1013,4 hPa 0,0 l/m 0,0 km/h (0 Bft) O-SO 107 0 min 0,000 mm 0,0 UV-I 87 W/m -0,4 C 0,2 C 0,0 km/h (0 Bft) 95,74 %
27.02.2017 08:12 0,2 C 96 % 1013,4 hPa 0,0 l/m 0,0 km/h (0 Bft) O-SO 107 0 min 0,000 mm 0,0 UV-I 74 W/m -0,4 C 0,2 C 0,0 km/h (0 Bft) 94,00 %
27.02.2017 08:14 0,1 C 96 % 1013,3 hPa 0,0 l/m 0,0 km/h (0 Bft) O-SO 107 0 min 0,000 mm 0,0 UV-I 77 W/m -0,5 C 0,1 C 0,0 km/h (0 Bft) 92,00 %
27.02.2017 08:16 0,1 C 96 % 1013,3 hPa 0,0 l/m 0,0 km/h (0 Bft) O-SO 107 0 min 0,000 mm 0,0 UV-I 78 W/m -0,5 C 0,1 C 0,0 km/h (0 Bft) 95,74 %
27.02.2017 08:18 0,2 C 96 % 1013,3 hPa 0,0 l/m 0,0 km/h (0 Bft) O-SO 107 0 min 0,000 mm 0,0 UV-I 83 W/m -0,4 C 0,2 C 0,0 km/h (0 Bft) 94,87 %
27.02.2017 08:20 0,2 C 96 % 1013,2 hPa 0,0 l/m 0,0 km/h (0 Bft) O-SO 107 0 min 0,000 mm 0,0 UV-I 88 W/m -0,4 C 0,2 C 0,0 km/h (0 Bft) 92,00 %
27.02.2017 08:22 0,2 C 97 % 1013,2 hPa 0,0 l/m 0,0 km/h (0 Bft) O-SO 107 0 min 0,000 mm 0,0 UV-I 91 W/m -0,2 C 0,2 C 1,6 km/h (1 Bft) 97,87 %
27.02.2017 08:24 0,3 C 96 % 1013,2 hPa 0,0 l/m 0,0 km/h (0 Bft) O-SO 107 0 min 0,000 mm 0,0 UV-I 93 W/m -0,3 C 0,3 C 0,0 km/h (0 Bft) 90,38 %
27.02.2017 08:26 0,3 C 97 % 1013,2 hPa 0,0 l/m 0,0 km/h (0 Bft) O-SO 107 0 min 0,000 mm 0,0 UV-I 94 W/m -0,1 C 0,3 C 0,0 km/h (0 Bft) 100,00 %
27.02.2017 08:28 0,3 C 96 % 1013,0 hPa 0,0 l/m 1,4 km/h (1 Bft) O-SO 107 0 min 0,000 mm 0,0 UV-I 96 W/m -0,3 C 0,3 C 3,2 km/h (1 Bft) 100,00 %
27.02.2017 08:30 0,4 C 96 % 1013,0 hPa 0,0 l/m 3,8 km/h (1 Bft) O-SO 105 0 min 0,000 mm 0,0 UV-I 99 W/m -0,2 C 0,4 C 4,8 km/h (1 Bft) 94,00 %
27.02.2017 08:32 0,4 C 96 % 1013,0 hPa 0,0 l/m 4,0 km/h (1 Bft) O 101 0 min 0,000 mm 0,0 UV-I 100 W/m -0,2 C 0,4 C 4,8 km/h (1 Bft) 100,00 %
27.02.2017 08:34 0,5 C 96 % 1013,0 hPa 0,0 l/m 3,1 km/h (1 Bft) O 101 0 min 0,000 mm 0,0 UV-I 96 W/m -0,1 C 0,5 C 4,8 km/h (1 Bft) 100,00 %
27.02.2017 08:36 0,5 C 96 % 1013,0 hPa 0,0 l/m 2,8 km/h (1 Bft) O 101 0 min 0,000 mm 0,0 UV-I 90 W/m -0,1 C 0,5 C 3,2 km/h (1 Bft) 92,59 %
27.02.2017 08:38 0,5 C 96 % 1013,0 hPa 0,0 l/m 2,1 km/h (1 Bft) O 101 0 min 0,000 mm 0,0 UV-I 87 W/m -0,1 C 0,5 C 3,2 km/h (1 Bft) 100,00 %
27.02.2017 08:40 0,5 C 96 % 1012,9 hPa 0,0 l/m 1,3 km/h (1 Bft) O 101 0 min 0,000 mm 0,0 UV-I 86 W/m -0,1 C 0,5 C 3,2 km/h (1 Bft) 98,00 %
27.02.2017 08:42 0,5 C 96 % 1013,0 hPa 0,0 l/m 1,1 km/h (1 Bft) O 101 0 min 0,000 mm 0,0 UV-I 87 W/m -0,1 C 0,5 C 3,2 km/h (1 Bft) 92,68 %
27.02.2017 08:44 0,6 C 96 % 1013,0 hPa 0,0 l/m 0,3 km/h (0 Bft) O 101 0 min 0,000 mm 0,0 UV-I 90 W/m 0,0 C 0,6 C 1,6 km/h (1 Bft) 100,00 %
27.02.2017 08:46 0,6 C 96 % 1012,9 hPa 0,0 l/m 0,6 km/h (0 Bft) O 101 0 min 0,000 mm 0,0 UV-I 92 W/m 0,0 C 0,6 C 3,2 km/h (1 Bft) 94,87 %
27.02.2017 08:48 0,6 C 96 % 1012,7 hPa 0,0 l/m 3,4 km/h (1 Bft) O 101 0 min 0,000 mm 0,0 UV-I 102 W/m 0,0 C 0,6 C 4,8 km/h (1 Bft) 98,11 %
27.02.2017 08:50 0,6 C 96 % 1012,7 hPa 0,0 l/m 4,3 km/h (1 Bft) O 81 0 min 0,000 mm 0,0 UV-I 119 W/m 0,0 C 0,6 C 6,4 km/h (2 Bft) 97,87 %
27.02.2017 08:52 0,6 C 96 % 1012,7 hPa 0,0 l/m 3,4 km/h (1 Bft) O-NO 78 0 min 0,000 mm 0,0 UV-I 140 W/m 0,0 C 0,6 C 4,8 km/h (1 Bft) 100,00 %
27.02.2017 08:54 0,7 C 96 % 1012,6 hPa 0,0 l/m 3,6 km/h (1 Bft) O-NO 78 0 min 0,000 mm 0,0 UV-I 160 W/m 0,1 C 0,7 C 4,8 km/h (1 Bft) 94,74 %
27.02.2017 08:56 0,7 C 96 % 1012,6 hPa 0,0 l/m 3,7 km/h (1 Bft) O-NO 71 2 min 0,000 mm 0,0 UV-I 186 W/m 0,1 C 0,7 C 6,4 km/h (2 Bft) 93,62 %
27.02.2017 08:58 0,8 C 96 % 1012,5 hPa 0,0 l/m 4,4 km/h (1 Bft) NO 46 2 min 0,000 mm 0,2 UV-I 225 W/m 0,2 C 0,8 C 6,4 km/h (2 Bft) 97,87 %
27.02.2017 09:00 0,8 C 96 % 1012,6 hPa 0,0 l/m 3,6 km/h (1 Bft) NO 45 2 min 0,051 mm 0,5 UV-I 294 W/m 0,2 C 0,8 C 4,8 km/h (1 Bft) 93,62 %
27.02.2017 09:02 0,9 C 96 % 1012,6 hPa 0,0 l/m 2,2 km/h (1 Bft) NO 45 2 min 0,000 mm 0,5 UV-I 310 W/m 0,3 C 0,9 C 3,2 km/h (1 Bft) 93,62 %
27.02.2017 09:04 1,1 C 96 % 1012,6 hPa 0,0 l/m 3,3 km/h (1 Bft) NO 45 2 min 0,000 mm 0,5 UV-I 280 W/m 0,5 C 1,1 C 4,8 km/h (1 Bft) 98,00 %
27.02.2017 09:06 1,3 C 96 % 1012,4 hPa 0,0 l/m 4,2 km/h (1 Bft) NO 44 2 min 0,000 mm 0,5 UV-I 335 W/m 0,7 C 1,3 C 6,4 km/h (2 Bft) 91,49 %
27.02.2017 09:08 1,5 C 96 % 1012,4 hPa 0,0 l/m 4,1 km/h (1 Bft) NO 42 2 min 0,000 mm 0,5 UV-I 347 W/m 0,9 C 1,5 C 6,4 km/h (2 Bft) 93,62 %
27.02.2017 09:10 1,7 C 96 % 1012,4 hPa 0,0 l/m 2,6 km/h (1 Bft) NO 38 2 min 0,000 mm 0,5 UV-I 274 W/m 1,1 C 1,7 C 6,4 km/h (2 Bft) 95,74 %
27.02.2017 09:12 1,7 C 96 % 1012,4 hPa 0,0 l/m 1,5 km/h (1 Bft) NO 38 0 min 0,000 mm 0,5 UV-I 184 W/m 1,1 C 1,7 C 4,8 km/h (1 Bft) 91,67 %
27.02.2017 09:14 1,7 C 95 % 1012,4 hPa 0,0 l/m 1,6 km/h (1 Bft) NO 38 0 min 0,000 mm 0,5 UV-I 156 W/m 1,0 C 1,7 C 4,8 km/h (1 Bft) 97,87 %
27.02.2017 09:16 1,6 C 95 % 1012,4 hPa 0,0 l/m 0,2 km/h (0 Bft) NO 38 0 min 0,000 mm 0,5 UV-I 142 W/m 0,9 C 1,6 C 1,6 km/h (1 Bft) 95,74 %
27.02.2017 09:18 1,5 C 94 % 1012,4 hPa 0,0 l/m 0,0 km/h (0 Bft) NO 38 0 min 0,000 mm 0,5 UV-I 149 W/m 0,6 C 1,5 C 0,0 km/h (0 Bft) 93,62 %
27.02.2017 09:20 1,6 C 94 % 1012,3 hPa 0,0 l/m 0,0 km/h (0 Bft) NO 38 0 min 0,000 mm 0,5 UV-I 159 W/m 0,7 C 1,6 C 0,0 km/h (0 Bft) 95,74 %
27.02.2017 09:22 1,6 C 94 % 1012,2 hPa 0,0 l/m 0,9 km/h (0 Bft) NO 38 0 min 0,000 mm 0,5 UV-I 175 W/m 0,7 C 1,6 C 3,2 km/h (1 Bft) 95,74 %
27.02.2017 09:24 1,6 C 94 % 1012,2 hPa 0,0 l/m 2,3 km/h (1 Bft) NO 38 0 min 0,000 mm 0,6 UV-I 195 W/m 0,7 C 1,6 C 3,2 km/h (1 Bft) 95,74 %
27.02.2017 09:26 1,7 C 94 % 1012,1 hPa 0,0 l/m 0,6 km/h (0 Bft) NO 38 0 min 0,000 mm 0,6 UV-I 203 W/m 0,8 C 1,7 C 1,6 km/h (1 Bft) 95,74 %
27.02.2017 09:28 1,8 C 94 % 1012,1 hPa 0,0 l/m 1,9 km/h (1 Bft) NO 38 0 min 0,000 mm 0,6 UV-I 200 W/m 0,9 C 1,8 C 3,2 km/h (1 Bft) 95,74 %
27.02.2017 09:30 1,9 C 94 % 1012,1 hPa 0,0 l/m 2,1 km/h (1 Bft) NO 38 2 min 0,000 mm 0,6 UV-I 216 W/m 1,0 C 1,9 C 4,8 km/h (1 Bft) 90,91 %
27.02.2017 09:32 2,1 C 94 % 1012,0 hPa 0,0 l/m 3,3 km/h (1 Bft) NO 38 2 min 0,000 mm 0,7 UV-I 241 W/m 1,2 C 2,1 C 4,8 km/h (1 Bft) 95,74 %
27.02.2017 09:34 2,2 C 94 % 1012,0 hPa 0,0 l/m 2,4 km/h (1 Bft) NO 38 2 min 0,000 mm 0,7 UV-I 251 W/m 1,3 C 2,2 C 4,8 km/h (1 Bft) 96,00 %
27.02.2017 09:36 2,2 C 94 % 1012,0 hPa 0,0 l/m 0,8 km/h (0 Bft) NO 38 2 min 0,000 mm 0,7 UV-I 273 W/m 1,3 C 2,2 C 4,8 km/h (1 Bft) 95,74 %
27.02.2017 09:38 2,2 C 93 % 1012,0 hPa 0,0 l/m 0,0 km/h (0 Bft) NO 38 2 min 0,000 mm 0,8 UV-I 324 W/m 1,2 C 2,2 C 0,0 km/h (0 Bft) 97,87 %
27.02.2017 09:40 2,2 C 93 % 1012,0 hPa 0,0 l/m 0,0 km/h (0 Bft) NO 38 2 min 0,000 mm 0,8 UV-I 341 W/m 1,2 C 2,2 C 0,0 km/h (0 Bft) 97,87 %
27.02.2017 09:42 2,2 C 93 % 1012,0 hPa 0,0 l/m 0,2 km/h (0 Bft) NO 38 2 min 0,000 mm 0,8 UV-I 296 W/m 1,2 C 2,2 C 1,6 km/h (1 Bft) 97,87 %
27.02.2017 09:44 2,3 C 93 % 1011,9 hPa 0,0 l/m 1,4 km/h (1 Bft) NO 38 2 min 0,000 mm 0,9 UV-I 359 W/m 1,3 C 2,3 C 3,2 km/h (1 Bft) 91,67 %
27.02.2017 09:46 2,4 C 93 % 1011,8 hPa 0,0 l/m 2,2 km/h (1 Bft) NO 38 2 min 0,000 mm 0,9 UV-I 262 W/m 1,4 C 2,4 C 3,2 km/h (1 Bft) 91,49 %
27.02.2017 09:48 2,5 C 92 % 1011,8 hPa 0,0 l/m 3,5 km/h (1 Bft) NO 49 0 min 0,000 mm 0,8 UV-I 213 W/m 1,3 C 2,5 C 6,4 km/h (2 Bft) 89,36 %
27.02.2017 09:50 2,5 C 91 % 1011,8 hPa 0,0 l/m 4,1 km/h (1 Bft) NO 49 2 min 0,000 mm 0,8 UV-I 276 W/m 1,2 C 2,5 C 6,4 km/h (2 Bft) 95,74 %
27.02.2017 09:52 2,6 C 92 % 1011,7 hPa 0,0 l/m 3,4 km/h (1 Bft) NO 49 2 min 0,000 mm 0,8 UV-I 265 W/m 1,4 C 2,6 C 4,8 km/h (1 Bft) 93,62 %
27.02.2017 09:54 2,6 C 91 % 1011,7 hPa 0,0 l/m 1,4 km/h (1 Bft) NO 49 2 min 0,000 mm 0,9 UV-I 305 W/m 1,3 C 2,6 C 3,2 km/h (1 Bft) 91,43 %
27.02.2017 09:56 2,7 C 92 % 1011,5 hPa 0,0 l/m 1,1 km/h (1 Bft) NO 49 2 min 0,000 mm 0,8 UV-I 253 W/m 1,5 C 2,7 C 4,8 km/h (1 Bft) 96,00 %
27.02.2017 09:58 2,8 C 92 % 1011,5 hPa 0,0 l/m 3,2 km/h (1 Bft) O-NO 65 0 min 0,000 mm 0,8 UV-I 231 W/m 1,6 C 2,8 C 8,0 km/h (2 Bft) 93,62 %
27.02.2017 10:00 2,9 C 91 % 1011,4 hPa 0,0 l/m 6,1 km/h (2 Bft) O-NO 60 0 min 0,102 mm 0,8 UV-I 227 W/m 1,6 C 2,9 C 9,7 km/h (2 Bft) 95,74 %
27.02.2017 10:02 2,9 C 89 % 1011,2 hPa 0,0 l/m 5,9 km/h (2 Bft) O-NO 60 0 min 0,000 mm 0,9 UV-I 239 W/m 1,3 C 2,9 C 8,0 km/h (2 Bft) 94,00 %
27.02.2017 10:04 3,1 C 90 % 1011,3 hPa 0,0 l/m 5,8 km/h (2 Bft) NO 36 2 min 0,000 mm 0,9 UV-I 251 W/m 1,6 C 3,1 C 8,0 km/h (2 Bft) 93,62 %
27.02.2017 10:06 3,3 C 91 % 1011,1 hPa 0,0 l/m 5,6 km/h (1 Bft) NO 49 2 min 0,000 mm 0,9 UV-I 272 W/m 2,0 C 3,3 C 9,7 km/h (2 Bft) 93,62 %
27.02.2017 10:08 3,3 C 90 % 1011,1 hPa 0,0 l/m 4,0 km/h (1 Bft) N-NO 28 2 min 0,000 mm 1,0 UV-I 314 W/m 1,8 C 3,3 C 8,0 km/h (2 Bft) 92,45 %
27.02.2017 10:10 3,6 C 90 % 1011,0 hPa 0,0 l/m 3,6 km/h (1 Bft) N-NO 30 2 min 0,000 mm 1,1 UV-I 433 W/m 2,1 C 3,6 C 8,0 km/h (2 Bft) 93,62 %
27.02.2017 10:12 3,8 C 90 % 1011,0 hPa 0,0 l/m 5,2 km/h (1 Bft) NO 51 2 min 0,000 mm 1,1 UV-I 417 W/m 2,3 C 3,8 C 6,4 km/h (2 Bft) 94,44 %
27.02.2017 10:14 3,8 C 87 % 1011,0 hPa 0,0 l/m 7,6 km/h (2 Bft) O-NO 65 2 min 0,000 mm 1,1 UV-I 378 W/m 1,8 C 2,7 C 12,9 km/h (3 Bft) 93,62 %
27.02.2017 10:16 3,9 C 86 % 1011,0 hPa 0,0 l/m 9,3 km/h (2 Bft) O-NO 74 2 min 0,000 mm 1,0 UV-I 335 W/m 1,8 C 1,4 C 12,9 km/h (3 Bft) 93,62 %
27.02.2017 10:18 3,9 C 84 % 1011,0 hPa 0,0 l/m 7,6 km/h (2 Bft) O-NO 71 2 min 0,000 mm 1,0 UV-I 334 W/m 1,4 C 2,8 C 12,9 km/h (3 Bft) 93,62 %
27.02.2017 10:20 4,0 C 83 % 1011,1 hPa 0,0 l/m 6,4 km/h (2 Bft) O-NO 66 2 min 0,000 mm 1,1 UV-I 352 W/m 1,4 C 4,0 C 9,7 km/h (2 Bft) 97,87 %
27.02.2017 10:22 4,1 C 84 % 1011,1 hPa 0,0 l/m 5,5 km/h (1 Bft) O 80 2 min 0,000 mm 1,1 UV-I 353 W/m 1,6 C 4,1 C 8,0 km/h (2 Bft) 95,74 %
27.02.2017 10:24 4,2 C 83 % 1011,1 hPa 0,0 l/m 3,4 km/h (1 Bft) O 82 2 min 0,000 mm 1,1 UV-I 377 W/m 1,6 C 4,2 C 6,4 km/h (2 Bft) 91,49 %
27.02.2017 10:26 4,3 C 81 % 1011,1 hPa 0,0 l/m 3,6 km/h (1 Bft) O 81 2 min 0,000 mm 1,2 UV-I 414 W/m 1,3 C 4,3 C 4,8 km/h (1 Bft) 97,87 %
27.02.2017 10:28 4,3 C 81 % 1011,1 hPa 0,0 l/m 3,2 km/h (1 Bft) O-NO 74 2 min 0,000 mm 1,2 UV-I 434 W/m 1,3 C 4,3 C 4,8 km/h (1 Bft) 93,62 %
27.02.2017 10:30 4,6 C 81 % 1011,1 hPa 0,0 l/m 5,1 km/h (1 Bft) O-NO 65 2 min 0,000 mm 1,3 UV-I 457 W/m 1,6 C 4,6 C 8,0 km/h (2 Bft) 95,74 %
27.02.2017 10:32 4,8 C 81 % 1010,9 hPa 0,0 l/m 6,4 km/h (2 Bft) O-NO 57 2 min 0,000 mm 1,3 UV-I 493 W/m 1,8 C 4,8 C 8,0 km/h (2 Bft) 95,74 %
27.02.2017 10:34 4,9 C 80 % 1010,8 hPa 0,0 l/m 5,7 km/h (1 Bft) O-NO 59 2 min 0,000 mm 1,4 UV-I 518 W/m 1,7 C 4,9 C 8,0 km/h (2 Bft) 95,74 %
27.02.2017 10:36 5,2 C 79 % 1010,8 hPa 0,0 l/m 6,2 km/h (2 Bft) O-NO 64 2 min 0,000 mm 1,5 UV-I 559 W/m 1,9 C 5,2 C 8,0 km/h (2 Bft) 93,75 %
27.02.2017 10:38 5,2 C 78 % 1010,8 hPa 0,0 l/m 5,8 km/h (2 Bft) O-NO 69 2 min 0,000 mm 1,5 UV-I 576 W/m 1,7 C 5,2 C 8,0 km/h (2 Bft) 91,49 %
27.02.2017 10:40 5,2 C 77 % 1010,8 hPa 0,0 l/m 5,4 km/h (1 Bft) NO 56 2 min 0,000 mm 1,5 UV-I 575 W/m 1,5 C 5,2 C 8,0 km/h (2 Bft) 95,74 %
27.02.2017 10:42 5,3 C 77 % 1010,8 hPa 0,0 l/m 5,4 km/h (1 Bft) NO 51 2 min 0,000 mm 1,5 UV-I 573 W/m 1,6 C 5,3 C 8,0 km/h (2 Bft) 97,87 %
27.02.2017 10:44 5,4 C 77 % 1010,8 hPa 0,0 l/m 5,8 km/h (2 Bft) O-NO 65 2 min 0,000 mm 1,6 UV-I 582 W/m 1,7 C 5,4 C 8,0 km/h (2 Bft) 95,74 %
27.02.2017 10:46 5,5 C 77 % 1010,7 hPa 0,0 l/m 5,0 km/h (1 Bft) O 79 2 min 0,000 mm 1,6 UV-I 595 W/m 1,8 C 5,5 C 6,4 km/h (2 Bft) 94,29 %
27.02.2017 10:48 5,6 C 78 % 1010,6 hPa 0,0 l/m 4,9 km/h (1 Bft) NO 56 2 min 0,000 mm 1,6 UV-I 607 W/m 2,1 C 5,6 C 8,0 km/h (2 Bft) 96,77 %
27.02.2017 10:50 5,9 C 77 % 1010,6 hPa 0,0 l/m 4,6 km/h (1 Bft) O-NO 76 2 min 0,000 mm 1,6 UV-I 621 W/m 2,2 C 5,9 C 8,0 km/h (2 Bft) 94,00 %
27.02.2017 10:52 6,0 C 75 % 1010,6 hPa 0,0 l/m 5,4 km/h (1 Bft) NO 43 2 min 0,000 mm 1,7 UV-I 633 W/m 1,9 C 6,0 C 8,0 km/h (2 Bft) 95,74 %
27.02.2017 10:54 6,1 C 74 % 1010,7 hPa 0,0 l/m 0,7 km/h (0 Bft) NO 43 2 min 0,000 mm 1,7 UV-I 632 W/m 1,8 C 6,1 C 3,2 km/h (1 Bft) 97,37 %
27.02.2017 10:56 6,2 C 74 % 1010,6 hPa 0,0 l/m 3,6 km/h (1 Bft) O-NO 70 2 min 0,000 mm 1,7 UV-I 607 W/m 1,9 C 6,2 C 6,4 km/h (2 Bft) 95,74 %
27.02.2017 10:58 6,2 C 73 % 1010,6 hPa 0,0 l/m 5,0 km/h (1 Bft) NO 56 2 min 0,000 mm 1,7 UV-I 599 W/m 1,7 C 6,2 C 6,4 km/h (2 Bft) 96,00 %
27.02.2017 11:00 6,2 C 73 % 1010,5 hPa 0,0 l/m 3,0 km/h (1 Bft) O-NO 65 2 min 0,203 mm 1,7 UV-I 562 W/m 1,7 C 6,2 C 6,4 km/h (2 Bft) 95,74 %
27.02.2017 11:02 6,2 C 73 % 1010,4 hPa 0,0 l/m 5,4 km/h (1 Bft) O 89 2 min 0,000 mm 1,6 UV-I 534 W/m 1,7 C 6,2 C 8,0 km/h (2 Bft) 97,22 %
27.02.2017 11:04 6,3 C 73 % 1010,3 hPa 0,0 l/m 7,0 km/h (2 Bft) NO 51 2 min 0,000 mm 1,5 UV-I 513 W/m 1,8 C 5,8 C 12,9 km/h (3 Bft) 96,77 %
27.02.2017 11:06 6,4 C 75 % 1010,2 hPa 0,0 l/m 7,6 km/h (2 Bft) O-NO 66 2 min 0,000 mm 1,4 UV-I 479 W/m 2,3 C 5,4 C 14,5 km/h (3 Bft) 97,87 %
27.02.2017 11:08 6,4 C 72 % 1010,1 hPa 0,0 l/m 9,1 km/h (2 Bft) O 80 2 min 0,000 mm 1,4 UV-I 429 W/m 1,7 C 4,2 C 14,5 km/h (3 Bft) 97,87 %
27.02.2017 11:10 6,4 C 72 % 1010,1 hPa 0,0 l/m 6,7 km/h (2 Bft) NO 43 2 min 0,000 mm 1,4 UV-I 404 W/m 1,7 C 6,2 C 11,3 km/h (2 Bft) 91,49 %
27.02.2017 11:12 6,7 C 77 % 1010,1 hPa 0,0 l/m 6,0 km/h (2 Bft) N-NO 26 2 min 0,000 mm 1,6 UV-I 420 W/m 3,0 C 6,7 C 8,0 km/h (2 Bft) 93,62 %
27.02.2017 11:14 6,7 C 75 % 1010,1 hPa 0,0 l/m 4,2 km/h (1 Bft) N-NO 26 2 min 0,000 mm 1,6 UV-I 515 W/m 2,6 C 6,7 C 8,0 km/h (2 Bft) 95,74 %
27.02.2017 11:16 6,8 C 75 % 1010,1 hPa 0,0 l/m 3,1 km/h (1 Bft) N-NO 26 2 min 0,000 mm 1,6 UV-I 517 W/m 2,7 C 6,8 C 4,8 km/h (1 Bft) 94,74 %
27.02.2017 11:18 6,8 C 74 % 1010,1 hPa 0,0 l/m 1,5 km/h (1 Bft) N 355 2 min 0,000 mm 1,7 UV-I 525 W/m 2,5 C 6,8 C 3,2 km/h (1 Bft) 95,74 %
27.02.2017 11:20 7,2 C 76 % 1010,0 hPa 0,0 l/m 2,8 km/h (1 Bft) NO 37 2 min 0,000 mm 1,8 UV-I 596 W/m 3,3 C 7,2 C 8,0 km/h (2 Bft) 91,49 %
27.02.2017 11:22 7,1 C 71 % 1010,0 hPa 0,0 l/m 2,4 km/h (1 Bft) NO 39 2 min 0,000 mm 1,8 UV-I 594 W/m 2,2 C 7,1 C 4,8 km/h (1 Bft) 95,74 %
27.02.2017 11:24 7,2 C 72 % 1010,0 hPa 0,0 l/m 0,9 km/h (0 Bft) NO 40 2 min 0,000 mm 1,8 UV-I 582 W/m 2,5 C 7,2 C 3,2 km/h (1 Bft) 95,83 %
27.02.2017 11:26 7,3 C 72 % 1009,9 hPa 0,0 l/m 0,9 km/h (0 Bft) N-NO 23 2 min 0,000 mm 1,8 UV-I 584 W/m 2,6 C 7,3 C 3,2 km/h (1 Bft) 97,87 %
27.02.2017 11:28 7,4 C 72 % 1009,8 hPa 0,0 l/m 0,9 km/h (0 Bft) N-NO 26 2 min 0,000 mm 1,8 UV-I 592 W/m 2,7 C 7,4 C 3,2 km/h (1 Bft) 95,74 %
27.02.2017 11:30 7,5 C 71 % 1009,8 hPa 0,0 l/m 3,4 km/h (1 Bft) NO 35 2 min 0,000 mm 1,8 UV-I 601 W/m 2,6 C 7,5 C 6,4 km/h (2 Bft) 90,00 %
27.02.2017 11:32 7,7 C 73 % 1009,7 hPa 0,0 l/m 1,7 km/h (1 Bft) N 9 2 min 0,000 mm 1,8 UV-I 602 W/m 3,2 C 7,7 C 4,8 km/h (1 Bft) 93,62 %
27.02.2017 11:34 7,7 C 72 % 1009,5 hPa 0,0 l/m 1,3 km/h (1 Bft) N-NW 337 2 min 0,000 mm 1,8 UV-I 473 W/m 3,0 C 7,7 C 4,8 km/h (1 Bft) 96,00 %
27.02.2017 11:36 7,8 C 73 % 1009,5 hPa 0,0 l/m 3,5 km/h (1 Bft) N-NO 14 2 min 0,000 mm 1,9 UV-I 616 W/m 3,3 C 7,8 C 6,4 km/h (2 Bft) 91,49 %
27.02.2017 11:38 8,0 C 73 % 1009,5 hPa 0,0 l/m 4,7 km/h (1 Bft) N-NO 26 2 min 0,000 mm 1,8 UV-I 608 W/m 3,5 C 8,0 C 9,7 km/h (2 Bft) 93,62 %
27.02.2017 11:40 7,9 C 69 % 1009,5 hPa 0,0 l/m 1,9 km/h (1 Bft) N-NO 30 2 min 0,000 mm 1,9 UV-I 637 W/m 2,6 C 7,9 C 4,8 km/h (1 Bft) 88,57 %
27.02.2017 11:42 7,9 C 72 % 1009,4 hPa 0,0 l/m 3,8 km/h (1 Bft) N-NO 27 2 min 0,000 mm 1,9 UV-I 671 W/m 3,2 C 7,9 C 11,3 km/h (2 Bft) 90,00 %
27.02.2017 11:44 8,1 C 71 % 1009,4 hPa 0,0 l/m 5,7 km/h (1 Bft) NO 42 2 min 0,000 mm 1,8 UV-I 515 W/m 3,2 C 8,1 C 9,7 km/h (2 Bft) 94,00 %
27.02.2017 11:46 8,0 C 70 % 1009,4 hPa 0,0 l/m 2,4 km/h (1 Bft) NO 46 2 min 0,000 mm 1,7 UV-I 568 W/m 2,9 C 8,0 C 4,8 km/h (1 Bft) 97,87 %
27.02.2017 11:48 8,1 C 73 % 1009,3 hPa 0,0 l/m 5,3 km/h (1 Bft) N-NO 24 2 min 0,000 mm 1,5 UV-I 388 W/m 3,6 C 8,1 C 11,3 km/h (2 Bft) 91,67 %
27.02.2017 11:50 8,1 C 73 % 1009,3 hPa 0,0 l/m 6,6 km/h (2 Bft) N-NO 32 2 min 0,000 mm 1,5 UV-I 383 W/m 3,6 C 8,0 C 11,3 km/h (2 Bft) 91,49 %
27.02.2017 11:52 7,9 C 68 % 1009,2 hPa 0,0 l/m 6,2 km/h (2 Bft) NO 55 2 min 0,000 mm 1,5 UV-I 355 W/m 2,4 C 7,9 C 8,0 km/h (2 Bft) 97,87 %
27.02.2017 11:54 7,8 C 69 % 1009,1 hPa 0,0 l/m 3,4 km/h (1 Bft) O-NO 60 0 min 0,000 mm 1,5 UV-I 295 W/m 2,5 C 7,8 C 6,4 km/h (2 Bft) 95,74 %
27.02.2017 11:56 7,7 C 72 % 1009,0 hPa 0,0 l/m 0,6 km/h (0 Bft) NO 44 2 min 0,000 mm 1,5 UV-I 312 W/m 3,0 C 7,7 C 6,4 km/h (2 Bft) 90,00 %
27.02.2017 11:58 7,9 C 72 % 1009,0 hPa 0,0 l/m 3,6 km/h (1 Bft) N-NO 32 2 min 0,000 mm 1,7 UV-I 357 W/m 3,2 C 7,9 C 8,0 km/h (2 Bft) 97,87 %
27.02.2017 12:00 8,1 C 70 % 1008,9 hPa 0,0 l/m 3,9 km/h (1 Bft) NO 53 2 min 0,229 mm 1,8 UV-I 379 W/m 3,0 C 8,1 C 6,4 km/h (2 Bft) 93,62 %
27.02.2017 12:02 8,2 C 71 % 1008,8 hPa 0,0 l/m 1,7 km/h (1 Bft) N-NO 15 2 min 0,000 mm 1,9 UV-I 632 W/m 3,3 C 8,2 C 4,8 km/h (1 Bft) 97,37 %
27.02.2017 12:05 8,3 C 69 % 1008,7 hPa 0,0 l/m 3,1 km/h (1 Bft) N 11 3 min 0,000 mm 1,9 UV-I 607 W/m 3,0 C 8,3 C 8,0 km/h (2 Bft) 100,00 %
27.02.2017 12:06 8,4 C 72 % 1008,7 hPa 0,0 l/m 4,2 km/h (1 Bft) N-NW 346 1 min 0,000 mm 1,9 UV-I 589 W/m 3,7 C 8,4 C 8,0 km/h (2 Bft) 100,00 %
27.02.2017 12:08 8,4 C 71 % 1008,6 hPa 0,0 l/m 3,9 km/h (1 Bft) N-NO 30 2 min 0,000 mm 1,9 UV-I 585 W/m 3,5 C 8,4 C 8,0 km/h (2 Bft) 100,00 %
27.02.2017 12:10 8,3 C 72 % 1008,5 hPa 0,0 l/m 6,0 km/h (2 Bft) NO 46 2 min 0,000 mm 1,9 UV-I 593 W/m 3,6 C 8,3 C 9,7 km/h (2 Bft) 100,00 %
27.02.2017 12:12 8,6 C 69 % 1008,5 hPa 0,0 l/m 3,3 km/h (1 Bft) N 355 2 min 0,000 mm 1,9 UV-I 607 W/m 3,2 C 8,6 C 6,4 km/h (2 Bft) 97,87 %
27.02.2017 12:14 8,4 C 69 % 1008,4 hPa 0,0 l/m 2,8 km/h (1 Bft) N-NW 339 2 min 0,000 mm 2,0 UV-I 623 W/m 3,0 C 8,4 C 4,8 km/h (1 Bft) 100,00 %
27.02.2017 12:16 8,6 C 70 % 1008,4 hPa 0,0 l/m 0,4 km/h (0 Bft) N-NW 339 2 min 0,000 mm 1,8 UV-I 603 W/m 3,4 C 8,6 C 1,6 km/h (1 Bft) 100,00 %
27.02.2017 12:18 8,6 C 68 % 1008,3 hPa 0,0 l/m 0,9 km/h (0 Bft) N-NW 339 2 min 0,000 mm 2,0 UV-I 626 W/m 3,0 C 8,6 C 3,2 km/h (1 Bft) 100,00 %
27.02.2017 12:20 9,1 C 71 % 1008,3 hPa 0,0 l/m 4,9 km/h (1 Bft) NO 44 2 min 0,000 mm 2,1 UV-I 671 W/m 4,1 C 9,1 C 9,7 km/h (2 Bft) 100,00 %
27.02.2017 12:22 9,3 C 63 % 1008,3 hPa 0,0 l/m 2,6 km/h (1 Bft) O-NO 59 2 min 0,000 mm 2,1 UV-I 687 W/m 2,6 C 9,3 C 9,7 km/h (2 Bft) 100,00 %
27.02.2017 12:24 9,1 C 63 % 1008,2 hPa 0,0 l/m 3,1 km/h (1 Bft) O-NO 59 2 min 0,000 mm 2,1 UV-I 695 W/m 2,4 C 9,1 C 4,8 km/h (1 Bft) 100,00 %
27.02.2017 12:26 9,1 C 65 % 1008,3 hPa 0,0 l/m 1,8 km/h (1 Bft) N-NO 15 2 min 0,000 mm 2,1 UV-I 681 W/m 2,9 C 9,1 C 3,2 km/h (1 Bft) 100,00 %
27.02.2017 12:28 9,3 C 63 % 1008,3 hPa 0,0 l/m 1,3 km/h (1 Bft) N-NO 15 2 min 0,000 mm 2,0 UV-I 656 W/m 2,6 C 9,3 C 3,2 km/h (1 Bft) 100,00 %
27.02.2017 12:30 9,3 C 64 % 1008,2 hPa 0,0 l/m 1,7 km/h (1 Bft) N 9 2 min 0,000 mm 2,0 UV-I 617 W/m 2,8 C 9,3 C 4,8 km/h (1 Bft) 97,87 %
27.02.2017 12:32 9,2 C 64 % 1008,1 hPa 0,0 l/m 2,8 km/h (1 Bft) O-NO 69 2 min 0,000 mm 1,8 UV-I 562 W/m 2,8 C 9,2 C 8,0 km/h (2 Bft) 100,00 %
27.02.2017 12:34 9,3 C 59 % 1008,0 hPa 0,0 l/m 7,9 km/h (2 Bft) O-NO 73 2 min 0,000 mm 1,5 UV-I 420 W/m 1,7 C 8,2 C 12,9 km/h (3 Bft) 100,00 %
27.02.2017 12:36 9,4 C 59 % 1007,9 hPa 0,0 l/m 10,0 km/h (2 Bft) O-NO 75 2 min 0,000 mm 1,6 UV-I 377 W/m 1,8 C 6,9 C 17,7 km/h (3 Bft) 100,00 %
27.02.2017 12:38 9,6 C 59 % 1007,9 hPa 0,0 l/m 8,0 km/h (2 Bft) O-NO 70 2 min 0,000 mm 2,0 UV-I 417 W/m 2,0 C 8,4 C 14,5 km/h (3 Bft) 100,00 %
27.02.2017 12:40 9,9 C 60 % 1007,9 hPa 0,0 l/m 8,5 km/h (2 Bft) NO 49 2 min 0,000 mm 2,2 UV-I 714 W/m 2,5 C 8,4 C 14,5 km/h (3 Bft) 97,87 %
27.02.2017 12:42 10,1 C 57 % 1007,9 hPa 0,0 l/m 6,4 km/h (2 Bft) O-NO 71 2 min 0,000 mm 2,2 UV-I 762 W/m 2,0 C 10,1 C 8,0 km/h (2 Bft) 100,00 %
27.02.2017 12:44 10,2 C 57 % 1007,9 hPa 0,0 l/m 4,6 km/h (1 Bft) O-NO 57 2 min 0,000 mm 2,1 UV-I 764 W/m 2,1 C 10,2 C 9,7 km/h (2 Bft) 100,00 %
27.02.2017 12:46 10,3 C 56 % 1008,1 hPa 0,0 l/m 7,0 km/h (2 Bft) O 92 2 min 0,000 mm 1,9 UV-I 674 W/m 1,9 C 9,9 C 12,9 km/h (3 Bft) 100,00 %
27.02.2017 12:48 10,1 C 56 % 1008,1 hPa 0,0 l/m 8,1 km/h (2 Bft) O 79 2 min 0,000 mm 1,6 UV-I 521 W/m 1,7 C 8,9 C 12,9 km/h (3 Bft) 100,00 %
27.02.2017 12:50 10,1 C 55 % 1008,1 hPa 0,0 l/m 6,4 km/h (2 Bft) O 96 2 min 0,000 mm 1,9 UV-I 408 W/m 1,5 C 10,1 C 11,3 km/h (2 Bft) 97,87 %
27.02.2017 12:52 10,0 C 57 % 1008,0 hPa 0,0 l/m 6,9 km/h (2 Bft) O-NO 59 2 min 0,000 mm 1,9 UV-I 520 W/m 1,9 C 9,6 C 11,3 km/h (2 Bft) 97,87 %
27.02.2017 12:54 10,2 C 55 % 1007,8 hPa 0,0 l/m 8,8 km/h (2 Bft) O 79 2 min 0,000 mm 1,9 UV-I 707 W/m 1,6 C 8,5 C 12,9 km/h (3 Bft) 90,00 %
27.02.2017 12:56 10,2 C 55 % 1007,7 hPa 0,0 l/m 11,4 km/h (2 Bft) O-NO 67 2 min 0,000 mm 1,8 UV-I 619 W/m 1,6 C 7,1 C 16,1 km/h (3 Bft) 91,43 %
27.02.2017 12:58 10,2 C 55 % 1007,6 hPa 0,0 l/m 10,3 km/h (2 Bft) O-NO 71 2 min 0,000 mm 1,8 UV-I 332 W/m 1,6 C 7,6 C 16,1 km/h (3 Bft) 93,55 %
27.02.2017 13:00 10,2 C 55 % 1007,7 hPa 0,0 l/m 8,8 km/h (2 Bft) O-NO 64 2 min 0,279 mm 2,0 UV-I 372 W/m 1,6 C 8,5 C 14,5 km/h (3 Bft) 97,14 %
27.02.2017 13:02 10,2 C 53 % 1007,8 hPa 0,0 l/m 7,6 km/h (2 Bft) O-NO 69 2 min 0,000 mm 1,9 UV-I 663 W/m 1,1 C 9,3 C 12,9 km/h (3 Bft) 94,00 %
27.02.2017 13:04 10,2 C 54 % 1007,7 hPa 0,0 l/m 3,9 km/h (1 Bft) O-NO 62 2 min 0,000 mm 2,0 UV-I 674 W/m 1,3 C 10,2 C 6,4 km/h (2 Bft) 93,62 %
27.02.2017 13:06 10,2 C 56 % 1007,7 hPa 0,0 l/m 3,8 km/h (1 Bft) NO 40 2 min 0,000 mm 2,0 UV-I 669 W/m 1,8 C 10,2 C 8,0 km/h (2 Bft) 93,75 %
27.02.2017 13:08 10,4 C 55 % 1007,6 hPa 0,0 l/m 7,0 km/h (2 Bft) O-NO 67 2 min 0,000 mm 2,0 UV-I 666 W/m 1,8 C 10,0 C 11,3 km/h (2 Bft) 95,74 %
27.02.2017 13:10 10,6 C 57 % 1007,5 hPa 0,0 l/m 7,1 km/h (2 Bft) NO 49 2 min 0,000 mm 1,9 UV-I 668 W/m 2,4 C 10,1 C 11,3 km/h (2 Bft) 93,62 %
27.02.2017 13:12 10,7 C 56 % 1007,2 hPa 0,0 l/m 10,4 km/h (2 Bft) O-NO 78 2 min 0,000 mm 1,9 UV-I 647 W/m 2,3 C 8,1 C 14,5 km/h (3 Bft) 95,74 %
27.02.2017 13:14 10,6 C 54 % 1007,2 hPa 0,0 l/m 11,6 km/h (2 Bft) O-NO 60 2 min 0,000 mm 1,9 UV-I 580 W/m 1,7 C 7,4 C 16,1 km/h (3 Bft) 91,49 %
27.02.2017 13:16 10,4 C 54 % 1007,2 hPa 0,0 l/m 9,4 km/h (2 Bft) NO 56 2 min 0,000 mm 1,7 UV-I 449 W/m 1,5 C 8,4 C 14,5 km/h (3 Bft) 90,00 %
27.02.2017 13:18 10,3 C 55 % 1007,3 hPa 0,0 l/m 4,8 km/h (1 Bft) O-NO 64 2 min 0,000 mm 1,7 UV-I 515 W/m 1,7 C 10,3 C 8,0 km/h (2 Bft) 87,23 %
27.02.2017 13:20 10,1 C 55 % 1007,2 hPa 0,0 l/m 5,6 km/h (1 Bft) O-NO 60 2 min 0,000 mm 1,7 UV-I 530 W/m 1,5 C 10,1 C 12,9 km/h (3 Bft) 89,47 %
27.02.2017 13:22 10,2 C 55 % 1007,2 hPa 0,0 l/m 4,6 km/h (1 Bft) NO 51 2 min 0,000 mm 1,6 UV-I 539 W/m 1,6 C 10,2 C 6,4 km/h (2 Bft) 96,00 %
27.02.2017 13:24 10,2 C 55 % 1007,1 hPa 0,0 l/m 3,7 km/h (1 Bft) O 86 2 min 0,000 mm 1,8 UV-I 563 W/m 1,6 C 10,2 C 6,4 km/h (2 Bft) 94,00 %
27.02.2017 13:26 10,1 C 53 % 1007,0 hPa 0,0 l/m 2,7 km/h (1 Bft) O-SO 106 2 min 0,000 mm 1,5 UV-I 520 W/m 1,0 C 10,1 C 6,4 km/h (2 Bft) 91,49 %
27.02.2017 13:28 10,1 C 57 % 1007,0 hPa 0,0 l/m 0,4 km/h (0 Bft) O-SO 106 2 min 0,000 mm 1,7 UV-I 463 W/m 2,0 C 10,1 C 3,2 km/h (1 Bft) 95,74 %
27.02.2017 13:30 10,2 C 56 % 1007,0 hPa 0,0 l/m 2,1 km/h (1 Bft) O-SO 106 2 min 0,000 mm 1,7 UV-I 559 W/m 1,8 C 10,2 C 3,2 km/h (1 Bft) 91,49 %
27.02.2017 13:32 10,3 C 55 % 1007,1 hPa 0,0 l/m 1,1 km/h (1 Bft) O-SO 106 2 min 0,000 mm 1,7 UV-I 550 W/m 1,7 C 10,3 C 3,2 km/h (1 Bft) 95,74 %
27.02.2017 13:34 10,4 C 55 % 1007,0 hPa 0,0 l/m 2,6 km/h (1 Bft) O-SO 108 2 min 0,000 mm 1,7 UV-I 547 W/m 1,8 C 10,4 C 3,2 km/h (1 Bft) 91,67 %
27.02.2017 13:36 10,5 C 56 % 1006,9 hPa 0,0 l/m 1,5 km/h (1 Bft) O-SO 111 2 min 0,000 mm 1,7 UV-I 547 W/m 2,1 C 10,5 C 3,2 km/h (1 Bft) 98,11 %
27.02.2017 13:38 10,7 C 57 % 1006,8 hPa 0,0 l/m 1,6 km/h (1 Bft) O-NO 63 2 min 0,000 mm 1,7 UV-I 544 W/m 2,5 C 10,7 C 4,8 km/h (1 Bft) 97,87 %
27.02.2017 13:40 10,8 C 54 % 1006,8 hPa 0,0 l/m 4,5 km/h (1 Bft) O-NO 57 2 min 0,000 mm 1,7 UV-I 547 W/m 1,9 C 10,8 C 6,4 km/h (2 Bft) 94,34 %
27.02.2017 13:42 10,9 C 57 % 1006,8 hPa 0,0 l/m 4,7 km/h (1 Bft) NO 50 2 min 0,000 mm 1,6 UV-I 476 W/m 2,7 C 10,9 C 6,4 km/h (2 Bft) 91,49 %
27.02.2017 13:44 10,9 C 56 % 1006,8 hPa 0,0 l/m 3,9 km/h (1 Bft) NO 50 2 min 0,000 mm 1,4 UV-I 445 W/m 2,5 C 10,9 C 6,4 km/h (2 Bft) 97,87 %
27.02.2017 13:46 10,8 C 54 % 1006,8 hPa 0,0 l/m 1,7 km/h (1 Bft) NO 50 0 min 0,000 mm 1,1 UV-I 177 W/m 1,9 C 10,8 C 3,2 km/h (1 Bft) 100,00 %
27.02.2017 13:48 10,6 C 57 % 1006,7 hPa 0,0 l/m 1,1 km/h (1 Bft) NO 37 0 min 0,000 mm 1,2 UV-I 178 W/m 2,4 C 10,6 C 8,0 km/h (2 Bft) 100,00 %
27.02.2017 13:50 10,7 C 60 % 1006,7 hPa 0,0 l/m 4,3 km/h (1 Bft) N-NO 32 2 min 0,000 mm 1,5 UV-I 497 W/m 3,3 C 10,7 C 8,0 km/h (2 Bft) 96,77 %
27.02.2017 13:52 10,8 C 56 % 1006,6 hPa 0,0 l/m 2,4 km/h (1 Bft) N-NO 32 2 min 0,000 mm 1,4 UV-I 605 W/m 2,4 C 10,8 C 4,8 km/h (1 Bft) 97,87 %
27.02.2017 13:54 10,8 C 56 % 1006,6 hPa 0,0 l/m 2,5 km/h (1 Bft) N-NO 32 2 min 0,000 mm 1,6 UV-I 606 W/m 2,4 C 10,8 C 6,4 km/h (2 Bft) 100,00 %
27.02.2017 13:56 10,8 C 55 % 1006,6 hPa 0,0 l/m 3,6 km/h (1 Bft) NO 47 2 min 0,000 mm 1,4 UV-I 475 W/m 2,1 C 10,8 C 6,4 km/h (2 Bft) 97,87 %
27.02.2017 13:58 10,8 C 55 % 1006,5 hPa 0,0 l/m 4,1 km/h (1 Bft) NO 51 0 min 0,000 mm 1,2 UV-I 217 W/m 2,1 C 10,8 C 6,4 km/h (2 Bft) 95,83 %
27.02.2017 14:00 10,6 C 55 % 1006,4 hPa 0,0 l/m 2,1 km/h (1 Bft) NO 51 0 min 0,000 mm 1,0 UV-I 191 W/m 1,9 C 10,6 C 4,8 km/h (1 Bft) 93,62 %
27.02.2017 14:02 10,5 C 56 % 1006,4 hPa 0,0 l/m 0,2 km/h (0 Bft) NO 51 0 min 0,254 mm 1,0 UV-I 212 W/m 2,1 C 10,5 C 1,6 km/h (1 Bft) 97,87 %
27.02.2017 14:04 10,4 C 56 % 1006,5 hPa 0,0 l/m 0,1 km/h (0 Bft) NO 51 2 min 0,000 mm 1,1 UV-I 270 W/m 2,0 C 10,4 C 1,6 km/h (1 Bft) 96,00 %
27.02.2017 14:06 10,6 C 58 % 1006,4 hPa 0,0 l/m 0,7 km/h (0 Bft) NO 51 2 min 0,000 mm 1,3 UV-I 368 W/m 2,7 C 10,6 C 1,6 km/h (1 Bft) 95,74 %
27.02.2017 14:08 10,8 C 56 % 1006,4 hPa 0,0 l/m 0,7 km/h (0 Bft) NO 50 2 min 0,000 mm 1,5 UV-I 588 W/m 2,4 C 10,8 C 1,6 km/h (1 Bft) 97,87 %
27.02.2017 14:10 11,2 C 57 % 1006,3 hPa 0,0 l/m 2,8 km/h (1 Bft) NO 51 2 min 0,000 mm 1,5 UV-I 640 W/m 3,0 C 11,2 C 6,4 km/h (2 Bft) 97,87 %
27.02.2017 14:12 11,4 C 55 % 1006,3 hPa 0,0 l/m 4,0 km/h (1 Bft) NO 51 2 min 0,000 mm 1,5 UV-I 578 W/m 2,7 C 11,4 C 6,4 km/h (2 Bft) 100,00 %
27.02.2017 14:14 11,6 C 53 % 1006,3 hPa 0,0 l/m 2,9 km/h (1 Bft) NO 51 2 min 0,000 mm 1,4 UV-I 568 W/m 2,4 C 11,6 C 4,8 km/h (1 Bft) 100,00 %
27.02.2017 14:16 11,6 C 54 % 1006,2 hPa 0,0 l/m 2,3 km/h (1 Bft) NO 38 2 min 0,000 mm 1,4 UV-I 549 W/m 2,6 C 11,6 C 4,8 km/h (1 Bft) 97,87 %
27.02.2017 14:18 11,5 C 53 % 1006,2 hPa 0,0 l/m 0,9 km/h (0 Bft) O-NO 66 2 min 0,000 mm 1,4 UV-I 528 W/m 2,3 C 11,5 C 3,2 km/h (1 Bft) 97,87 %
27.02.2017 14:20 11,5 C 55 % 1006,1 hPa 0,0 l/m 1,0 km/h (0 Bft) NO 38 2 min 0,000 mm 1,3 UV-I 532 W/m 2,8 C 11,5 C 3,2 km/h (1 Bft) 95,74 %
27.02.2017 14:22 11,4 C 56 % 1006,1 hPa 0,0 l/m 0,9 km/h (0 Bft) N-NO 22 2 min 0,000 mm 1,3 UV-I 534 W/m 2,9 C 11,4 C 3,2 km/h (1 Bft) 100,00 %
27.02.2017 14:24 11,4 C 56 % 1006,1 hPa 0,0 l/m 0,8 km/h (0 Bft) N-NO 22 2 min 0,000 mm 1,3 UV-I 522 W/m 2,9 C 11,4 C 3,2 km/h (1 Bft) 97,87 %
27.02.2017 14:26 11,4 C 53 % 1006,1 hPa 0,0 l/m 4,0 km/h (1 Bft) O-NO 62 2 min 0,000 mm 1,3 UV-I 513 W/m 2,2 C 11,4 C 8,0 km/h (2 Bft) 97,22 %
27.02.2017 14:28 11,4 C 55 % 1006,1 hPa 0,0 l/m 1,5 km/h (1 Bft) O-NO 62 2 min 0,000 mm 1,3 UV-I 513 W/m 2,7 C 11,4 C 3,2 km/h (1 Bft) 98,00 %
27.02.2017 14:30 11,3 C 54 % 1006,1 hPa 0,0 l/m 0,3 km/h (0 Bft) O-NO 62 2 min 0,000 mm 1,3 UV-I 508 W/m 2,3 C 11,3 C 1,6 km/h (1 Bft) 95,74 %
27.02.2017 14:32 11,2 C 55 % 1006,0 hPa 0,0 l/m 0,8 km/h (0 Bft) O-NO 61 2 min 0,000 mm 1,1 UV-I 515 W/m 2,5 C 11,2 C 1,6 km/h (1 Bft) 100,00 %
27.02.2017 14:34 11,2 C 55 % 1006,0 hPa 0,0 l/m 1,5 km/h (1 Bft) O-NO 61 2 min 0,000 mm 1,3 UV-I 525 W/m 2,5 C 11,2 C 3,2 km/h (1 Bft) 100,00 %
27.02.2017 14:36 11,3 C 55 % 1006,0 hPa 0,0 l/m 0,4 km/h (0 Bft) O-NO 61 2 min 0,000 mm 1,3 UV-I 518 W/m 2,6 C 11,3 C 3,2 km/h (1 Bft) 96,00 %
27.02.2017 14:38 11,4 C 56 % 1006,0 hPa 0,0 l/m 1,5 km/h (1 Bft) O-NO 59 2 min 0,000 mm 1,3 UV-I 499 W/m 2,9 C 11,4 C 4,8 km/h (1 Bft) 93,62 %
27.02.2017 14:40 11,4 C 55 % 1006,0 hPa 0,0 l/m 2,2 km/h (1 Bft) O-NO 59 2 min 0,000 mm 1,2 UV-I 471 W/m 2,7 C 11,4 C 4,8 km/h (1 Bft) 95,74 %
27.02.2017 14:42 11,6 C 59 % 1005,9 hPa 0,0 l/m 1,6 km/h (1 Bft) NO 54 2 min 0,000 mm 1,2 UV-I 456 W/m 3,9 C 11,6 C 4,8 km/h (1 Bft) 91,49 %
27.02.2017 14:44 11,6 C 54 % 1005,9 hPa 0,0 l/m 1,7 km/h (1 Bft) N 360 2 min 0,000 mm 1,2 UV-I 445 W/m 2,6 C 11,6 C 3,2 km/h (1 Bft) 95,74 %
27.02.2017 14:46 11,4 C 53 % 1005,8 hPa 0,0 l/m 0,4 km/h (0 Bft) N 355 2 min 0,000 mm 1,1 UV-I 437 W/m 2,2 C 11,4 C 1,6 km/h (1 Bft) 95,74 %
27.02.2017 14:48 11,3 C 54 % 1005,8 hPa 0,0 l/m 1,9 km/h (1 Bft) W-NW 302 2 min 0,000 mm 1,1 UV-I 418 W/m 2,3 C 11,3 C 3,2 km/h (1 Bft) 95,74 %
27.02.2017 14:50 11,3 C 56 % 1005,8 hPa 0,0 l/m 3,0 km/h (1 Bft) W-NW 293 0 min 0,000 mm 0,9 UV-I 224 W/m 2,8 C 11,3 C 4,8 km/h (1 Bft) 97,87 %
27.02.2017 14:52 11,3 C 53 % 1005,8 hPa 0,0 l/m 2,0 km/h (1 Bft) W-NW 293 2 min 0,000 mm 0,9 UV-I 257 W/m 2,1 C 11,3 C 4,8 km/h (1 Bft) 97,87 %
27.02.2017 14:54 11,2 C 53 % 1005,8 hPa 0,0 l/m 2,2 km/h (1 Bft) W 269 2 min 0,000 mm 0,9 UV-I 281 W/m 2,0 C 11,2 C 4,8 km/h (1 Bft) 89,36 %
27.02.2017 14:56 11,1 C 53 % 1005,7 hPa 0,0 l/m 2,3 km/h (1 Bft) W 269 2 min 0,000 mm 0,8 UV-I 230 W/m 1,9 C 11,1 C 4,8 km/h (1 Bft) 91,49 %
27.02.2017 14:58 11,1 C 53 % 1005,8 hPa 0,0 l/m 0,5 km/h (0 Bft) W 269 2 min 0,000 mm 0,9 UV-I 278 W/m 1,9 C 11,1 C 3,2 km/h (1 Bft) 95,74 %
27.02.2017 15:00 11,2 C 55 % 1005,8 hPa 0,0 l/m 2,4 km/h (1 Bft) O 86 2 min 0,000 mm 0,9 UV-I 253 W/m 2,5 C 11,2 C 6,4 km/h (2 Bft) 93,62 %
27.02.2017 15:02 11,3 C 58 % 1005,8 hPa 0,0 l/m 3,2 km/h (1 Bft) O-NO 65 2 min 0,229 mm 0,9 UV-I 392 W/m 3,3 C 11,3 C 4,8 km/h (1 Bft) 95,83 %
27.02.2017 15:04 11,4 C 54 % 1005,7 hPa 0,0 l/m 1,2 km/h (1 Bft) O-NO 65 2 min 0,000 mm 0,9 UV-I 390 W/m 2,4 C 11,4 C 3,2 km/h (1 Bft) 95,74 %
27.02.2017 15:06 11,3 C 54 % 1005,7 hPa 0,0 l/m 0,2 km/h (0 Bft) O-NO 65 2 min 0,000 mm 0,8 UV-I 381 W/m 2,3 C 11,3 C 1,6 km/h (1 Bft) 97,87 %
27.02.2017 15:08 11,3 C 56 % 1005,7 hPa 0,0 l/m 0,4 km/h (0 Bft) O-NO 64 2 min 0,000 mm 0,7 UV-I 264 W/m 2,8 C 11,3 C 1,6 km/h (1 Bft) 91,49 %
27.02.2017 15:10 11,1 C 54 % 1005,7 hPa 0,0 l/m 1,2 km/h (1 Bft) O-NO 64 0 min 0,000 mm 0,7 UV-I 203 W/m 2,2 C 11,1 C 3,2 km/h (1 Bft) 95,74 %
27.02.2017 15:12 11,2 C 55 % 1005,7 hPa 0,0 l/m 0,4 km/h (0 Bft) O-NO 64 2 min 0,000 mm 0,8 UV-I 368 W/m 2,5 C 11,2 C 1,6 km/h (1 Bft) 100,00 %
27.02.2017 15:14 11,3 C 54 % 1005,7 hPa 0,0 l/m 1,0 km/h (0 Bft) O-NO 64 2 min 0,000 mm 0,8 UV-I 398 W/m 2,3 C 11,3 C 3,2 km/h (1 Bft) 95,74 %
27.02.2017 15:16 11,4 C 55 % 1005,7 hPa 0,0 l/m 0,9 km/h (0 Bft) O-NO 63 2 min 0,000 mm 0,8 UV-I 393 W/m 2,7 C 11,4 C 3,2 km/h (1 Bft) 94,00 %
27.02.2017 15:18 11,6 C 54 % 1005,6 hPa 0,0 l/m 1,9 km/h (1 Bft) S-SO 151 2 min 0,000 mm 0,8 UV-I 385 W/m 2,6 C 11,6 C 4,8 km/h (1 Bft) 96,00 %
27.02.2017 15:20 11,5 C 53 % 1005,6 hPa 0,0 l/m 2,1 km/h (1 Bft) S-SO 151 2 min 0,000 mm 0,8 UV-I 369 W/m 2,3 C 11,5 C 3,2 km/h (1 Bft) 97,87 %
27.02.2017 15:22 11,6 C 55 % 1005,5 hPa 0,0 l/m 4,3 km/h (1 Bft) SW 220 2 min 0,000 mm 0,7 UV-I 304 W/m 2,9 C 11,6 C 6,4 km/h (2 Bft) 94,74 %
27.02.2017 15:24 11,5 C 54 % 1005,5 hPa 0,0 l/m 3,0 km/h (1 Bft) S-SW 198 2 min 0,000 mm 0,7 UV-I 316 W/m 2,5 C 11,5 C 6,4 km/h (2 Bft) 93,62 %
27.02.2017 15:26 11,4 C 53 % 1005,5 hPa 0,0 l/m 2,8 km/h (1 Bft) S-SW 205 2 min 0,000 mm 0,7 UV-I 347 W/m 2,2 C 11,4 C 4,8 km/h (1 Bft) 97,87 %
27.02.2017 15:28 11,5 C 54 % 1005,5 hPa 0,0 l/m 2,2 km/h (1 Bft) S-SW 205 2 min 0,000 mm 0,6 UV-I 340 W/m 2,5 C 11,5 C 4,8 km/h (1 Bft) 93,62 %
27.02.2017 15:30 11,5 C 53 % 1005,5 hPa 0,0 l/m 1,1 km/h (1 Bft) S-SW 197 2 min 0,000 mm 0,6 UV-I 331 W/m 2,3 C 11,5 C 3,2 km/h (1 Bft) 95,74 %
27.02.2017 15:32 11,4 C 53 % 1005,4 hPa 0,0 l/m 0,9 km/h (0 Bft) S-SW 197 2 min 0,000 mm 0,6 UV-I 322 W/m 2,2 C 11,4 C 3,2 km/h (1 Bft) 96,00 %
27.02.2017 15:34 11,5 C 55 % 1005,4 hPa 0,0 l/m 1,2 km/h (1 Bft) S-SW 196 2 min 0,000 mm 0,6 UV-I 314 W/m 2,8 C 11,5 C 3,2 km/h (1 Bft) 100,00 %
27.02.2017 15:36 11,4 C 53 % 1005,3 hPa 0,0 l/m 0,5 km/h (0 Bft) S-SW 196 2 min 0,000 mm 0,6 UV-I 302 W/m 2,2 C 11,4 C 3,2 km/h (1 Bft) 97,87 %
27.02.2017 15:38 11,4 C 53 % 1005,3 hPa 0,0 l/m 0,2 km/h (0 Bft) S-SW 196 2 min 0,000 mm 0,6 UV-I 280 W/m 2,2 C 11,4 C 1,6 km/h (1 Bft) 100,00 %
27.02.2017 15:40 11,4 C 53 % 1005,3 hPa 0,0 l/m 0,3 km/h (0 Bft) S-SW 196 2 min 0,000 mm 0,5 UV-I 283 W/m 2,2 C 11,4 C 3,2 km/h (1 Bft) 97,87 %
27.02.2017 15:42 11,4 C 54 % 1005,2 hPa 0,0 l/m 0,5 km/h (0 Bft) S-SW 196 2 min 0,000 mm 0,5 UV-I 263 W/m 2,4 C 11,4 C 1,6 km/h (1 Bft) 97,87 %
27.02.2017 15:44 11,4 C 53 % 1005,2 hPa 0,0 l/m 0,0 km/h (0 Bft) S-SW 196 0 min 0,000 mm 0,1 UV-I 160 W/m 2,2 C 11,4 C 0,0 km/h (0 Bft) 100,00 %
27.02.2017 15:46 11,3 C 56 % 1005,1 hPa 0,0 l/m 0,6 km/h (0 Bft) S-SW 196 0 min 0,000 mm 0,0 UV-I 145 W/m 2,8 C 11,3 C 3,2 km/h (1 Bft) 95,74 %
27.02.2017 15:48 11,3 C 56 % 1005,1 hPa 0,0 l/m 2,2 km/h (1 Bft) S-SW 195 2 min 0,000 mm 0,0 UV-I 190 W/m 2,8 C 11,3 C 4,8 km/h (1 Bft) 97,87 %
27.02.2017 15:50 11,2 C 55 % 1005,1 hPa 0,0 l/m 2,0 km/h (1 Bft) S-SW 195 2 min 0,000 mm 0,0 UV-I 244 W/m 2,5 C 11,2 C 4,8 km/h (1 Bft) 100,00 %
27.02.2017 15:52 11,2 C 57 % 1005,2 hPa 0,0 l/m 1,1 km/h (1 Bft) S-SW 195 2 min 0,000 mm 0,0 UV-I 216 W/m 3,0 C 11,2 C 3,2 km/h (1 Bft) 97,87 %
27.02.2017 15:54 11,2 C 56 % 1005,2 hPa 0,0 l/m 1,8 km/h (1 Bft) S-SW 195 0 min 0,000 mm 0,0 UV-I 112 W/m 2,8 C 11,2 C 3,2 km/h (1 Bft) 95,74 %
27.02.2017 15:56 11,2 C 55 % 1005,2 hPa 0,0 l/m 2,5 km/h (1 Bft) S-SW 195 2 min 0,000 mm 0,0 UV-I 173 W/m 2,5 C 11,2 C 3,2 km/h (1 Bft) 97,87 %
27.02.2017 15:58 11,2 C 55 % 1005,2 hPa 0,0 l/m 1,8 km/h (1 Bft) S-SW 195 0 min 0,000 mm 0,0 UV-I 130 W/m 2,5 C 11,2 C 3,2 km/h (1 Bft) 95,74 %
27.02.2017 16:00 11,2 C 58 % 1005,2 hPa 0,0 l/m 1,5 km/h (1 Bft) S-SW 194 0 min 0,152 mm 0,0 UV-I 106 W/m 3,2 C 11,2 C 4,8 km/h (1 Bft) 100,00 %
27.02.2017 16:02 11,2 C 58 % 1005,2 hPa 0,0 l/m 3,1 km/h (1 Bft) S-SO 163 0 min 0,000 mm 0,0 UV-I 140 W/m 3,2 C 11,2 C 8,0 km/h (2 Bft) 100,00 %
27.02.2017 16:04 11,2 C 58 % 1005,2 hPa 0,0 l/m 2,3 km/h (1 Bft) S-SO 163 2 min 0,000 mm 0,0 UV-I 181 W/m 3,2 C 11,2 C 6,4 km/h (2 Bft) 95,74 %
27.02.2017 16:06 11,2 C 57 % 1005,2 hPa 0,0 l/m 1,2 km/h (1 Bft) S-SO 163 2 min 0,000 mm 0,0 UV-I 221 W/m 3,0 C 11,2 C 3,2 km/h (1 Bft) 95,74 %
27.02.2017 16:08 11,2 C 57 % 1005,2 hPa 0,0 l/m 3,2 km/h (1 Bft) S-SO 161 2 min 0,000 mm 0,0 UV-I 241 W/m 3,0 C 11,2 C 6,4 km/h (2 Bft) 98,00 %
27.02.2017 16:10 11,2 C 58 % 1005,2 hPa 0,0 l/m 3,8 km/h (1 Bft) S-SO 160 2 min 0,000 mm 0,0 UV-I 206 W/m 3,2 C 11,2 C 8,0 km/h (2 Bft) 100,00 %
27.02.2017 16:12 11,2 C 57 % 1005,2 hPa 0,0 l/m 3,5 km/h (1 Bft) S-SO 155 2 min 0,000 mm 0,0 UV-I 220 W/m 3,0 C 11,2 C 6,4 km/h (2 Bft) 97,87 %
27.02.2017 16:14 11,2 C 59 % 1005,2 hPa 0,0 l/m 4,6 km/h (1 Bft) SO 139 2 min 0,000 mm 0,0 UV-I 214 W/m 3,5 C 11,2 C 6,4 km/h (2 Bft) 100,00 %
27.02.2017 16:16 11,2 C 60 % 1005,1 hPa 0,0 l/m 4,7 km/h (1 Bft) O-SO 123 2 min 0,000 mm 0,0 UV-I 235 W/m 3,7 C 11,2 C 8,0 km/h (2 Bft) 100,00 %
27.02.2017 16:18 11,2 C 58 % 1005,1 hPa 0,0 l/m 4,0 km/h (1 Bft) O-SO 122 2 min 0,000 mm 0,0 UV-I 237 W/m 3,2 C 11,2 C 6,4 km/h (2 Bft) 100,00 %
27.02.2017 16:20 11,2 C 57 % 1005,0 hPa 0,0 l/m 3,9 km/h (1 Bft) O-SO 121 2 min 0,000 mm 0,0 UV-I 224 W/m 3,0 C 11,2 C 6,4 km/h (2 Bft) 97,87 %
27.02.2017 16:22 11,3 C 58 % 1005,0 hPa 0,0 l/m 3,1 km/h (1 Bft) O-SO 121 2 min 0,000 mm 0,0 UV-I 201 W/m 3,3 C 11,3 C 4,8 km/h (1 Bft) 100,00 %
27.02.2017 16:24 11,3 C 58 % 1005,0 hPa 0,0 l/m 3,7 km/h (1 Bft) O-SO 105 2 min 0,000 mm 0,0 UV-I 193 W/m 3,3 C 11,3 C 6,4 km/h (2 Bft) 100,00 %
27.02.2017 16:26 11,2 C 58 % 1005,1 hPa 0,0 l/m 4,1 km/h (1 Bft) O 92 2 min 0,000 mm 0,0 UV-I 138 W/m 3,2 C 11,2 C 6,4 km/h (2 Bft) 100,00 %
27.02.2017 16:28 11,2 C 58 % 1005,0 hPa 0,0 l/m 5,0 km/h (1 Bft) O 92 2 min 0,000 mm 0,0 UV-I 126 W/m 3,2 C 11,2 C 6,4 km/h (2 Bft) 98,00 %
27.02.2017 16:30 11,1 C 58 % 1005,1 hPa 0,0 l/m 4,2 km/h (1 Bft) O 92 2 min 0,000 mm 0,0 UV-I 135 W/m 3,2 C 11,1 C 6,4 km/h (2 Bft) 100,00 %
27.02.2017 16:32 11,0 C 60 % 1005,1 hPa 0,0 l/m 2,2 km/h (1 Bft) O 92 2 min 0,000 mm 0,0 UV-I 138 W/m 3,5 C 11,0 C 4,8 km/h (1 Bft) 100,00 %
27.02.2017 16:34 11,0 C 59 % 1005,0 hPa 0,0 l/m 2,6 km/h (1 Bft) O 98 2 min 0,000 mm 0,0 UV-I 123 W/m 3,3 C 11,0 C 4,8 km/h (1 Bft) 100,00 %
27.02.2017 16:36 11,0 C 58 % 1005,0 hPa 0,0 l/m 2,8 km/h (1 Bft) SO 137 2 min 0,000 mm 0,0 UV-I 135 W/m 3,1 C 11,0 C 4,8 km/h (1 Bft) 97,87 %
27.02.2017 16:38 11,0 C 61 % 1005,0 hPa 0,0 l/m 4,2 km/h (1 Bft) SO 136 2 min 0,000 mm 0,0 UV-I 124 W/m 3,8 C 11,0 C 6,4 km/h (2 Bft) 100,00 %
27.02.2017 16:40 11,0 C 59 % 1005,0 hPa 0,0 l/m 3,7 km/h (1 Bft) SO 133 2 min 0,000 mm 0,0 UV-I 104 W/m 3,3 C 11,0 C 6,4 km/h (2 Bft) 97,87 %
27.02.2017 16:42 10,9 C 60 % 1005,0 hPa 0,0 l/m 4,9 km/h (1 Bft) SO 131 0 min 0,000 mm 0,0 UV-I 88 W/m 3,4 C 10,9 C 6,4 km/h (2 Bft) 100,00 %
27.02.2017 16:44 10,8 C 59 % 1004,9 hPa 0,0 l/m 4,3 km/h (1 Bft) SO 131 2 min 0,000 mm 0,0 UV-I 120 W/m 3,1 C 10,8 C 6,4 km/h (2 Bft) 97,87 %
27.02.2017 16:46 10,8 C 61 % 1004,9 hPa 0,0 l/m 4,5 km/h (1 Bft) SO 131 2 min 0,000 mm 0,0 UV-I 127 W/m 3,6 C 10,8 C 6,4 km/h (2 Bft) 100,00 %
27.02.2017 16:48 10,7 C 63 % 1004,8 hPa 0,0 l/m 3,8 km/h (1 Bft) SO 131 2 min 0,000 mm 0,0 UV-I 108 W/m 3,9 C 10,7 C 4,8 km/h (1 Bft) 100,00 %
27.02.2017 16:50 10,7 C 62 % 1004,8 hPa 0,0 l/m 5,2 km/h (1 Bft) SO 131 2 min 0,000 mm 0,0 UV-I 84 W/m 3,7 C 10,7 C 8,0 km/h (2 Bft) 100,00 %
27.02.2017 16:52 10,7 C 62 % 1004,7 hPa 0,0 l/m 3,8 km/h (1 Bft) SO 131 0 min 0,000 mm 0,0 UV-I 71 W/m 3,7 C 10,7 C 6,4 km/h (2 Bft) 100,00 %
27.02.2017 16:54 10,7 C 63 % 1004,7 hPa 0,0 l/m 3,4 km/h (1 Bft) SO 130 2 min 0,000 mm 0,0 UV-I 101 W/m 3,9 C 10,7 C 4,8 km/h (1 Bft) 97,87 %
27.02.2017 16:56 10,5 C 63 % 1004,7 hPa 0,0 l/m 4,5 km/h (1 Bft) SO 131 2 min 0,000 mm 0,0 UV-I 95 W/m 3,8 C 10,5 C 6,4 km/h (2 Bft) 94,00 %
27.02.2017 16:58 10,5 C 62 % 1004,7 hPa 0,0 l/m 3,7 km/h (1 Bft) SO 131 2 min 0,000 mm 0,0 UV-I 67 W/m 3,5 C 10,5 C 4,8 km/h (1 Bft) 100,00 %
27.02.2017 17:00 10,5 C 62 % 1004,7 hPa 0,0 l/m 3,4 km/h (1 Bft) SO 130 2 min 0,000 mm 0,0 UV-I 91 W/m 3,5 C 10,5 C 4,8 km/h (1 Bft) 87,76 %
27.02.2017 17:02 10,4 C 61 % 1004,7 hPa 0,0 l/m 4,5 km/h (1 Bft) SO 131 2 min 0,102 mm 0,0 UV-I 85 W/m 3,2 C 10,4 C 6,4 km/h (2 Bft) 92,31 %
27.02.2017 17:04 10,4 C 61 % 1004,6 hPa 0,0 l/m 3,8 km/h (1 Bft) SO 130 2 min 0,000 mm 0,0 UV-I 91 W/m 3,2 C 10,4 C 4,8 km/h (1 Bft) 92,00 %
27.02.2017 17:06 10,4 C 62 % 1004,6 hPa 0,0 l/m 3,2 km/h (1 Bft) SO 131 2 min 0,000 mm 0,0 UV-I 85 W/m 3,4 C 10,4 C 4,8 km/h (1 Bft) 95,74 %
27.02.2017 17:08 10,4 C 62 % 1004,6 hPa 0,0 l/m 2,0 km/h (1 Bft) SO 130 2 min 0,000 mm 0,0 UV-I 79 W/m 3,4 C 10,4 C 3,2 km/h (1 Bft) 97,87 %
27.02.2017 17:10 10,3 C 61 % 1004,6 hPa 0,0 l/m 1,2 km/h (1 Bft) SO 130 2 min 0,000 mm 0,0 UV-I 73 W/m 3,1 C 10,3 C 3,2 km/h (1 Bft) 93,62 %
27.02.2017 17:12 10,4 C 61 % 1004,6 hPa 0,0 l/m 0,3 km/h (0 Bft) SO 130 2 min 0,000 mm 0,0 UV-I 67 W/m 3,2 C 10,4 C 1,6 km/h (1 Bft) 97,87 %
27.02.2017 17:14 10,3 C 62 % 1004,6 hPa 0,0 l/m 2,0 km/h (1 Bft) SO 131 2 min 0,000 mm 0,0 UV-I 59 W/m 3,3 C 10,3 C 4,8 km/h (1 Bft) 98,00 %
27.02.2017 17:16 10,3 C 62 % 1004,6 hPa 0,0 l/m 2,6 km/h (1 Bft) SO 131 2 min 0,000 mm 0,0 UV-I 54 W/m 3,3 C 10,3 C 4,8 km/h (1 Bft) 94,74 %
27.02.2017 17:18 10,2 C 63 % 1004,7 hPa 0,0 l/m 3,2 km/h (1 Bft) SO 130 2 min 0,000 mm 0,0 UV-I 52 W/m 3,5 C 10,2 C 4,8 km/h (1 Bft) 95,74 %
27.02.2017 17:20 10,1 C 63 % 1004,6 hPa 0,0 l/m 3,7 km/h (1 Bft) SO 130 2 min 0,000 mm 0,0 UV-I 47 W/m 3,4 C 10,1 C 4,8 km/h (1 Bft) 91,49 %
27.02.2017 17:22 10,1 C 65 % 1004,6 hPa 0,0 l/m 3,2 km/h (1 Bft) SO 130 2 min 0,000 mm 0,0 UV-I 43 W/m 3,8 C 10,1 C 4,8 km/h (1 Bft) 93,62 %
27.02.2017 17:24 9,8 C 66 % 1004,6 hPa 0,0 l/m 3,0 km/h (1 Bft) SO 130 2 min 0,000 mm 0,0 UV-I 40 W/m 3,8 C 9,8 C 4,8 km/h (1 Bft) 95,74 %
27.02.2017 17:26 9,6 C 67 % 1004,6 hPa 0,0 l/m 2,2 km/h (1 Bft) SO 130 2 min 0,000 mm 0,0 UV-I 37 W/m 3,8 C 9,6 C 3,2 km/h (1 Bft) 95,74 %
27.02.2017 17:28 9,3 C 68 % 1004,6 hPa 0,0 l/m 3,3 km/h (1 Bft) SO 130 2 min 0,000 mm 0,0 UV-I 34 W/m 3,7 C 9,3 C 4,8 km/h (1 Bft) 95,74 %
27.02.2017 17:30 9,1 C 68 % 1004,6 hPa 0,0 l/m 5,5 km/h (1 Bft) SO 130 2 min 0,000 mm 0,0 UV-I 31 W/m 3,5 C 9,1 C 6,4 km/h (2 Bft) 97,87 %
27.02.2017 17:32 8,9 C 69 % 1004,5 hPa 0,0 l/m 5,1 km/h (1 Bft) SO 130 2 min 0,000 mm 0,0 UV-I 27 W/m 3,5 C 8,9 C 6,4 km/h (2 Bft) 93,62 %
27.02.2017 17:34 8,8 C 70 % 1004,5 hPa 0,0 l/m 4,5 km/h (1 Bft) SO 130 2 min 0,000 mm 0,0 UV-I 24 W/m 3,6 C 8,8 C 6,4 km/h (2 Bft) 97,92 %
27.02.2017 17:36 8,9 C 69 % 1004,5 hPa 0,0 l/m 5,2 km/h (1 Bft) O 88 0 min 0,000 mm 0,0 UV-I 21 W/m 3,5 C 8,9 C 9,7 km/h (2 Bft) 95,74 %
27.02.2017 17:38 8,9 C 68 % 1004,5 hPa 0,0 l/m 5,7 km/h (1 Bft) O 87 0 min 0,000 mm 0,0 UV-I 18 W/m 3,3 C 8,9 C 8,0 km/h (2 Bft) 93,62 %
27.02.2017 17:40 8,9 C 68 % 1004,4 hPa 0,0 l/m 7,2 km/h (2 Bft) O 94 0 min 0,000 mm 0,0 UV-I 16 W/m 3,3 C 8,3 C 11,3 km/h (2 Bft) 97,87 %
27.02.2017 17:42 8,8 C 69 % 1004,4 hPa 0,0 l/m 6,9 km/h (2 Bft) O 101 0 min 0,000 mm 0,0 UV-I 15 W/m 3,4 C 8,4 C 11,3 km/h (2 Bft) 97,87 %
27.02.2017 17:44 8,7 C 69 % 1004,4 hPa 0,0 l/m 6,2 km/h (2 Bft) O 91 0 min 0,000 mm 0,0 UV-I 13 W/m 3,3 C 8,7 C 9,7 km/h (2 Bft) 94,00 %
27.02.2017 17:46 8,7 C 69 % 1004,4 hPa 0,0 l/m 5,1 km/h (1 Bft) O 88 0 min 0,000 mm 0,0 UV-I 12 W/m 3,3 C 8,7 C 9,7 km/h (2 Bft) 98,00 %
27.02.2017 17:48 8,7 C 68 % 1004,3 hPa 0,0 l/m 5,0 km/h (1 Bft) O 88 0 min 0,000 mm 0,0 UV-I 11 W/m 3,1 C 8,7 C 6,4 km/h (2 Bft) 94,74 %
27.02.2017 17:50 8,8 C 68 % 1004,4 hPa 0,0 l/m 5,1 km/h (1 Bft) O 87 0 min 0,000 mm 0,0 UV-I 10 W/m 3,2 C 8,8 C 6,4 km/h (2 Bft) 97,87 %
27.02.2017 17:52 8,7 C 68 % 1004,3 hPa 0,0 l/m 7,5 km/h (2 Bft) O 94 0 min 0,000 mm 0,0 UV-I 9 W/m 3,1 C 7,9 C 11,3 km/h (2 Bft) 93,62 %
27.02.2017 17:54 8,7 C 68 % 1004,3 hPa 0,0 l/m 7,7 km/h (2 Bft) O 100 0 min 0,000 mm 0,0 UV-I 7 W/m 3,1 C 7,7 C 11,3 km/h (2 Bft) 93,62 %
27.02.2017 17:56 8,7 C 67 % 1004,3 hPa 0,0 l/m 8,6 km/h (2 Bft) O 97 0 min 0,000 mm 0,0 UV-I 5 W/m 2,9 C 7,1 C 12,9 km/h (3 Bft) 95,74 %
27.02.2017 17:58 8,7 C 67 % 1004,2 hPa 0,0 l/m 8,4 km/h (2 Bft) O 86 0 min 0,000 mm 0,0 UV-I 5 W/m 2,9 C 7,2 C 12,9 km/h (3 Bft) 97,87 %
27.02.2017 18:00 8,7 C 67 % 1004,2 hPa 0,0 l/m 7,7 km/h (2 Bft) O 88 0 min 0,000 mm 0,0 UV-I 2 W/m 2,9 C 7,7 C 11,3 km/h (2 Bft) 97,87 %
27.02.2017 18:02 8,7 C 67 % 1004,2 hPa 0,0 l/m 6,3 km/h (2 Bft) O-NO 78 0 min 0,025 mm 0,0 UV-I 0 W/m 2,9 C 8,7 C 9,7 km/h (2 Bft) 97,96 %
27.02.2017 18:04 8,7 C 66 % 1004,2 hPa 0,0 l/m 7,3 km/h (2 Bft) O-NO 78 0 min 0,000 mm 0,0 UV-I 0 W/m 2,7 C 8,0 C 11,3 km/h (2 Bft) 97,87 %
27.02.2017 18:06 8,7 C 66 % 1004,2 hPa 0,0 l/m 6,5 km/h (2 Bft) O 88 0 min 0,000 mm 0,0 UV-I 0 W/m 2,7 C 8,6 C 9,7 km/h (2 Bft) 100,00 %
27.02.2017 18:08 8,8 C 66 % 1004,2 hPa 0,0 l/m 6,8 km/h (2 Bft) O 84 0 min 0,000 mm 0,0 UV-I 0 W/m 2,8 C 8,5 C 11,3 km/h (2 Bft) 97,87 %
27.02.2017 18:10 8,8 C 66 % 1004,2 hPa 0,0 l/m 7,3 km/h (2 Bft) O 91 0 min 0,000 mm 0,0 UV-I 0 W/m 2,8 C 8,1 C 11,3 km/h (2 Bft) 100,00 %
27.02.2017 18:12 8,8 C 66 % 1004,1 hPa 0,0 l/m 7,8 km/h (2 Bft) O 90 0 min 0,000 mm 0,0 UV-I 0 W/m 2,8 C 7,7 C 11,3 km/h (2 Bft) 95,74 %
27.02.2017 18:14 8,7 C 67 % 1004,1 hPa 0,0 l/m 6,4 km/h (2 Bft) O 82 0 min 0,000 mm 0,0 UV-I 0 W/m 2,9 C 8,7 C 9,7 km/h (2 Bft) 97,87 %
27.02.2017 18:16 8,4 C 68 % 1004,1 hPa 0,0 l/m 6,1 km/h (2 Bft) O 84 0 min 0,000 mm 0,0 UV-I 0 W/m 2,8 C 8,4 C 11,3 km/h (2 Bft) 100,00 %
27.02.2017 18:18 8,3 C 68 % 1004,1 hPa 0,0 l/m 6,2 km/h (2 Bft) O 85 0 min 0,000 mm 0,0 UV-I 0 W/m 2,7 C 8,3 C 9,7 km/h (2 Bft) 100,00 %
27.02.2017 18:20 8,2 C 68 % 1004,1 hPa 0,0 l/m 5,3 km/h (1 Bft) O 84 0 min 0,000 mm 0,0 UV-I 0 W/m 2,7 C 8,2 C 6,4 km/h (2 Bft) 97,87 %
27.02.2017 18:22 8,2 C 68 % 1004,1 hPa 0,0 l/m 7,9 km/h (2 Bft) O 82 0 min 0,000 mm 0,0 UV-I 0 W/m 2,7 C 7,0 C 11,3 km/h (2 Bft) 93,62 %
27.02.2017 18:24 8,1 C 69 % 1004,0 hPa 0,0 l/m 7,2 km/h (2 Bft) O 89 0 min 0,000 mm 0,0 UV-I 0 W/m 2,8 C 7,5 C 9,7 km/h (2 Bft) 97,87 %
27.02.2017 18:26 8,0 C 69 % 1004,0 hPa 0,0 l/m 8,0 km/h (2 Bft) O 79 0 min 0,000 mm 0,0 UV-I 0 W/m 2,7 C 6,8 C 12,9 km/h (3 Bft) 94,00 %
27.02.2017 18:28 8,0 C 69 % 1004,0 hPa 0,0 l/m 7,8 km/h (2 Bft) O 88 0 min 0,000 mm 0,0 UV-I 0 W/m 2,7 C 6,9 C 11,3 km/h (2 Bft) 100,00 %
27.02.2017 18:30 8,1 C 69 % 1003,9 hPa 0,0 l/m 8,3 km/h (2 Bft) O 84 0 min 0,000 mm 0,0 UV-I 0 W/m 2,8 C 6,6 C 12,9 km/h (3 Bft) 97,87 %
27.02.2017 18:32 8,1 C 69 % 1003,9 hPa 0,0 l/m 9,9 km/h (2 Bft) O 79 0 min 0,000 mm 0,0 UV-I 0 W/m 2,8 C 5,6 C 14,5 km/h (3 Bft) 95,74 %
27.02.2017 18:34 8,2 C 69 % 1003,9 hPa 0,0 l/m 9,9 km/h (2 Bft) O 90 0 min 0,000 mm 0,0 UV-I 0 W/m 2,9 C 5,7 C 14,5 km/h (3 Bft) 97,87 %
27.02.2017 18:36 8,2 C 69 % 1003,9 hPa 0,0 l/m 8,2 km/h (2 Bft) O-NO 78 0 min 0,000 mm 0,0 UV-I 0 W/m 2,9 C 6,8 C 16,1 km/h (3 Bft) 97,87 %
27.02.2017 18:38 8,2 C 70 % 1003,8 hPa 0,0 l/m 11,6 km/h (2 Bft) O-NO 69 0 min 0,000 mm 0,0 UV-I 0 W/m 3,1 C 4,7 C 16,1 km/h (3 Bft) 95,74 %
27.02.2017 18:40 8,1 C 69 % 1003,8 hPa 0,0 l/m 11,5 km/h (2 Bft) O 97 0 min 0,000 mm 0,0 UV-I 0 W/m 2,8 C 4,6 C 16,1 km/h (3 Bft) 100,00 %
27.02.2017 18:42 8,1 C 70 % 1003,9 hPa 0,0 l/m 8,2 km/h (2 Bft) O 92 0 min 0,000 mm 0,0 UV-I 0 W/m 3,0 C 6,7 C 14,5 km/h (3 Bft) 97,87 %
27.02.2017 18:44 8,0 C 70 % 1003,9 hPa 0,0 l/m 7,8 km/h (2 Bft) O-NO 78 0 min 0,000 mm 0,0 UV-I 0 W/m 2,9 C 6,9 C 12,9 km/h (3 Bft) 95,74 %
27.02.2017 18:46 8,0 C 70 % 1003,9 hPa 0,0 l/m 7,0 km/h (2 Bft) O-NO 64 0 min 0,000 mm 0,0 UV-I 0 W/m 2,9 C 7,5 C 11,3 km/h (2 Bft) 100,00 %
27.02.2017 18:48 7,9 C 71 % 1003,9 hPa 0,0 l/m 9,7 km/h (2 Bft) O 82 0 min 0,000 mm 0,0 UV-I 0 W/m 3,0 C 5,5 C 16,1 km/h (3 Bft) 100,00 %
27.02.2017 18:50 7,9 C 71 % 1003,9 hPa 0,0 l/m 8,6 km/h (2 Bft) O 86 0 min 0,000 mm 0,0 UV-I 0 W/m 3,0 C 6,2 C 14,5 km/h (3 Bft) 100,00 %
27.02.2017 18:52 7,8 C 71 % 1003,9 hPa 0,0 l/m 6,9 km/h (2 Bft) O 86 0 min 0,000 mm 0,0 UV-I 0 W/m 2,9 C 7,4 C 12,9 km/h (3 Bft) 98,39 %
27.02.2017 18:54 7,8 C 71 % 1004,0 hPa 0,0 l/m 6,1 km/h (2 Bft) O 82 0 min 0,000 mm 0,0 UV-I 0 W/m 2,9 C 7,8 C 11,3 km/h (2 Bft) 100,00 %
27.02.2017 18:56 7,8 C 71 % 1004,0 hPa 0,0 l/m 6,7 km/h (2 Bft) O-NO 60 0 min 0,000 mm 0,0 UV-I 0 W/m 2,9 C 7,6 C 11,3 km/h (2 Bft) 100,00 %
27.02.2017 18:58 7,8 C 71 % 1004,0 hPa 0,0 l/m 6,5 km/h (2 Bft) O 84 0 min 0,000 mm 0,0 UV-I 0 W/m 2,9 C 7,7 C 9,7 km/h (2 Bft) 97,87 %
27.02.2017 19:00 7,8 C 71 % 1003,9 hPa 0,0 l/m 9,2 km/h (2 Bft) O-NO 77 0 min 0,000 mm 0,0 UV-I 0 W/m 2,9 C 5,7 C 12,9 km/h (3 Bft) 100,00 %
27.02.2017 19:02 7,8 C 71 % 1003,9 hPa 0,0 l/m 7,7 km/h (2 Bft) O-NO 77 0 min 0,025 mm 0,0 UV-I 0 W/m 2,9 C 6,8 C 11,3 km/h (2 Bft) 100,00 %
27.02.2017 19:04 7,7 C 71 % 1003,8 hPa 0,0 l/m 6,5 km/h (2 Bft) O 80 0 min 0,000 mm 0,0 UV-I 0 W/m 2,8 C 7,6 C 8,0 km/h (2 Bft) 97,87 %
27.02.2017 19:06 7,6 C 72 % 1003,7 hPa 0,0 l/m 7,2 km/h (2 Bft) O 94 0 min 0,000 mm 0,0 UV-I 0 W/m 2,9 C 7,0 C 11,3 km/h (2 Bft) 100,00 %
27.02.2017 19:08 7,4 C 72 % 1003,7 hPa 0,0 l/m 6,1 km/h (2 Bft) O 82 0 min 0,000 mm 0,0 UV-I 0 W/m 2,7 C 7,4 C 9,7 km/h (2 Bft) 97,96 %
27.02.2017 19:10 7,2 C 72 % 1003,6 hPa 0,0 l/m 7,0 km/h (2 Bft) O-NO 77 0 min 0,000 mm 0,0 UV-I 0 W/m 2,5 C 6,7 C 11,3 km/h (2 Bft) 97,87 %
27.02.2017 19:12 7,0 C 74 % 1003,6 hPa 0,0 l/m 5,9 km/h (2 Bft) O 91 0 min 0,000 mm 0,0 UV-I 0 W/m 2,7 C 7,0 C 11,3 km/h (2 Bft) 100,00 %
27.02.2017 19:14 6,9 C 74 % 1003,6 hPa 0,0 l/m 8,8 km/h (2 Bft) O 87 0 min 0,000 mm 0,0 UV-I 0 W/m 2,6 C 5,0 C 12,9 km/h (3 Bft) 97,14 %
27.02.2017 19:16 6,9 C 74 % 1003,6 hPa 0,0 l/m 8,8 km/h (2 Bft) O 96 0 min 0,000 mm 0,0 UV-I 0 W/m 2,6 C 5,0 C 14,5 km/h (3 Bft) 100,00 %
27.02.2017 19:18 7,0 C 74 % 1003,6 hPa 0,0 l/m 9,5 km/h (2 Bft) O 88 0 min 0,000 mm 0,0 UV-I 0 W/m 2,7 C 4,6 C 14,5 km/h (3 Bft) 97,87 %
27.02.2017 19:20 7,1 C 73 % 1003,6 hPa 0,0 l/m 6,6 km/h (2 Bft) O 94 0 min 0,000 mm 0,0 UV-I 0 W/m 2,6 C 7,0 C 9,7 km/h (2 Bft) 100,00 %
27.02.2017 19:22 7,2 C 73 % 1003,6 hPa 0,0 l/m 5,7 km/h (1 Bft) O 92 0 min 0,000 mm 0,0 UV-I 0 W/m 2,7 C 7,2 C 11,3 km/h (2 Bft) 100,00 %
27.02.2017 19:24 7,2 C 73 % 1003,6 hPa 0,0 l/m 7,4 km/h (2 Bft) O 84 0 min 0,000 mm 0,0 UV-I 0 W/m 2,7 C 6,4 C 12,9 km/h (3 Bft) 100,00 %
27.02.2017 19:26 7,2 C 73 % 1003,6 hPa 0,0 l/m 7,3 km/h (2 Bft) O 97 0 min 0,000 mm 0,0 UV-I 0 W/m 2,7 C 6,5 C 11,3 km/h (2 Bft) 100,00 %
27.02.2017 19:28 7,2 C 73 % 1003,6 hPa 0,0 l/m 6,1 km/h (2 Bft) O 80 0 min 0,000 mm 0,0 UV-I 0 W/m 2,7 C 7,2 C 12,9 km/h (3 Bft) 94,00 %
27.02.2017 19:30 7,1 C 73 % 1003,5 hPa 0,0 l/m 5,5 km/h (1 Bft) O-NO 74 0 min 0,000 mm 0,0 UV-I 0 W/m 2,6 C 7,1 C 11,3 km/h (2 Bft) 100,00 %
27.02.2017 19:32 7,1 C 73 % 1003,5 hPa 0,0 l/m 5,8 km/h (2 Bft) O 89 0 min 0,000 mm 0,0 UV-I 0 W/m 2,6 C 7,1 C 9,7 km/h (2 Bft) 100,00 %
27.02.2017 19:34 7,0 C 73 % 1003,5 hPa 0,0 l/m 5,9 km/h (2 Bft) O-NO 77 0 min 0,000 mm 0,0 UV-I 0 W/m 2,5 C 7,0 C 11,3 km/h (2 Bft) 96,00 %
27.02.2017 19:36 6,9 C 74 % 1003,5 hPa 0,0 l/m 5,7 km/h (1 Bft) O-NO 76 0 min 0,000 mm 0,0 UV-I 0 W/m 2,6 C 6,9 C 11,3 km/h (2 Bft) 97,87 %
27.02.2017 19:38 6,8 C 74 % 1003,5 hPa 0,0 l/m 5,5 km/h (1 Bft) O 93 0 min 0,000 mm 0,0 UV-I 0 W/m 2,5 C 6,8 C 9,7 km/h (2 Bft) 100,00 %
27.02.2017 19:40 6,7 C 74 % 1003,6 hPa 0,0 l/m 5,1 km/h (1 Bft) O 92 0 min 0,000 mm 0,0 UV-I 0 W/m 2,4 C 6,7 C 6,4 km/h (2 Bft) 96,23 %
27.02.2017 19:42 6,5 C 75 % 1003,5 hPa 0,0 l/m 4,2 km/h (1 Bft) O 101 0 min 0,000 mm 0,0 UV-I 0 W/m 2,4 C 6,5 C 6,4 km/h (2 Bft) 97,14 %
27.02.2017 19:44 6,3 C 76 % 1003,5 hPa 0,0 l/m 4,2 km/h (1 Bft) O 86 0 min 0,000 mm 0,0 UV-I 0 W/m 2,4 C 6,3 C 6,4 km/h (2 Bft) 97,87 %
27.02.2017 19:46 6,1 C 76 % 1003,5 hPa 0,0 l/m 4,4 km/h (1 Bft) O 86 0 min 0,000 mm 0,0 UV-I 0 W/m 2,2 C 6,1 C 8,0 km/h (2 Bft) 97,87 %
27.02.2017 19:48 6,0 C 77 % 1003,4 hPa 0,0 l/m 7,5 km/h (2 Bft) O 84 0 min 0,000 mm 0,0 UV-I 0 W/m 2,3 C 5,1 C 12,9 km/h (3 Bft) 94,00 %
27.02.2017 19:50 6,2 C 77 % 1003,4 hPa 0,0 l/m 6,7 km/h (2 Bft) O 92 0 min 0,000 mm 0,0 UV-I 0 W/m 2,5 C 6,0 C 11,3 km/h (2 Bft) 98,00 %
27.02.2017 19:52 6,3 C 77 % 1003,4 hPa 0,0 l/m 6,2 km/h (2 Bft) O 86 0 min 0,000 mm 0,0 UV-I 0 W/m 2,6 C 6,3 C 9,7 km/h (2 Bft) 97,87 %
27.02.2017 19:54 6,6 C 75 % 1003,4 hPa 0,0 l/m 5,6 km/h (1 Bft) O-NO 76 0 min 0,000 mm 0,0 UV-I 0 W/m 2,5 C 6,6 C 11,3 km/h (2 Bft) 91,49 %
27.02.2017 19:56 6,7 C 75 % 1003,4 hPa 0,0 l/m 6,7 km/h (2 Bft) O-NO 70 0 min 0,000 mm 0,0 UV-I 0 W/m 2,6 C 6,5 C 12,9 km/h (3 Bft) 97,87 %
27.02.2017 19:58 6,7 C 74 % 1003,4 hPa 0,0 l/m 5,0 km/h (1 Bft) O-NO 76 0 min 0,000 mm 0,0 UV-I 0 W/m 2,4 C 6,7 C 6,4 km/h (2 Bft) 97,87 %
27.02.2017 20:00 6,7 C 74 % 1003,4 hPa 0,0 l/m 4,3 km/h (1 Bft) O 84 0 min 0,000 mm 0,0 UV-I 0 W/m 2,4 C 6,7 C 6,4 km/h (2 Bft) 95,74 %
27.02.2017 20:02 6,6 C 75 % 1003,4 hPa 0,0 l/m 4,5 km/h (1 Bft) O 92 0 min 0,026 mm 0,0 UV-I 0 W/m 2,5 C 6,6 C 9,7 km/h (2 Bft) 97,56 %
27.02.2017 20:04 6,4 C 75 % 1003,4 hPa 0,0 l/m 3,6 km/h (1 Bft) O-SO 102 0 min 0,000 mm 0,0 UV-I 0 W/m 2,3 C 6,4 C 6,4 km/h (2 Bft) 97,87 %
27.02.2017 20:06 6,1 C 76 % 1003,4 hPa 0,0 l/m 5,2 km/h (1 Bft) O-NO 70 0 min 0,000 mm 0,0 UV-I 0 W/m 2,2 C 6,1 C 9,7 km/h (2 Bft) 98,00 %
27.02.2017 20:08 5,8 C 77 % 1003,4 hPa 0,0 l/m 3,5 km/h (1 Bft) O-NO 70 0 min 0,000 mm 0,0 UV-I 0 W/m 2,1 C 5,8 C 6,4 km/h (2 Bft) 97,87 %
27.02.2017 20:10 5,6 C 78 % 1003,3 hPa 0,0 l/m 3,0 km/h (1 Bft) O-NO 70 0 min 0,000 mm 0,0 UV-I 0 W/m 2,1 C 5,6 C 4,8 km/h (1 Bft) 97,87 %
27.02.2017 20:12 5,4 C 79 % 1003,3 hPa 0,0 l/m 0,9 km/h (0 Bft) O-NO 70 0 min 0,000 mm 0,0 UV-I 0 W/m 2,1 C 5,4 C 3,2 km/h (1 Bft) 95,83 %
27.02.2017 20:14 5,3 C 80 % 1003,3 hPa 0,0 l/m 1,8 km/h (1 Bft) O-NO 70 0 min 0,000 mm 0,0 UV-I 0 W/m 2,1 C 5,3 C 3,2 km/h (1 Bft) 95,92 %
27.02.2017 20:16 5,1 C 80 % 1003,3 hPa 0,0 l/m 3,3 km/h (1 Bft) O 93 0 min 0,000 mm 0,0 UV-I 0 W/m 1,9 C 5,1 C 6,4 km/h (2 Bft) 95,83 %
27.02.2017 20:18 5,1 C 81 % 1003,3 hPa 0,0 l/m 2,3 km/h (1 Bft) O 92 0 min 0,000 mm 0,0 UV-I 0 W/m 2,1 C 5,1 C 6,4 km/h (2 Bft) 97,87 %
27.02.2017 20:20 5,0 C 81 % 1003,3 hPa 0,0 l/m 0,6 km/h (0 Bft) O 92 0 min 0,000 mm 0,0 UV-I 0 W/m 2,0 C 5,0 C 3,2 km/h (1 Bft) 100,00 %
27.02.2017 20:22 4,9 C 81 % 1003,2 hPa 0,0 l/m 3,5 km/h (1 Bft) O 90 0 min 0,000 mm 0,0 UV-I 0 W/m 1,9 C 4,9 C 6,4 km/h (2 Bft) 95,74 %
27.02.2017 20:24 5,0 C 82 % 1003,2 hPa 0,0 l/m 4,9 km/h (1 Bft) O-NO 71 0 min 0,000 mm 0,0 UV-I 0 W/m 2,2 C 5,0 C 8,0 km/h (2 Bft) 100,00 %
27.02.2017 20:26 5,2 C 81 % 1003,1 hPa 0,0 l/m 5,2 km/h (1 Bft) O-NO 69 0 min 0,000 mm 0,0 UV-I 0 W/m 2,2 C 5,2 C 6,4 km/h (2 Bft) 97,87 %
27.02.2017 20:28 5,3 C 81 % 1003,0 hPa 0,0 l/m 7,4 km/h (2 Bft) O 88 0 min 0,000 mm 0,0 UV-I 0 W/m 2,3 C 4,4 C 11,3 km/h (2 Bft) 95,74 %
27.02.2017 20:30 5,5 C 80 % 1003,0 hPa 0,0 l/m 7,1 km/h (2 Bft) O 92 0 min 0,000 mm 0,0 UV-I 0 W/m 2,3 C 4,9 C 11,3 km/h (2 Bft) 94,74 %
27.02.2017 20:32 5,7 C 79 % 1002,9 hPa 0,0 l/m 6,2 km/h (2 Bft) O-NO 76 0 min 0,000 mm 0,0 UV-I 0 W/m 2,3 C 5,7 C 11,3 km/h (2 Bft) 97,87 %
27.02.2017 20:34 5,8 C 78 % 1003,0 hPa 0,0 l/m 4,1 km/h (1 Bft) O 90 0 min 0,000 mm 0,0 UV-I 0 W/m 2,3 C 5,8 C 6,4 km/h (2 Bft) 100,00 %
27.02.2017 20:36 5,6 C 79 % 1003,0 hPa 0,0 l/m 2,9 km/h (1 Bft) O-NO 72 0 min 0,000 mm 0,0 UV-I 0 W/m 2,3 C 5,6 C 6,4 km/h (2 Bft) 100,00 %
27.02.2017 20:38 5,4 C 79 % 1003,0 hPa 0,0 l/m 0,4 km/h (0 Bft) O-NO 72 0 min 0,000 mm 0,0 UV-I 0 W/m 2,1 C 5,4 C 1,6 km/h (1 Bft) 96,00 %
27.02.2017 20:40 5,2 C 79 % 1003,0 hPa 0,0 l/m 0,0 km/h (0 Bft) O-NO 72 0 min 0,000 mm 0,0 UV-I 0 W/m 1,9 C 5,2 C 1,6 km/h (1 Bft) 97,87 %
27.02.2017 20:42 4,8 C 81 % 1003,0 hPa 0,0 l/m 0,0 km/h (0 Bft) O-NO 72 0 min 0,000 mm 0,0 UV-I 0 W/m 1,8 C 4,8 C 1,6 km/h (1 Bft) 97,87 %
27.02.2017 20:44 4,6 C 82 % 1002,9 hPa 0,0 l/m 1,6 km/h (1 Bft) O-NO 72 0 min 0,000 mm 0,0 UV-I 0 W/m 1,8 C 4,6 C 3,2 km/h (1 Bft) 97,87 %
27.02.2017 20:46 4,4 C 83 % 1003,0 hPa 0,0 l/m 3,0 km/h (1 Bft) O-NO 72 0 min 0,000 mm 0,0 UV-I 0 W/m 1,8 C 4,4 C 4,8 km/h (1 Bft) 97,87 %
27.02.2017 20:48 4,3 C 83 % 1003,0 hPa 0,0 l/m 2,3 km/h (1 Bft) O-NO 72 0 min 0,000 mm 0,0 UV-I 0 W/m 1,7 C 4,3 C 4,8 km/h (1 Bft) 97,87 %
27.02.2017 20:50 4,1 C 83 % 1003,0 hPa 0,0 l/m 2,6 km/h (1 Bft) O-NO 72 0 min 0,000 mm 0,0 UV-I 0 W/m 1,5 C 4,1 C 4,8 km/h (1 Bft) 97,87 %
27.02.2017 20:52 3,9 C 84 % 1002,9 hPa 0,0 l/m 3,8 km/h (1 Bft) O-SO 105 0 min 0,000 mm 0,0 UV-I 0 W/m 1,4 C 3,9 C 6,4 km/h (2 Bft) 100,00 %
27.02.2017 20:54 3,8 C 84 % 1002,9 hPa 0,0 l/m 5,7 km/h (1 Bft) O 90 0 min 0,000 mm 0,0 UV-I 0 W/m 1,4 C 3,8 C 9,7 km/h (2 Bft) 100,00 %
27.02.2017 20:56 3,7 C 85 % 1002,8 hPa 0,0 l/m 6,3 km/h (2 Bft) O 92 0 min 0,000 mm 0,0 UV-I 0 W/m 1,4 C 3,7 C 11,3 km/h (2 Bft) 97,87 %
27.02.2017 20:58 3,9 C 87 % 1002,8 hPa 0,0 l/m 7,7 km/h (2 Bft) O-NO 67 0 min 0,000 mm 0,0 UV-I 0 W/m 1,9 C 2,7 C 12,9 km/h (3 Bft) 97,87 %
27.02.2017 21:00 4,4 C 86 % 1002,7 hPa 0,0 l/m 7,6 km/h (2 Bft) O 86 0 min 0,000 mm 0,0 UV-I 0 W/m 2,3 C 3,3 C 12,9 km/h (3 Bft) 95,74 %
27.02.2017 21:02 5,0 C 84 % 1002,7 hPa 0,0 l/m 7,1 km/h (2 Bft) O-NO 64 0 min 0,000 mm 0,0 UV-I 0 W/m 2,5 C 4,4 C 9,7 km/h (2 Bft) 94,00 %
27.02.2017 21:04 5,3 C 82 % 1002,8 hPa 0,0 l/m 6,2 km/h (2 Bft) O-NO 66 0 min 0,000 mm 0,0 UV-I 0 W/m 2,5 C 5,3 C 8,0 km/h (2 Bft) 95,74 %
27.02.2017 21:06 5,6 C 81 % 1002,7 hPa 0,0 l/m 6,8 km/h (2 Bft) O-NO 66 0 min 0,000 mm 0,0 UV-I 0 W/m 2,6 C 5,3 C 8,0 km/h (2 Bft) 93,62 %
27.02.2017 21:08 5,7 C 81 % 1002,7 hPa 0,0 l/m 7,6 km/h (2 Bft) O-NO 69 0 min 0,000 mm 0,0 UV-I 0 W/m 2,7 C 4,7 C 9,7 km/h (2 Bft) 98,00 %
27.02.2017 21:10 5,7 C 80 % 1002,7 hPa 0,0 l/m 8,5 km/h (2 Bft) O-NO 74 0 min 0,000 mm 0,0 UV-I 0 W/m 2,5 C 3,9 C 11,3 km/h (2 Bft) 95,74 %
27.02.2017 21:12 5,7 C 80 % 1002,7 hPa 0,0 l/m 7,7 km/h (2 Bft) O-NO 74 0 min 0,000 mm 0,0 UV-I 0 W/m 2,5 C 4,6 C 11,3 km/h (2 Bft) 95,74 %
27.02.2017 21:14 5,7 C 79 % 1002,6 hPa 0,0 l/m 7,9 km/h (2 Bft) O-NO 78 0 min 0,000 mm 0,0 UV-I 0 W/m 2,3 C 4,4 C 11,3 km/h (2 Bft) 97,37 %
27.02.2017 21:16 5,6 C 80 % 1002,5 hPa 0,0 l/m 8,1 km/h (2 Bft) O-NO 72 0 min 0,000 mm 0,0 UV-I 0 W/m 2,4 C 4,2 C 12,9 km/h (3 Bft) 96,00 %
27.02.2017 21:18 5,6 C 80 % 1002,5 hPa 0,0 l/m 7,1 km/h (2 Bft) O-NO 77 0 min 0,000 mm 0,0 UV-I 0 W/m 2,4 C 5,0 C 11,3 km/h (2 Bft) 98,00 %
27.02.2017 21:20 5,6 C 80 % 1002,5 hPa 0,0 l/m 6,3 km/h (2 Bft) O 85 0 min 0,000 mm 0,0 UV-I 0 W/m 2,4 C 5,6 C 11,3 km/h (2 Bft) 95,74 %
27.02.2017 21:22 5,6 C 80 % 1002,5 hPa 0,0 l/m 7,3 km/h (2 Bft) O-NO 65 0 min 0,000 mm 0,0 UV-I 0 W/m 2,4 C 4,8 C 11,3 km/h (2 Bft) 95,74 %
27.02.2017 21:24 5,5 C 80 % 1002,4 hPa 0,0 l/m 6,0 km/h (2 Bft) O-NO 65 0 min 0,000 mm 0,0 UV-I 0 W/m 2,3 C 5,5 C 8,0 km/h (2 Bft) 93,62 %
27.02.2017 21:26 5,4 C 80 % 1002,4 hPa 0,0 l/m 5,2 km/h (1 Bft) O-NO 66 0 min 0,000 mm 0,0 UV-I 0 W/m 2,2 C 5,4 C 6,4 km/h (2 Bft) 97,87 %
27.02.2017 21:28 5,4 C 80 % 1002,4 hPa 0,0 l/m 4,5 km/h (1 Bft) O-NO 66 0 min 0,000 mm 0,0 UV-I 0 W/m 2,2 C 5,4 C 8,0 km/h (2 Bft) 93,62 %
27.02.2017 21:30 5,4 C 80 % 1002,4 hPa 0,0 l/m 4,5 km/h (1 Bft) O-NO 66 0 min 0,000 mm 0,0 UV-I 0 W/m 2,2 C 5,4 C 6,4 km/h (2 Bft) 97,87 %
27.02.2017 21:32 5,3 C 80 % 1002,4 hPa 0,0 l/m 3,8 km/h (1 Bft) O-NO 66 0 min 0,000 mm 0,0 UV-I 0 W/m 2,1 C 5,3 C 4,8 km/h (1 Bft) 93,62 %
27.02.2017 21:34 5,3 C 80 % 1002,4 hPa 0,0 l/m 3,9 km/h (1 Bft) O-NO 66 0 min 0,000 mm 0,0 UV-I 0 W/m 2,1 C 5,3 C 4,8 km/h (1 Bft) 94,87 %
27.02.2017 21:36 5,2 C 81 % 1002,4 hPa 0,0 l/m 3,9 km/h (1 Bft) O-NO 66 0 min 0,000 mm 0,0 UV-I 0 W/m 2,2 C 5,2 C 4,8 km/h (1 Bft) 95,74 %
27.02.2017 21:38 5,2 C 81 % 1002,4 hPa 0,0 l/m 5,2 km/h (1 Bft) O-NO 71 0 min 0,000 mm 0,0 UV-I 0 W/m 2,2 C 5,2 C 8,0 km/h (2 Bft) 93,62 %
27.02.2017 21:40 5,1 C 81 % 1002,4 hPa 0,0 l/m 4,1 km/h (1 Bft) O-NO 71 0 min 0,000 mm 0,0 UV-I 0 W/m 2,1 C 5,1 C 6,4 km/h (2 Bft) 97,87 %
27.02.2017 21:42 5,1 C 81 % 1002,3 hPa 0,0 l/m 4,2 km/h (1 Bft) O-NO 71 0 min 0,000 mm 0,0 UV-I 0 W/m 2,1 C 5,1 C 6,4 km/h (2 Bft) 95,74 %
27.02.2017 21:44 5,1 C 81 % 1002,3 hPa 0,0 l/m 3,6 km/h (1 Bft) O-NO 71 0 min 0,000 mm 0,0 UV-I 0 W/m 2,1 C 5,1 C 4,8 km/h (1 Bft) 97,87 %
27.02.2017 21:46 4,9 C 81 % 1002,3 hPa 0,0 l/m 3,7 km/h (1 Bft) O-NO 71 0 min 0,000 mm 0,0 UV-I 0 W/m 1,9 C 4,9 C 4,8 km/h (1 Bft) 95,74 %
27.02.2017 21:48 4,8 C 82 % 1002,3 hPa 0,0 l/m 3,9 km/h (1 Bft) O-NO 71 0 min 0,000 mm 0,0 UV-I 0 W/m 2,0 C 4,8 C 4,8 km/h (1 Bft) 97,87 %
27.02.2017 21:50 4,8 C 82 % 1002,2 hPa 0,0 l/m 4,8 km/h (1 Bft) O-NO 68 0 min 0,000 mm 0,0 UV-I 0 W/m 2,0 C 4,8 C 6,4 km/h (2 Bft) 95,74 %
27.02.2017 21:52 4,8 C 82 % 1002,2 hPa 0,0 l/m 5,1 km/h (1 Bft) O-NO 67 0 min 0,000 mm 0,0 UV-I 0 W/m 2,0 C 4,8 C 6,4 km/h (2 Bft) 93,62 %
27.02.2017 21:54 4,8 C 82 % 1002,1 hPa 0,0 l/m 5,6 km/h (1 Bft) O-NO 67 0 min 0,000 mm 0,0 UV-I 0 W/m 2,0 C 4,8 C 8,0 km/h (2 Bft) 95,74 %
27.02.2017 21:56 4,7 C 82 % 1002,1 hPa 0,0 l/m 5,5 km/h (1 Bft) O-NO 59 0 min 0,000 mm 0,0 UV-I 0 W/m 1,9 C 4,7 C 8,0 km/h (2 Bft) 95,74 %
27.02.2017 21:58 4,7 C 83 % 1002,0 hPa 0,0 l/m 6,3 km/h (2 Bft) O-NO 67 0 min 0,000 mm 0,0 UV-I 0 W/m 2,1 C 4,7 C 9,7 km/h (2 Bft) 98,00 %
27.02.2017 22:00 4,6 C 83 % 1002,0 hPa 0,0 l/m 5,8 km/h (2 Bft) O-NO 71 0 min 0,000 mm 0,0 UV-I 0 W/m 2,0 C 4,6 C 8,0 km/h (2 Bft) 97,87 %
27.02.2017 22:02 4,6 C 83 % 1002,0 hPa 0,0 l/m 5,2 km/h (1 Bft) O-NO 69 0 min 0,025 mm 0,0 UV-I 0 W/m 2,0 C 4,6 C 8,0 km/h (2 Bft) 100,00 %
27.02.2017 22:04 4,6 C 83 % 1002,0 hPa 0,0 l/m 2,6 km/h (1 Bft) O-NO 69 0 min 0,000 mm 0,0 UV-I 0 W/m 2,0 C 4,6 C 3,2 km/h (1 Bft) 91,49 %
27.02.2017 22:06 4,6 C 83 % 1001,9 hPa 0,0 l/m 3,6 km/h (1 Bft) O-NO 69 0 min 0,000 mm 0,0 UV-I 0 W/m 2,0 C 4,6 C 6,4 km/h (2 Bft) 97,87 %
27.02.2017 22:08 4,4 C 83 % 1001,9 hPa 0,0 l/m 3,5 km/h (1 Bft) O-NO 69 0 min 0,000 mm 0,0 UV-I 0 W/m 1,8 C 4,4 C 4,8 km/h (1 Bft) 93,62 %
27.02.2017 22:10 4,3 C 83 % 1001,9 hPa 0,0 l/m 3,7 km/h (1 Bft) O-NO 69 0 min 0,000 mm 0,0 UV-I 0 W/m 1,7 C 4,3 C 4,8 km/h (1 Bft) 93,62 %
27.02.2017 22:12 4,1 C 84 % 1001,9 hPa 0,0 l/m 3,9 km/h (1 Bft) O-NO 59 0 min 0,000 mm 0,0 UV-I 0 W/m 1,6 C 4,1 C 4,8 km/h (1 Bft) 97,87 %
27.02.2017 22:14 4,0 C 85 % 1001,9 hPa 0,0 l/m 3,6 km/h (1 Bft) O-NO 59 0 min 0,000 mm 0,0 UV-I 0 W/m 1,7 C 4,0 C 4,8 km/h (1 Bft) 94,44 %
27.02.2017 22:16 3,9 C 85 % 1001,9 hPa 0,0 l/m 4,2 km/h (1 Bft) O-NO 59 0 min 0,000 mm 0,0 UV-I 0 W/m 1,6 C 3,9 C 4,8 km/h (1 Bft) 96,77 %
27.02.2017 22:18 3,9 C 85 % 1001,9 hPa 0,0 l/m 4,3 km/h (1 Bft) O-NO 58 0 min 0,000 mm 0,0 UV-I 0 W/m 1,6 C 3,9 C 6,4 km/h (2 Bft) 93,62 %
27.02.2017 22:20 3,8 C 85 % 1001,9 hPa 0,0 l/m 4,5 km/h (1 Bft) O-NO 58 0 min 0,000 mm 0,0 UV-I 0 W/m 1,5 C 3,8 C 6,4 km/h (2 Bft) 95,74 %
27.02.2017 22:22 3,8 C 85 % 1001,9 hPa 0,0 l/m 4,1 km/h (1 Bft) O-NO 58 0 min 0,000 mm 0,0 UV-I 0 W/m 1,5 C 3,8 C 6,4 km/h (2 Bft) 97,87 %
27.02.2017 22:24 3,8 C 85 % 1001,8 hPa 0,0 l/m 4,4 km/h (1 Bft) O-NO 58 0 min 0,000 mm 0,0 UV-I 0 W/m 1,5 C 3,8 C 6,4 km/h (2 Bft) 94,74 %
27.02.2017 22:26 3,8 C 86 % 1001,8 hPa 0,0 l/m 4,5 km/h (1 Bft) O-NO 58 0 min 0,000 mm 0,0 UV-I 0 W/m 1,7 C 3,8 C 4,8 km/h (1 Bft) 95,74 %
27.02.2017 22:28 3,8 C 86 % 1001,7 hPa 0,0 l/m 4,3 km/h (1 Bft) O-NO 58 0 min 0,000 mm 0,0 UV-I 0 W/m 1,7 C 3,8 C 6,4 km/h (2 Bft) 95,74 %
27.02.2017 22:30 3,9 C 86 % 1001,8 hPa 0,0 l/m 4,2 km/h (1 Bft) O-NO 58 0 min 0,000 mm 0,0 UV-I 0 W/m 1,8 C 3,9 C 4,8 km/h (1 Bft) 95,74 %
27.02.2017 22:32 3,9 C 86 % 1001,7 hPa 0,0 l/m 5,0 km/h (1 Bft) O-NO 58 0 min 0,000 mm 0,0 UV-I 0 W/m 1,8 C 3,9 C 6,4 km/h (2 Bft) 95,92 %
27.02.2017 22:34 3,9 C 85 % 1001,7 hPa 0,0 l/m 5,2 km/h (1 Bft) O-NO 63 0 min 0,000 mm 0,0 UV-I 0 W/m 1,6 C 3,9 C 6,4 km/h (2 Bft) 96,00 %
27.02.2017 22:36 3,9 C 85 % 1001,7 hPa 0,0 l/m 6,1 km/h (2 Bft) O-NO 69 0 min 0,000 mm 0,0 UV-I 0 W/m 1,6 C 3,9 C 8,0 km/h (2 Bft) 93,62 %
27.02.2017 22:38 3,9 C 85 % 1001,7 hPa 0,0 l/m 6,1 km/h (2 Bft) NO 47 0 min 0,000 mm 0,0 UV-I 0 W/m 1,6 C 3,9 C 9,7 km/h (2 Bft) 94,74 %
27.02.2017 22:40 3,9 C 86 % 1001,7 hPa 0,0 l/m 4,6 km/h (1 Bft) O-NO 65 0 min 0,000 mm 0,0 UV-I 0 W/m 1,8 C 3,9 C 6,4 km/h (2 Bft) 97,87 %
27.02.2017 22:42 4,0 C 86 % 1001,6 hPa 0,0 l/m 4,8 km/h (1 Bft) O-NO 65 0 min 0,000 mm 0,0 UV-I 0 W/m 1,9 C 4,0 C 6,4 km/h (2 Bft) 100,00 %
27.02.2017 22:44 4,1 C 86 % 1001,6 hPa 0,0 l/m 4,1 km/h (1 Bft) O-NO 63 0 min 0,000 mm 0,0 UV-I 0 W/m 2,0 C 4,1 C 6,4 km/h (2 Bft) 100,00 %
27.02.2017 22:46 4,1 C 85 % 1001,7 hPa 0,0 l/m 3,3 km/h (1 Bft) O-NO 63 0 min 0,000 mm 0,0 UV-I 0 W/m 1,8 C 4,1 C 4,8 km/h (1 Bft) 100,00 %
27.02.2017 22:48 4,0 C 85 % 1001,7 hPa 0,0 l/m 3,4 km/h (1 Bft) O-NO 63 0 min 0,000 mm 0,0 UV-I 0 W/m 1,7 C 4,0 C 4,8 km/h (1 Bft) 97,87 %
27.02.2017 22:50 3,8 C 85 % 1001,8 hPa 0,0 l/m 3,8 km/h (1 Bft) O-NO 63 0 min 0,000 mm 0,0 UV-I 0 W/m 1,5 C 3,8 C 4,8 km/h (1 Bft) 97,87 %
27.02.2017 22:52 3,8 C 85 % 1001,8 hPa 0,0 l/m 3,9 km/h (1 Bft) O-NO 63 0 min 0,000 mm 0,0 UV-I 0 W/m 1,5 C 3,8 C 4,8 km/h (1 Bft) 98,00 %
27.02.2017 22:54 3,8 C 86 % 1001,8 hPa 0,0 l/m 2,7 km/h (1 Bft) O-NO 63 0 min 0,000 mm 0,0 UV-I 0 W/m 1,7 C 3,8 C 4,8 km/h (1 Bft) 94,87 %
27.02.2017 22:56 3,7 C 86 % 1001,7 hPa 0,0 l/m 3,4 km/h (1 Bft) O-NO 63 0 min 0,000 mm 0,0 UV-I 0 W/m 1,6 C 3,7 C 4,8 km/h (1 Bft) 95,74 %
27.02.2017 22:58 3,7 C 86 % 1001,7 hPa 0,0 l/m 4,1 km/h (1 Bft) O-NO 63 0 min 0,000 mm 0,0 UV-I 0 W/m 1,6 C 3,7 C 6,4 km/h (2 Bft) 95,74 %
27.02.2017 23:00 3,7 C 87 % 1001,6 hPa 0,0 l/m 3,6 km/h (1 Bft) O-NO 63 0 min 0,000 mm 0,0 UV-I 0 W/m 1,7 C 3,7 C 4,8 km/h (1 Bft) 95,74 %
27.02.2017 23:02 3,8 C 87 % 1001,6 hPa 0,0 l/m 3,7 km/h (1 Bft) O-NO 63 0 min 0,000 mm 0,0 UV-I 0 W/m 1,8 C 3,8 C 4,8 km/h (1 Bft) 100,00 %
27.02.2017 23:04 3,7 C 86 % 1001,6 hPa 0,0 l/m 4,0 km/h (1 Bft) O 82 0 min 0,000 mm 0,0 UV-I 0 W/m 1,6 C 3,7 C 4,8 km/h (1 Bft) 95,74 %
27.02.2017 23:06 3,7 C 87 % 1001,5 hPa 0,0 l/m 5,0 km/h (1 Bft) O 91 0 min 0,000 mm 0,0 UV-I 0 W/m 1,7 C 3,7 C 6,4 km/h (2 Bft) 100,00 %
27.02.2017 23:08 3,7 C 86 % 1001,5 hPa 0,0 l/m 4,3 km/h (1 Bft) O 84 0 min 0,000 mm 0,0 UV-I 0 W/m 1,6 C 3,7 C 6,4 km/h (2 Bft) 100,00 %
27.02.2017 23:10 3,6 C 86 % 1001,4 hPa 0,0 l/m 6,0 km/h (2 Bft) O 86 0 min 0,000 mm 0,0 UV-I 0 W/m 1,5 C 3,6 C 9,7 km/h (2 Bft) 95,74 %
27.02.2017 23:12 3,5 C 86 % 1001,4 hPa 0,0 l/m 4,7 km/h (1 Bft) O-SO 103 0 min 0,000 mm 0,0 UV-I 0 W/m 1,4 C 3,5 C 6,4 km/h (2 Bft) 93,62 %
27.02.2017 23:14 3,2 C 86 % 1001,4 hPa 0,0 l/m 4,2 km/h (1 Bft) O 86 0 min 0,000 mm 0,0 UV-I 0 W/m 1,1 C 3,2 C 6,4 km/h (2 Bft) 97,87 %
27.02.2017 23:16 3,1 C 87 % 1001,3 hPa 0,0 l/m 3,0 km/h (1 Bft) O 90 0 min 0,000 mm 0,0 UV-I 0 W/m 1,2 C 3,1 C 4,8 km/h (1 Bft) 95,74 %
27.02.2017 23:18 3,2 C 89 % 1001,3 hPa 0,0 l/m 4,9 km/h (1 Bft) O 83 0 min 0,000 mm 0,0 UV-I 0 W/m 1,6 C 3,2 C 8,0 km/h (2 Bft) 100,00 %
27.02.2017 23:20 3,6 C 88 % 1001,3 hPa 0,0 l/m 4,3 km/h (1 Bft) O 98 0 min 0,000 mm 0,0 UV-I 0 W/m 1,8 C 3,6 C 6,4 km/h (2 Bft) 98,00 %
27.02.2017 23:22 3,8 C 88 % 1001,3 hPa 0,0 l/m 3,3 km/h (1 Bft) O 91 0 min 0,000 mm 0,0 UV-I 0 W/m 2,0 C 3,8 C 6,4 km/h (2 Bft) 93,62 %
27.02.2017 23:24 3,7 C 86 % 1001,3 hPa 0,0 l/m 3,5 km/h (1 Bft) O 88 0 min 0,000 mm 0,0 UV-I 0 W/m 1,6 C 3,7 C 4,8 km/h (1 Bft) 95,74 %
27.02.2017 23:26 3,6 C 86 % 1001,3 hPa 0,0 l/m 2,1 km/h (1 Bft) O 88 0 min 0,000 mm 0,0 UV-I 0 W/m 1,5 C 3,6 C 3,2 km/h (1 Bft) 97,87 %
27.02.2017 23:28 3,5 C 86 % 1001,3 hPa 0,0 l/m 2,2 km/h (1 Bft) O 88 0 min 0,000 mm 0,0 UV-I 0 W/m 1,4 C 3,5 C 4,8 km/h (1 Bft) 100,00 %
27.02.2017 23:30 3,4 C 87 % 1001,4 hPa 0,0 l/m 1,5 km/h (1 Bft) O 88 0 min 0,000 mm 0,0 UV-I 0 W/m 1,4 C 3,4 C 3,2 km/h (1 Bft) 97,37 %
27.02.2017 23:32 3,3 C 87 % 1001,4 hPa 0,0 l/m 0,3 km/h (0 Bft) O 88 0 min 0,000 mm 0,0 UV-I 0 W/m 1,3 C 3,3 C 1,6 km/h (1 Bft) 97,87 %
27.02.2017 23:34 3,1 C 86 % 1001,5 hPa 0,0 l/m 1,1 km/h (1 Bft) O 88 0 min 0,000 mm 0,0 UV-I 0 W/m 1,0 C 3,1 C 3,2 km/h (1 Bft) 97,87 %
27.02.2017 23:36 2,7 C 86 % 1001,5 hPa 0,0 l/m 3,3 km/h (1 Bft) O 88 0 min 0,000 mm 0,0 UV-I 0 W/m 0,6 C 2,7 C 4,8 km/h (1 Bft) 97,87 %
27.02.2017 23:38 2,3 C 87 % 1001,5 hPa 0,0 l/m 2,6 km/h (1 Bft) O 88 0 min 0,000 mm 0,0 UV-I 0 W/m 0,4 C 2,3 C 4,8 km/h (1 Bft) 100,00 %
27.02.2017 23:40 2,2 C 88 % 1001,5 hPa 0,0 l/m 1,1 km/h (1 Bft) O 88 0 min 0,000 mm 0,0 UV-I 0 W/m 0,4 C 2,2 C 3,2 km/h (1 Bft) 97,87 %
27.02.2017 23:42 2,1 C 90 % 1001,4 hPa 0,0 l/m 1,2 km/h (1 Bft) O 88 0 min 0,000 mm 0,0 UV-I 0 W/m 0,6 C 2,1 C 3,2 km/h (1 Bft) 97,87 %
27.02.2017 23:44 2,1 C 90 % 1001,4 hPa 0,0 l/m 0,0 km/h (0 Bft) O 88 0 min 0,000 mm 0,0 UV-I 0 W/m 0,6 C 2,1 C 0,0 km/h (0 Bft) 93,62 %
27.02.2017 23:46 2,2 C 90 % 1001,3 hPa 0,0 l/m 0,0 km/h (0 Bft) O 88 0 min 0,000 mm 0,0 UV-I 0 W/m 0,7 C 2,2 C 0,0 km/h (0 Bft) 96,00 %
27.02.2017 23:48 1,9 C 89 % 1001,2 hPa 0,0 l/m 0,0 km/h (0 Bft) O 88 0 min 0,000 mm 0,0 UV-I 0 W/m 0,3 C 1,9 C 0,0 km/h (0 Bft) 95,74 %
27.02.2017 23:50 1,9 C 90 % 1001,2 hPa 0,0 l/m 1,7 km/h (1 Bft) O 88 0 min 0,000 mm 0,0 UV-I 0 W/m 0,4 C 1,9 C 3,2 km/h (1 Bft) 93,62 %
27.02.2017 23:52 1,8 C 90 % 1001,2 hPa 0,0 l/m 1,8 km/h (1 Bft) O 88 0 min 0,000 mm 0,0 UV-I 0 W/m 0,3 C 1,8 C 3,2 km/h (1 Bft) 95,74 %
27.02.2017 23:54 1,8 C 91 % 1001,2 hPa 0,0 l/m 0,7 km/h (0 Bft) O 88 0 min 0,000 mm 0,0 UV-I 0 W/m 0,5 C 1,8 C 1,6 km/h (1 Bft) 97,87 %
27.02.2017 23:56 1,9 C 91 % 1001,2 hPa 0,0 l/m 1,5 km/h (1 Bft) O 88 0 min 0,000 mm 0,0 UV-I 0 W/m 0,6 C 1,9 C 3,2 km/h (1 Bft) 97,87 %
27.02.2017 23:58 2,1 C 92 % 1001,2 hPa 0,0 l/m 0,7 km/h (0 Bft) O 88 0 min 0,000 mm 0,0 UV-I 0 W/m 0,9 C 2,1 C 1,6 km/h (1 Bft) 95,74 %
_ Min-Zeit 06:38 13:02 23:48 - 00:02 - - - - - - 06:38 06:38 00:02 07:20
Minimum _ -1,5 C 53 % 1001,2 hPa - 0,0 km/h (0 Bft) - - - - - - -2,1 C -1,5 C 0,0 km/h (0 Bft) 84,00 %
_ Max-Zeit 14:44 07:22 00:42 07:40 13:14 - - 12:05 13:00 12:40 12:44 12:20 14:14 12:36 00:00
Maximum _ 11,7 C 97 % 1016,2 hPa 0,2 l/m 11,6 km/h
O-NO (2 Bft)
- - 3 min 0,279 mm 2,2 UV-I 764 W/m 4,1 C 11,6 C 17,7 km/h
O-NO (3 Bft)
100,00 %
Durchschnitt _ 4,4 C 81 % 1009,1 hPa #0,2 l/m 2,9 km/h (1 Bft) O - #8:30 h #1,727 mm 1,3 UV-I 298 W/m 1,0 C 4,3 C 4,9 km/h (1 Bft) 96,68 %